Darstellungsparameter: Aktuell verwendete Einstellungen:
Skalierung der Graphiken ... ?
xyx+y,   Skalierungsfaktor:      Skalierung: Modus: x, Faktor: 1
Darstellungszeitraum ... ?
Vom - - bis: - -   Zeitraum: 29.06.2019 - 28.12.2019
Min/Max/Avg-Anzeige ... ?
Zeige MMA aktuell
Zeige MMA Monat
Zeige MMA alles
Zeige --A aktuell
Zeige --A Monat
Zeige --A alles
Keine MMA-Anzeige
MMA:
Average (ber die Originaldaten)
MMA-Basis: 29.06.2019 - 28.12.2019
Quicknavigation für Darstellung... ?
Tage:      1T, 2T, 3T, 5T -1T -2T -3T -5T +1T +2T +3T +5T
Wochen: 1W, 2W, 3W -1W -2W -3W +1W +2W +3W
Monate: 1M, 3M, 6M -1M -3M -6M +1M +3M +6M
Jahre:    1J, 3J, 5J, 10J -1J -3J -5J -10J +1J +3J +5J +10J
Nutze für die Darstellung ... ?
Originaldaten oder Mittelwerte auf ...
Stundenbasis Tagesbasis Wochenbasis
Monatsbasis Jahresbasis      Datenbasis: Original-Daten
Darstellen als:
Statistik (Auto) Statistik J:M      Darstellung:
Zur Graphik,    zurück zur Übersicht aller Sensoren.
 
Tabellarische Datenbersicht: ?
 
Sensor: Nr:Datum:Temp:Feuchte:
Aussen-T/F 1 29-06-2019 00:04:16 18.7 C 20 %
2 29-06-2019 00:16:16 18.6 C 20 %
3 29-06-2019 00:28:16 18.3 C 20 %
4 29-06-2019 00:40:16 18.1 C 20 %
5 29-06-2019 00:52:16 18 C 20 %
6 29-06-2019 01:04:17 17.9 C 20 %
7 29-06-2019 01:16:16 17.8 C 20 %
8 29-06-2019 01:28:16 17.7 C 20 %
9 29-06-2019 01:40:17 17.6 C 20 %
10 29-06-2019 01:52:16 17.4 C 20 %
11 29-06-2019 02:04:16 17.2 C 20 %
12 29-06-2019 02:16:15 17.1 C 20 %
13 29-06-2019 02:28:15 16.9 C 20 %
14 29-06-2019 02:40:16 16.8 C 20 %
15 29-06-2019 02:52:17 16.7 C 20 %
16 29-06-2019 03:04:17 16.5 C 20 %
17 29-06-2019 03:16:17 16.4 C 20 %
18 29-06-2019 03:28:18 16.2 C 20 %
19 29-06-2019 03:40:18 16.2 C 20 %
20 29-06-2019 03:52:17 15.8 C 20 %
21 29-06-2019 04:04:17 15.5 C 22 %
22 29-06-2019 04:16:17 15.2 C 23 %
23 29-06-2019 04:28:17 15 C 25 %
24 29-06-2019 04:40:18 14.7 C 27 %
25 29-06-2019 04:52:17 14.5 C 29 %
Sensor: Nr:Datum:Temp:Feuchte:
Aussen-T/F 26 29-06-2019 05:04:17 14.3 C 28 %
27 29-06-2019 05:16:17 14.1 C 28 %
28 29-06-2019 05:28:17 14 C 29 %
29 29-06-2019 05:40:17 14 C 30 %
30 29-06-2019 05:52:18 13.9 C 31 %
31 29-06-2019 06:04:18 13.8 C 32 %
32 29-06-2019 06:16:17 13.8 C 32 %
33 29-06-2019 06:28:17 13.9 C 33 %
34 29-06-2019 06:40:17 13.9 C 34 %
35 29-06-2019 06:52:17 13.9 C 35 %
36 29-06-2019 07:04:17 14 C 34 %
37 29-06-2019 07:16:17 14.1 C 34 %
38 29-06-2019 07:28:17 14.3 C 35 %
39 29-06-2019 07:40:17 14.5 C 35 %
40 29-06-2019 07:52:18 14.6 C 34 %
41 29-06-2019 08:04:18 14.8 C 33 %
42 29-06-2019 08:16:17 15.2 C 33 %
43 29-06-2019 08:28:17 15.8 C 31 %
44 29-06-2019 08:40:17 16.5 C 29 %
45 29-06-2019 08:52:18 17.4 C 25 %
46 29-06-2019 09:04:18 17.9 C 20 %
47 29-06-2019 09:16:17 20.5 C 20 %
48 29-06-2019 09:28:17 23.3 C 20 %
49 29-06-2019 09:40:17 25.6 C 20 %
50 29-06-2019 09:52:18 26.4 C 20 %
Sensor: Nr:Datum:Temp:Feuchte:
Aussen-T/F 51 29-06-2019 10:04:18 25.2 C 20 %
52 29-06-2019 10:16:17 24.3 C 20 %
53 29-06-2019 10:28:17 24.6 C 20 %
54 29-06-2019 10:40:17 25.7 C 20 %
55 29-06-2019 10:52:17 26 C 20 %
56 29-06-2019 11:04:17 26.6 C 20 %
57 29-06-2019 11:16:17 27.2 C 20 %
58 29-06-2019 11:28:17 27.4 C 20 %
59 29-06-2019 11:40:17 28.7 C 20 %
60 29-06-2019 11:52:17 29.5 C 20 %
61 29-06-2019 12:04:17 29.8 C 20 %
62 29-06-2019 12:16:17 29.1 C 20 %
63 29-06-2019 12:28:17 29.4 C 20 %
64 29-06-2019 12:40:18 29.3 C 20 %
65 29-06-2019 12:52:18 29.2 C 20 %
66 29-06-2019 13:04:17 29.5 C 20 %
67 29-06-2019 13:16:17 29.7 C 20 %
68 29-06-2019 13:28:17 30.2 C 20 %
69 29-06-2019 13:40:18 30.4 C 20 %
70 29-06-2019 13:52:18 30.7 C 20 %
71 29-06-2019 14:04:17 31.1 C 20 %
72 29-06-2019 14:16:17 31.7 C 20 %
73 29-06-2019 14:28:17 31.9 C 20 %
74 29-06-2019 14:40:17 32.6 C 20 %
75 29-06-2019 14:52:18 32.8 C 20 %
Sensor: Nr:Datum:Temp:Feuchte:
Aussen-T/F 76 29-06-2019 15:04:17 33.1 C 20 %
77 29-06-2019 15:16:17 33.7 C 20 %
78 29-06-2019 15:28:17 33.8 C 20 %
79 29-06-2019 15:40:17 34.4 C 20 %
80 29-06-2019 15:52:17 34.2 C 20 %
81 29-06-2019 16:04:17 34.4 C 20 %
82 29-06-2019 16:16:17 34.3 C 20 %
83 29-06-2019 16:28:17 34.4 C 20 %
84 29-06-2019 16:40:18 34.3 C 20 %
85 29-06-2019 16:52:18 34.5 C 20 %
86 29-06-2019 17:04:18 34.5 C 20 %
87 29-06-2019 17:16:18 35.3 C 20 %
88 29-06-2019 17:28:18 35.6 C 20 %
89 29-06-2019 17:40:18 36 C 20 %
90 29-06-2019 17:52:17 36.2 C 20 %
91 29-06-2019 18:04:17 36.7 C 20 %
92 29-06-2019 18:16:17 35.3 C 20 %
93 29-06-2019 18:28:17 35.4 C 20 %
94 29-06-2019 18:40:17 35.9 C 20 %
95 29-06-2019 18:52:17 36 C 20 %
96 29-06-2019 19:04:17 35.8 C 20 %
97 29-06-2019 19:16:17 36 C 20 %
98 29-06-2019 19:28:17 35.2 C 20 %
99 29-06-2019 19:40:17 34.7 C 20 %
100 29-06-2019 19:52:17 34.1 C 20 %
Sensor: Nr:Datum:Temp:Feuchte:
Aussen-T/F 101 29-06-2019 20:04:17 33 C 20 %
102 29-06-2019 20:16:17 32.3 C 20 %
103 29-06-2019 20:28:17 30.5 C 20 %
104 29-06-2019 20:40:17 29.4 C 20 %
105 29-06-2019 20:52:17 28.7 C 20 %
106 29-06-2019 21:04:17 27.6 C 20 %
107 29-06-2019 21:16:17 26.4 C 20 %
108 29-06-2019 21:28:17 25.6 C 20 %
109 29-06-2019 21:40:17 24.9 C 20 %
110 29-06-2019 21:52:17 24.5 C 20 %
111 29-06-2019 22:04:17 24.1 C 20 %
112 29-06-2019 22:16:17 23.6 C 20 %
113 29-06-2019 22:28:17 23.6 C 20 %
114 29-06-2019 22:40:17 23.2 C 20 %
115 29-06-2019 22:52:17 22.9 C 20 %
116 29-06-2019 23:04:18 22.4 C 20 %
117 29-06-2019 23:16:17 21.3 C 20 %
118 29-06-2019 23:28:17 20.6 C 20 %
119 29-06-2019 23:40:17 20.1 C 20 %
120 29-06-2019 23:52:17 19.7 C 20 %
121 30-06-2019 00:04:18 19.4 C 20 %
122 30-06-2019 00:16:17 18.9 C 20 %
123 30-06-2019 00:28:17 18.6 C 20 %
124 30-06-2019 00:40:17 18.2 C 20 %
125 30-06-2019 00:52:18 18.1 C 20 %
Sensor: Nr:Datum:Temp:Feuchte:
Aussen-T/F 126 30-06-2019 01:04:17 17.9 C 20 %
127 30-06-2019 01:16:18 17.7 C 20 %
128 30-06-2019 01:28:18 17.4 C 20 %
129 30-06-2019 01:40:17 17.2 C 20 %
130 30-06-2019 01:52:18 17.1 C 20 %
131 30-06-2019 02:04:18 17 C 20 %
132 30-06-2019 02:16:17 16.9 C 20 %
133 30-06-2019 02:28:17 16.7 C 20 %
134 30-06-2019 02:40:17 16.6 C 22 %
135 30-06-2019 02:52:17 16.5 C 22 %
136 30-06-2019 03:04:17 16.3 C 22 %
137 30-06-2019 03:16:17 16.2 C 23 %
138 30-06-2019 03:28:17 16.2 C 23 %
139 30-06-2019 03:40:17 15.8 C 25 %
140 30-06-2019 03:52:17 15.9 C 26 %
141 30-06-2019 04:04:17 15.7 C 25 %
142 30-06-2019 04:16:17 15.7 C 27 %
143 30-06-2019 04:28:17 15.6 C 27 %
144 30-06-2019 04:40:17 15.5 C 27 %
145 30-06-2019 04:52:18 15.3 C 27 %
146 30-06-2019 05:04:18 15.2 C 28 %
147 30-06-2019 05:16:17 15.1 C 29 %
148 30-06-2019 05:28:17 15.1 C 30 %
149 30-06-2019 05:40:17 14.9 C 31 %
150 30-06-2019 05:52:17 15 C 31 %
Sensor: Nr:Datum:Temp:Feuchte:
Aussen-T/F 151 30-06-2019 06:04:17 15 C 32 %
152 30-06-2019 06:16:18 15 C 32 %
153 30-06-2019 06:28:18 15 C 32 %
154 30-06-2019 06:40:18 15.1 C 33 %
155 30-06-2019 06:52:17 15.2 C 33 %
156 30-06-2019 07:04:17 15.4 C 33 %
157 30-06-2019 07:16:17 15.6 C 33 %
158 30-06-2019 07:28:17 16 C 32 %
159 30-06-2019 07:40:17 16 C 32 %
160 30-06-2019 07:52:17 16.3 C 33 %
161 30-06-2019 08:04:17 16.8 C 31 %
162 30-06-2019 08:16:17 17.1 C 30 %
163 30-06-2019 08:28:17 17.7 C 29 %
164 30-06-2019 08:40:17 18.5 C 26 %
165 30-06-2019 08:52:17 19.5 C 22 %
166 30-06-2019 09:04:17 19.8 C 20 %
167 30-06-2019 09:16:17 20.9 C 20 %
168 30-06-2019 09:28:17 23 C 20 %
169 30-06-2019 09:40:17 27.4 C 20 %
170 30-06-2019 09:52:17 29.1 C 20 %
171 30-06-2019 10:04:17 26.9 C 20 %
172 30-06-2019 10:16:17 25.3 C 20 %
173 30-06-2019 10:28:17 27.2 C 20 %
174 30-06-2019 10:40:18 29.8 C 20 %
175 30-06-2019 10:52:17 30.4 C 20 %
Sensor: Nr:Datum:Temp:Feuchte:
Aussen-T/F 176 30-06-2019 11:04:17 31.1 C 20 %
177 30-06-2019 11:16:17 31.7 C 20 %
178 30-06-2019 11:28:17 32.7 C 20 %
179 30-06-2019 11:40:17 33.2 C 20 %
180 30-06-2019 11:52:17 34.8 C 20 %
181 30-06-2019 12:04:17 34.2 C 20 %
182 30-06-2019 12:16:17 33.8 C 20 %
183 30-06-2019 12:28:17 34.7 C 20 %
184 30-06-2019 12:40:17 33.7 C 20 %
185 30-06-2019 12:52:17 34 C 20 %
186 30-06-2019 13:04:17 34.4 C 20 %
187 30-06-2019 13:16:17 34.6 C 20 %
188 30-06-2019 13:28:17 35.1 C 20 %
189 30-06-2019 13:40:17 35.7 C 20 %
190 30-06-2019 13:52:18 35.9 C 20 %
191 30-06-2019 14:04:18 36.6 C 20 %
192 30-06-2019 14:16:17 37.1 C 20 %
193 30-06-2019 14:28:17 37.2 C 20 %
194 30-06-2019 14:40:17 38 C 20 %
195 30-06-2019 14:52:17 37.5 C 20 %
196 30-06-2019 15:04:18 37 C 20 %
197 30-06-2019 15:16:18 37 C 20 %
198 30-06-2019 15:28:18 36.2 C 20 %
199 30-06-2019 15:40:17 36.5 C 20 %
200 30-06-2019 15:52:18 36.6 C 20 %
Sensor: Nr:Datum:Temp:Feuchte:
Aussen-T/F 201 30-06-2019 16:04:18 35.7 C 20 %
202 30-06-2019 16:16:17 35.5 C 20 %
203 30-06-2019 16:28:17 36.1 C 20 %
204 30-06-2019 16:40:17 36.8 C 20 %
205 30-06-2019 16:52:18 36.1 C 20 %
206 30-06-2019 17:04:17 36 C 20 %
207 30-06-2019 17:16:54 35.9 C 20 %
208 30-06-2019 17:28:54 36.2 C 20 %
209 30-06-2019 17:40:18 36.4 C 20 %
210 30-06-2019 17:52:17 36.7 C 20 %
211 30-06-2019 18:04:17 37 C 20 %
212 30-06-2019 18:16:17 35.5 C 20 %
213 30-06-2019 18:28:17 35.7 C 20 %
214 30-06-2019 18:40:17 35.4 C 20 %
215 30-06-2019 18:52:17 34.5 C 20 %
216 30-06-2019 19:04:18 34.5 C 20 %
217 30-06-2019 19:16:17 33.3 C 20 %
218 30-06-2019 19:28:17 32.9 C 20 %
219 30-06-2019 19:40:17 32.4 C 20 %
220 30-06-2019 19:52:18 31.6 C 20 %
221 30-06-2019 20:04:17 30.9 C 20 %
222 30-06-2019 20:16:17 30.1 C 20 %
223 30-06-2019 20:28:17 29.6 C 20 %
224 30-06-2019 20:40:17 29.2 C 20 %
225 30-06-2019 20:52:17 28.6 C 20 %
Sensor: Nr:Datum:Temp:Feuchte:
Aussen-T/F 226 30-06-2019 21:04:17 28.2 C 20 %
227 30-06-2019 21:16:18 27.8 C 20 %
228 30-06-2019 21:28:18 27.6 C 20 %
229 30-06-2019 21:40:17 27.3 C 20 %
230 30-06-2019 21:52:17 27.4 C 20 %
231 30-06-2019 22:04:17 27.1 C 20 %
232 30-06-2019 22:16:17 27 C 20 %
233 30-06-2019 22:28:17 26.7 C 20 %
234 30-06-2019 22:40:17 26.2 C 20 %
235 30-06-2019 22:52:17 26.1 C 20 %
236 30-06-2019 23:04:17 25.6 C 20 %
237 30-06-2019 23:16:17 25 C 20 %
238 30-06-2019 23:28:17 24.3 C 20 %
239 30-06-2019 23:40:17 23.5 C 20 %
240 30-06-2019 23:52:18 23.5 C 20 %
241 01-07-2019 00:04:17 23.1 C 20 %
242 01-07-2019 00:16:17 22.8 C 20 %
243 01-07-2019 00:28:17 22.7 C 20 %
244 01-07-2019 00:40:18 22.6 C 20 %
245 01-07-2019 00:52:17 22.5 C 20 %
246 01-07-2019 01:04:17 22.5 C 20 %
247 01-07-2019 01:16:18 22.5 C 20 %
248 01-07-2019 01:28:18 22.3 C 20 %
249 01-07-2019 01:40:17 23.1 C 20 %
250 01-07-2019 01:52:17 23.1 C 20 %
Sensor: Nr:Datum:Temp:Feuchte:
Aussen-T/F 251 01-07-2019 02:04:17 22.1 C 20 %
252 01-07-2019 02:16:17 21.6 C 20 %
253 01-07-2019 02:28:17 21.2 C 20 %
254 01-07-2019 02:40:17 21.1 C 20 %
255 01-07-2019 02:52:17 21.3 C 20 %
256 01-07-2019 03:04:17 21.3 C 20 %
257 01-07-2019 03:16:17 21.2 C 20 %
258 01-07-2019 03:28:17 21.8 C 20 %
259 01-07-2019 03:40:17 21.5 C 20 %
260 01-07-2019 03:52:17 21.1 C 20 %
261 01-07-2019 04:04:17 21 C 20 %
262 01-07-2019 04:16:17 20.6 C 20 %
263 01-07-2019 04:28:17 20 C 20 %
264 01-07-2019 04:40:17 20.2 C 20 %
265 01-07-2019 04:52:18 20.1 C 20 %
266 01-07-2019 05:04:17 20 C 20 %
267 01-07-2019 05:16:18 20.1 C 20 %
268 01-07-2019 05:28:18 19.7 C 20 %
269 01-07-2019 05:40:17 19.6 C 20 %
270 01-07-2019 05:52:17 19.7 C 20 %
271 01-07-2019 06:04:17 20 C 20 %
272 01-07-2019 06:16:17 19.9 C 20 %
273 01-07-2019 06:28:17 20.2 C 20 %
274 01-07-2019 06:40:17 20.3 C 20 %
275 01-07-2019 06:52:18 20.3 C 20 %
Sensor: Nr:Datum:Temp:Feuchte:
Aussen-T/F 276 01-07-2019 07:04:17 20.3 C 20 %
277 01-07-2019 07:16:17 20.1 C 20 %
278 01-07-2019 07:28:17 19.5 C 20 %
279 01-07-2019 07:40:17 20 C 20 %
280 01-07-2019 07:52:17 19.8 C 20 %
281 01-07-2019 08:04:18 20 C 20 %
282 01-07-2019 08:16:17 20.4 C 20 %
283 01-07-2019 08:28:17 20.5 C 20 %
284 01-07-2019 08:40:17 21.1 C 20 %
285 01-07-2019 08:52:17 21.5 C 20 %
286 01-07-2019 09:04:17 21.2 C 20 %
287 01-07-2019 09:16:17 20.7 C 20 %
288 01-07-2019 09:28:17 20.7 C 20 %
289 01-07-2019 09:40:17 22.6 C 20 %
290 01-07-2019 09:52:17 25.3 C 20 %
291 01-07-2019 10:04:17 23.7 C 20 %
292 01-07-2019 10:16:17 23 C 20 %
293 01-07-2019 10:28:17 23.1 C 20 %
294 01-07-2019 10:40:17 21.1 C 20 %
295 01-07-2019 10:52:18 22.1 C 20 %
296 01-07-2019 11:04:17 22.9 C 20 %
297 01-07-2019 11:16:17 23.3 C 20 %
298 01-07-2019 11:28:17 23.9 C 20 %
299 01-07-2019 11:40:17 23.7 C 20 %
300 01-07-2019 11:52:17 23.5 C 20 %
Sensor: Nr:Datum:Temp:Feuchte:
Aussen-T/F 301 01-07-2019 12:04:17 24 C 20 %
302 01-07-2019 12:16:18 24.6 C 20 %
303 01-07-2019 12:28:18 25 C 20 %
304 01-07-2019 12:40:17 25.2 C 20 %
305 01-07-2019 12:52:17 25.6 C 20 %
306 01-07-2019 13:04:17 26.1 C 20 %
307 01-07-2019 13:16:17 26.1 C 20 %
308 01-07-2019 13:28:17 25.9 C 20 %
309 01-07-2019 13:40:17 26.4 C 20 %
310 01-07-2019 13:52:17 25.8 C 20 %
311 01-07-2019 14:04:18 26.6 C 20 %
312 01-07-2019 14:16:17 26.7 C 20 %
313 01-07-2019 14:28:17 27.3 C 20 %
314 01-07-2019 14:40:17 27.1 C 20 %
315 01-07-2019 14:52:17 28 C 20 %
316 01-07-2019 15:04:18 28.9 C 20 %
317 01-07-2019 15:16:17 28.3 C 20 %
318 01-07-2019 15:28:17 28 C 20 %
319 01-07-2019 15:40:17 28.1 C 20 %
320 01-07-2019 15:52:17 26.9 C 20 %
321 01-07-2019 16:04:17 26.9 C 20 %
322 01-07-2019 16:16:17 27.7 C 20 %
323 01-07-2019 16:28:17 27.9 C 20 %
324 01-07-2019 16:40:17 28.6 C 20 %
325 01-07-2019 16:52:17 27.3 C 20 %
Sensor: Nr:Datum:Temp:Feuchte:
Aussen-T/F 326 01-07-2019 17:04:17 28 C 20 %
327 01-07-2019 17:16:17 28.3 C 20 %
328 01-07-2019 17:28:17 28.4 C 20 %
329 01-07-2019 17:40:17 27.1 C 20 %
330 01-07-2019 17:52:17 27.5 C 20 %
331 01-07-2019 18:04:17 27.3 C 20 %
332 01-07-2019 18:16:18 27 C 20 %
333 01-07-2019 18:28:18 27.1 C 20 %
334 01-07-2019 18:40:17 27.6 C 20 %
335 01-07-2019 18:52:17 27 C 20 %
336 01-07-2019 19:04:17 27.4 C 20 %
337 01-07-2019 19:16:17 27.2 C 20 %
338 01-07-2019 19:28:17 26.3 C 20 %
339 01-07-2019 19:40:18 25.8 C 20 %
340 01-07-2019 19:52:17 25.6 C 20 %
341 01-07-2019 20:04:17 25.2 C 20 %
342 01-07-2019 20:16:17 25.2 C 20 %
343 01-07-2019 20:28:17 25 C 20 %
344 01-07-2019 20:40:17 24.4 C 20 %
345 01-07-2019 20:52:18 23.7 C 20 %
346 01-07-2019 21:04:17 23 C 20 %
347 01-07-2019 21:16:18 22.9 C 20 %
348 01-07-2019 21:28:18 22.6 C 20 %
349 01-07-2019 21:40:17 22.3 C 20 %
350 01-07-2019 21:52:17 22.1 C 20 %
Sensor: Nr:Datum:Temp:Feuchte:
Aussen-T/F 351 01-07-2019 22:04:17 21.4 C 20 %
352 01-07-2019 22:16:17 21.4 C 20 %
353 01-07-2019 22:28:17 20.6 C 20 %
354 01-07-2019 22:40:17 20.4 C 20 %
355 01-07-2019 22:52:17 20.2 C 20 %
356 01-07-2019 23:04:18 20.4 C 20 %
357 01-07-2019 23:16:17 20.7 C 20 %
358 01-07-2019 23:28:17 20.5 C 20 %
359 01-07-2019 23:40:18 20.3 C 20 %
360 01-07-2019 23:52:18 19.9 C 20 %
361 02-07-2019 00:04:17 19.8 C 20 %
362 02-07-2019 00:16:17 19.2 C 20 %
363 02-07-2019 00:28:17 18.5 C 20 %
364 02-07-2019 00:40:17 18.2 C 20 %
365 02-07-2019 00:52:18 17.4 C 20 %
366 02-07-2019 01:04:18 17.2 C 20 %
367 02-07-2019 01:16:18 17.2 C 20 %
368 02-07-2019 01:28:18 16.8 C 20 %
369 02-07-2019 01:40:18 16.5 C 20 %
370 02-07-2019 01:52:18 16 C 20 %
371 02-07-2019 02:04:18 15.9 C 20 %
372 02-07-2019 02:16:18 16 C 20 %
373 02-07-2019 02:28:18 15.8 C 20 %
374 02-07-2019 02:40:17 15.5 C 20 %
375 02-07-2019 02:52:18 15.4 C 20 %
Sensor: Nr:Datum:Temp:Feuchte:
Aussen-T/F 376 02-07-2019 03:04:17 15.1 C 20 %
377 02-07-2019 03:16:17 15.2 C 20 %
378 02-07-2019 03:28:17 16.1 C 20 %
379 02-07-2019 03:40:17 15.9 C 20 %
380 02-07-2019 03:52:17 15.3 C 20 %
381 02-07-2019 04:04:17 14.9 C 20 %
382 02-07-2019 04:16:18 14.6 C 23 %
383 02-07-2019 04:28:18 14.2 C 25 %
384 02-07-2019 04:40:18 13.9 C 27 %
385 02-07-2019 04:52:17 13.7 C 29 %
386 02-07-2019 05:04:17 13.7 C 29 %
387 02-07-2019 05:16:18 13.6 C 30 %
388 02-07-2019 05:28:18 13.5 C 30 %
389 02-07-2019 05:40:18 13.4 C 30 %
390 02-07-2019 05:52:18 13.3 C 31 %
391 02-07-2019 06:04:17 13.3 C 32 %
392 02-07-2019 06:16:18 13.3 C 33 %
393 02-07-2019 06:28:18 13.3 C 33 %
394 02-07-2019 06:40:18 13.2 C 32 %
395 02-07-2019 06:52:18 13.3 C 34 %
396 02-07-2019 07:04:17 13.3 C 34 %
397 02-07-2019 07:16:17 13.3 C 34 %
398 02-07-2019 07:28:17 13.5 C 34 %
399 02-07-2019 07:40:18 13.7 C 34 %
400 02-07-2019 07:52:18 14 C 32 %
Sensor: Nr:Datum:Temp:Feuchte:
Aussen-T/F 401 02-07-2019 08:04:17 14.2 C 32 %
402 02-07-2019 08:16:17 15 C 26 %
403 02-07-2019 08:28:18 15.8 C 20 %
404 02-07-2019 08:40:18 17 C 20 %
405 02-07-2019 08:52:17 17.9 C 20 %
406 02-07-2019 09:04:17 17.7 C 20 %
407 02-07-2019 09:16:17 18.7 C 20 %
408 02-07-2019 09:28:17 19.5 C 20 %
409 02-07-2019 09:40:17 20.7 C 20 %
410 02-07-2019 09:52:17 22 C 20 %
411 02-07-2019 10:04:18 21.4 C 20 %
412 02-07-2019 10:16:17 19.9 C 20 %
413 02-07-2019 10:28:17 20.1 C 20 %
414 02-07-2019 10:40:18 21.4 C 20 %
415 02-07-2019 10:52:17 20.2 C 20 %
416 02-07-2019 11:04:17 21.3 C 20 %
417 02-07-2019 11:16:17 21.2 C 20 %
418 02-07-2019 11:28:17 20.8 C 20 %
419 02-07-2019 11:40:17 21.8 C 20 %
420 02-07-2019 11:52:17 21.1 C 20 %
421 02-07-2019 12:04:18 21 C 20 %
422 02-07-2019 12:16:17 22 C 20 %
423 02-07-2019 12:28:17 22.4 C 20 %
424 02-07-2019 12:40:18 22 C 20 %
425 02-07-2019 12:52:18 22.2 C 20 %
Sensor: Nr:Datum:Temp:Feuchte:
Aussen-T/F 426 02-07-2019 13:04:17 22.5 C 20 %
427 02-07-2019 13:16:17 22 C 20 %
428 02-07-2019 13:28:17 22.5 C 20 %
429 02-07-2019 13:40:17 22.8 C 20 %
430 02-07-2019 13:52:17 23.4 C 20 %
431 02-07-2019 14:04:18 23.6 C 20 %
432 02-07-2019 14:16:17 23.2 C 20 %
433 02-07-2019 14:28:17 24.2 C 20 %
434 02-07-2019 14:40:17 24.6 C 20 %
435 02-07-2019 14:52:18 23 C 20 %
436 02-07-2019 15:04:18 23.2 C 20 %
437 02-07-2019 15:16:17 24.8 C 20 %
438 02-07-2019 15:28:17 25.2 C 20 %
439 02-07-2019 15:40:18 23.4 C 20 %
440 02-07-2019 15:52:18 24.6 C 20 %
441 02-07-2019 16:04:17 25.6 C 20 %
442 02-07-2019 16:16:17 26.1 C 20 %
443 02-07-2019 16:28:17 25.9 C 20 %
444 02-07-2019 16:40:17 26.2 C 20 %
445 02-07-2019 16:52:17 26.2 C 20 %
446 02-07-2019 17:04:18 26.3 C 20 %
447 02-07-2019 17:16:17 27.4 C 20 %
448 02-07-2019 17:28:17 26 C 20 %
449 02-07-2019 17:40:17 26.8 C 20 %
450 02-07-2019 17:52:18 26.6 C 20 %
Sensor: Nr:Datum:Temp:Feuchte:
Aussen-T/F 451 02-07-2019 18:04:18 24.7 C 20 %
452 02-07-2019 18:16:18 24.5 C 20 %
453 02-07-2019 18:28:18 25.3 C 20 %
454 02-07-2019 18:40:17 25.1 C 20 %
455 02-07-2019 18:52:18 26.1 C 20 %
456 02-07-2019 19:04:18 26.3 C 20 %
457 02-07-2019 19:16:17 25.6 C 20 %
458 02-07-2019 19:28:17 25 C 20 %
459 02-07-2019 19:40:17 24.4 C 20 %
460 02-07-2019 19:52:17 23.9 C 20 %
461 02-07-2019 20:04:17 23.4 C 20 %
462 02-07-2019 20:16:17 23.3 C 20 %
463 02-07-2019 20:28:17 23.1 C 20 %
464 02-07-2019 20:40:17 22.6 C 20 %
465 02-07-2019 20:52:18 22.2 C 20 %
466 02-07-2019 21:04:18 22.1 C 20 %
467 02-07-2019 21:16:18 21.6 C 20 %
468 02-07-2019 21:28:18 20.7 C 20 %
469 02-07-2019 21:40:18 19.2 C 20 %
470 02-07-2019 21:52:17 18.6 C 20 %
471 02-07-2019 22:04:17 18 C 20 %
472 02-07-2019 22:16:17 17.5 C 20 %
473 02-07-2019 22:28:17 17.5 C 20 %
474 02-07-2019 22:40:17 17.5 C 20 %
475 02-07-2019 22:52:17 16.9 C 20 %
Sensor: Nr:Datum:Temp:Feuchte:
Aussen-T/F 476 02-07-2019 23:04:18 16.7 C 20 %
477 02-07-2019 23:16:18 16.6 C 20 %
478 02-07-2019 23:28:18 16.2 C 20 %
479 02-07-2019 23:40:17 16.1 C 20 %
480 02-07-2019 23:52:18 15.9 C 20 %
481 03-07-2019 00:04:18 15.2 C 20 %
482 03-07-2019 00:16:18 15 C 20 %
483 03-07-2019 00:28:18 14.5 C 20 %
484 03-07-2019 00:40:18 14.4 C 20 %
485 03-07-2019 00:52:17 14.1 C 20 %
486 03-07-2019 01:04:18 13.7 C 20 %
487 03-07-2019 01:16:18 13.5 C 20 %
488 03-07-2019 01:28:18 13.2 C 20 %
489 03-07-2019 01:40:18 13 C 20 %
490 03-07-2019 01:52:17 12.9 C 20 %
491 03-07-2019 02:04:18 12.6 C 20 %
492 03-07-2019 02:16:17 12.5 C 20 %
493 03-07-2019 02:28:17 12.3 C 22 %
494 03-07-2019 02:40:17 12.1 C 20 %
495 03-07-2019 02:52:18 12.2 C 26 %
496 03-07-2019 03:04:18 11.8 C 25 %
497 03-07-2019 03:16:18 11.8 C 27 %
498 03-07-2019 03:28:18 11.7 C 28 %
499 03-07-2019 03:40:17 11.4 C 27 %
500 03-07-2019 03:52:18 11.2 C 28 %
Sensor: Nr:Datum:Temp:Feuchte:
Aussen-T/F 501 03-07-2019 04:04:18 11.1 C 29 %
502 03-07-2019 04:16:18 10.9 C 30 %
503 03-07-2019 04:28:18 10.8 C 32 %
504 03-07-2019 04:40:18 10.7 C 32 %
505 03-07-2019 04:52:17 10.6 C 32 %
506 03-07-2019 05:04:18 10.4 C 32 %
507 03-07-2019 05:16:18 10.3 C 33 %
508 03-07-2019 05:28:18 10.3 C 35 %
509 03-07-2019 05:40:18 10.2 C 34 %
510 03-07-2019 05:52:17 10.2 C 35 %
511 03-07-2019 06:04:18 10.2 C 35 %
512 03-07-2019 06:16:18 10.4 C 36 %
513 03-07-2019 06:28:18 10.5 C 36 %
514 03-07-2019 06:40:18 10.5 C 36 %
515 03-07-2019 06:52:17 10.6 C 37 %
516 03-07-2019 07:04:18 10.9 C 38 %
517 03-07-2019 07:16:18 11.1 C 36 %
518 03-07-2019 07:28:18 11.4 C 36 %
519 03-07-2019 07:40:17 11.6 C 34 %
520 03-07-2019 07:52:17 11.9 C 33 %
521 03-07-2019 08:04:18 12.2 C 31 %
522 03-07-2019 08:16:18 12.5 C 30 %
523 03-07-2019 08:28:18 13.1 C 28 %
524 03-07-2019 08:40:17 13.7 C 25 %
525 03-07-2019 08:52:17 14.4 C 20 %
Sensor: Nr:Datum:Temp:Feuchte:
Aussen-T/F 526 03-07-2019 09:04:17 14.7 C 20 %
527 03-07-2019 09:16:17 15.8 C 20 %
528 03-07-2019 09:28:17 17.2 C 20 %
529 03-07-2019 09:40:17 21.2 C 20 %
530 03-07-2019 09:52:18 24.2 C 20 %
531 03-07-2019 10:04:18 21.5 C 20 %
532 03-07-2019 10:16:17 19.7 C 20 %
533 03-07-2019 10:28:17 19.9 C 20 %
534 03-07-2019 10:40:18 20.4 C 20 %
535 03-07-2019 10:52:18 21.1 C 20 %
536 03-07-2019 11:04:17 21.1 C 20 %
537 03-07-2019 11:16:17 22 C 20 %
538 03-07-2019 11:28:17 22.1 C 20 %
539 03-07-2019 11:40:17 22.5 C 20 %
540 03-07-2019 11:52:17 23.3 C 20 %
541 03-07-2019 12:04:18 23 C 20 %
542 03-07-2019 12:16:18 21.7 C 20 %
543 03-07-2019 12:28:18 23.5 C 20 %
544 03-07-2019 12:40:17 22.3 C 20 %
545 03-07-2019 12:52:17 22.4 C 20 %
546 03-07-2019 13:04:17 21.9 C 20 %
547 03-07-2019 13:16:17 22 C 20 %
548 03-07-2019 13:28:17 22.4 C 20 %
549 03-07-2019 13:40:18 22.7 C 20 %
550 03-07-2019 13:52:18 23.1 C 20 %
Sensor: Nr:Datum:Temp:Feuchte:
Aussen-T/F 551 03-07-2019 14:04:17 23.2 C 20 %
552 03-07-2019 14:16:17 23.6 C 20 %
553 03-07-2019 14:28:18 23 C 20 %
554 03-07-2019 14:40:18 23 C 20 %
555 03-07-2019 14:52:17 23.1 C 20 %
556 03-07-2019 15:04:17 23.4 C 20 %
557 03-07-2019 15:16:18 24.1 C 20 %
558 03-07-2019 15:28:18 23.4 C 20 %
559 03-07-2019 15:40:17 23.6 C 20 %
560 03-07-2019 15:52:17 24.3 C 20 %
561 03-07-2019 16:04:18 24.5 C 20 %
562 03-07-2019 16:16:18 25.3 C 20 %
563 03-07-2019 16:28:18 25.1 C 20 %
564 03-07-2019 16:40:17 24.6 C 20 %
565 03-07-2019 16:52:17 24.8 C 20 %
566 03-07-2019 17:04:18 24.5 C 20 %
567 03-07-2019 17:16:17 25.5 C 20 %
568 03-07-2019 17:28:17 24.7 C 20 %
569 03-07-2019 17:40:18 25 C 20 %
570 03-07-2019 17:52:17 24.6 C 20 %
571 03-07-2019 18:04:18 26 C 20 %
572 03-07-2019 18:16:17 25.4 C 20 %
573 03-07-2019 18:28:17 25.2 C 20 %
574 03-07-2019 18:40:17 24.5 C 20 %
575 03-07-2019 18:52:17 25.4 C 20 %
Sensor: Nr:Datum:Temp:Feuchte:
Aussen-T/F 576 03-07-2019 19:04:18 24.9 C 20 %
577 03-07-2019 19:16:17 24.6 C 20 %
578 03-07-2019 19:28:17 23.8 C 20 %
579 03-07-2019 19:40:18 23.3 C 20 %
580 03-07-2019 19:52:17 23.2 C 20 %
581 03-07-2019 20:04:17 22.9 C 20 %
582 03-07-2019 20:16:17 22.7 C 20 %
583 03-07-2019 20:28:18 22.3 C 20 %
584 03-07-2019 20:40:18 22.2 C 20 %
585 03-07-2019 20:52:17 21.7 C 20 %
586 03-07-2019 21:04:18 21.4 C 20 %
587 03-07-2019 21:16:18 20.9 C 20 %
588 03-07-2019 21:28:18 20.6 C 20 %
589 03-07-2019 21:40:18 20.2 C 20 %
590 03-07-2019 21:52:17 19.4 C 20 %
591 03-07-2019 22:04:18 18 C 20 %
592 03-07-2019 22:16:18 17.4 C 20 %
593 03-07-2019 22:28:18 17.2 C 20 %
594 03-07-2019 22:40:17 16.9 C 20 %
595 03-07-2019 22:52:18 16.3 C 20 %
596 03-07-2019 23:04:18 16.2 C 20 %
597 03-07-2019 23:16:18 15.4 C 20 %
598 03-07-2019 23:28:18 15.2 C 20 %
599 03-07-2019 23:40:18 14.9 C 20 %
600 03-07-2019 23:52:18 14.8 C 20 %
Sensor: Nr:Datum:Temp:Feuchte:
Aussen-T/F 601 04-07-2019 00:04:18 14.5 C 20 %
602 04-07-2019 00:16:18 14.2 C 20 %
603 04-07-2019 00:28:18 14.1 C 20 %
604 04-07-2019 00:40:18 14 C 20 %
605 04-07-2019 00:52:18 13.9 C 20 %
606 04-07-2019 01:04:18 13.8 C 20 %
607 04-07-2019 01:16:18 13.7 C 20 %
608 04-07-2019 01:28:18 13.4 C 20 %
609 04-07-2019 01:40:18 13.4 C 20 %
610 04-07-2019 01:52:17 13.3 C 20 %
611 04-07-2019 02:04:18 13.1 C 20 %
612 04-07-2019 02:16:18 13 C 20 %
613 04-07-2019 02:28:18 12.5 C 20 %
614 04-07-2019 02:40:18 12.2 C 20 %
615 04-07-2019 02:52:17 11.8 C 20 %
616 04-07-2019 03:04:18 11.5 C 20 %
617 04-07-2019 03:16:18 11.2 C 20 %
618 04-07-2019 03:28:18 11.1 C 20 %
619 04-07-2019 03:40:18 11.1 C 22 %
620 04-07-2019 03:52:17 11.3 C 25 %
621 04-07-2019 04:04:17 11.4 C 23 %
622 04-07-2019 04:16:17 11.1 C 24 %
623 04-07-2019 04:28:17 11.1 C 26 %
624 04-07-2019 04:40:18 11.2 C 25 %
625 04-07-2019 04:52:17 10.8 C 26 %
Sensor: Nr:Datum:Temp:Feuchte:
Aussen-T/F 626 04-07-2019 05:04:18 10.6 C 26 %
627 04-07-2019 05:16:17 10.7 C 28 %
628 04-07-2019 05:28:17 10.9 C 30 %
629 04-07-2019 05:40:17 10.8 C 26 %
630 04-07-2019 05:52:18 10.8 C 29 %
631 04-07-2019 06:04:17 10.7 C 30 %
632 04-07-2019 06:16:17 10.6 C 30 %
633 04-07-2019 06:28:17 10.4 C 31 %
634 04-07-2019 06:40:17 10.5 C 32 %
635 04-07-2019 06:52:17 10.5 C 32 %
636 04-07-2019 07:04:18 10.4 C 33 %
637 04-07-2019 07:16:17 10.5 C 34 %
638 04-07-2019 07:28:17 10.8 C 32 %
639 04-07-2019 07:40:17 11.1 C 31 %
640 04-07-2019 07:52:18 11.3 C 30 %
641 04-07-2019 08:04:18 11.5 C 30 %
642 04-07-2019 08:16:18 11.9 C 30 %
643 04-07-2019 08:28:18 12.4 C 26 %
644 04-07-2019 08:40:17 13.1 C 20 %
645 04-07-2019 08:52:17 14 C 20 %
646 04-07-2019 09:04:18 14.1 C 20 %
647 04-07-2019 09:16:17 15.5 C 20 %
648 04-07-2019 09:28:17 16.9 C 20 %
649 04-07-2019 09:40:17 21.2 C 20 %
650 04-07-2019 09:52:17 22.6 C 20 %
Sensor: Nr:Datum:Temp:Feuchte:
Aussen-T/F 651 04-07-2019 10:04:18 20.4 C 20 %
652 04-07-2019 10:16:18 19.3 C 20 %
653 04-07-2019 10:28:18 19.7 C 20 %
654 04-07-2019 10:40:17 20.5 C 20 %
655 04-07-2019 10:52:17 20.7 C 20 %
656 04-07-2019 11:04:18 21.2 C 20 %
657 04-07-2019 11:16:18 21.5 C 20 %
658 04-07-2019 11:28:18 21.6 C 20 %
659 04-07-2019 11:40:17 22.5 C 20 %
660 04-07-2019 11:52:18 23 C 20 %
661 04-07-2019 12:04:17 22.9 C 20 %
662 04-07-2019 12:16:17 21.6 C 20 %
663 04-07-2019 12:28:17 23.2 C 20 %
664 04-07-2019 12:40:18 21.8 C 20 %
665 04-07-2019 12:52:18 21.8 C 20 %
666 04-07-2019 13:04:18 22 C 20 %
667 04-07-2019 13:16:18 22.7 C 20 %
668 04-07-2019 13:28:18 22.7 C 20 %
669 04-07-2019 13:40:17 22.8 C 20 %
670 04-07-2019 13:52:17 23.1 C 20 %
671 04-07-2019 14:04:17 22.9 C 20 %
672 04-07-2019 14:16:17 24 C 20 %
673 04-07-2019 14:28:17 24.5 C 20 %
674 04-07-2019 14:40:17 24.9 C 20 %
675 04-07-2019 14:52:17 25.7 C 20 %
Sensor: Nr:Datum:Temp:Feuchte:
Aussen-T/F 676 04-07-2019 15:04:17 25.4 C 20 %
677 04-07-2019 15:16:18 25.8 C 20 %
678 04-07-2019 15:28:18 26.4 C 20 %
679 04-07-2019 15:40:18 27 C 20 %
680 04-07-2019 15:52:17 26.6 C 20 %
681 04-07-2019 16:04:17 26.5 C 20 %
682 04-07-2019 16:16:18 27.8 C 20 %
683 04-07-2019 16:28:18 28 C 20 %
684 04-07-2019 16:40:18 27.5 C 20 %
685 04-07-2019 16:52:17 26.9 C 20 %
686 04-07-2019 17:04:17 27.3 C 20 %
687 04-07-2019 17:16:17 28.2 C 20 %
688 04-07-2019 17:28:17 26.9 C 20 %
689 04-07-2019 17:40:18 28 C 20 %
690 04-07-2019 17:52:17 28 C 20 %
691 04-07-2019 18:04:17 28.5 C 20 %
692 04-07-2019 18:16:18 28 C 20 %
693 04-07-2019 18:28:18 28.9 C 20 %
694 04-07-2019 18:40:17 27.6 C 20 %
695 04-07-2019 18:52:17 27.9 C 20 %
696 04-07-2019 19:04:18 28.6 C 20 %
697 04-07-2019 19:16:18 27.3 C 20 %
698 04-07-2019 19:28:18 27.1 C 20 %
699 04-07-2019 19:40:18 26.9 C 20 %
700 04-07-2019 19:52:17 26.3 C 20 %
Sensor: Nr:Datum:Temp:Feuchte:
Aussen-T/F 701 04-07-2019 20:04:18 25.7 C 20 %
702 04-07-2019 20:16:17 25.4 C 20 %
703 04-07-2019 20:28:17 24.9 C 20 %
704 04-07-2019 20:40:17 24.6 C 20 %
705 04-07-2019 20:52:18 23.7 C 20 %
706 04-07-2019 21:04:18 23.4 C 20 %
707 04-07-2019 21:16:18 21.8 C 20 %
708 04-07-2019 21:28:18 20.4 C 20 %
709 04-07-2019 21:40:17 19.8 C 20 %
710 04-07-2019 21:52:17 19.1 C 20 %
711 04-07-2019 22:04:17 19.1 C 20 %
712 04-07-2019 22:16:17 18.7 C 20 %
713 04-07-2019 22:28:17 18.2 C 20 %
714 04-07-2019 22:40:17 18 C 20 %
715 04-07-2019 22:52:18 17.8 C 20 %
716 04-07-2019 23:04:18 17.7 C 20 %
717 04-07-2019 23:16:18 17.5 C 20 %
718 04-07-2019 23:28:18 17.5 C 20 %
719 04-07-2019 23:40:18 17.6 C 20 %
720 04-07-2019 23:52:18 17.3 C 20 %
721 05-07-2019 00:04:18 17 C 20 %
722 05-07-2019 00:16:17 16.6 C 20 %
723 05-07-2019 00:28:17 16.1 C 20 %
724 05-07-2019 00:40:17 16.1 C 20 %
725 05-07-2019 00:52:18 16 C 20 %
Sensor: Nr:Datum:Temp:Feuchte:
Aussen-T/F 726 05-07-2019 01:04:18 15.4 C 20 %
727 05-07-2019 01:16:18 15.1 C 20 %
728 05-07-2019 01:28:18 14.8 C 20 %
729 05-07-2019 01:40:18 14.8 C 20 %
730 05-07-2019 01:52:17 14.6 C 20 %
731 05-07-2019 02:04:18 14.3 C 20 %
732 05-07-2019 02:16:17 14.1 C 20 %
733 05-07-2019 02:28:17 13.9 C 20 %
734 05-07-2019 02:40:17 13.7 C 20 %
735 05-07-2019 02:52:18 13.7 C 20 %
736 05-07-2019 03:04:18 13.7 C 20 %
737 05-07-2019 03:16:18 13.8 C 20 %
738 05-07-2019 03:28:18 13.8 C 20 %
739 05-07-2019 03:40:18 14 C 20 %
740 05-07-2019 03:52:17 14.4 C 20 %
741 05-07-2019 04:04:18 14.6 C 20 %
742 05-07-2019 04:16:18 14.5 C 20 %
743 05-07-2019 04:28:18 14.3 C 20 %
744 05-07-2019 04:40:18 14.3 C 20 %
745 05-07-2019 04:52:17 14.2 C 20 %
746 05-07-2019 05:04:17 14 C 20 %
747 05-07-2019 05:16:18 13.9 C 20 %
748 05-07-2019 05:28:18 13.9 C 20 %
749 05-07-2019 05:40:18 14 C 20 %
750 05-07-2019 05:52:18 14.2 C 20 %
Sensor: Nr:Datum:Temp:Feuchte:
Aussen-T/F 751 05-07-2019 06:04:18 14.3 C 20 %
752 05-07-2019 06:16:17 14.4 C 20 %
753 05-07-2019 06:28:17 14.4 C 20 %
754 05-07-2019 06:40:17 14.4 C 20 %
755 05-07-2019 06:52:17 14.6 C 20 %
756 05-07-2019 07:04:18 14.6 C 20 %
757 05-07-2019 07:16:17 14.8 C 20 %
758 05-07-2019 07:28:17 15.2 C 20 %
759 05-07-2019 07:40:17 15.4 C 20 %
760 05-07-2019 07:52:18 15.4 C 20 %
761 05-07-2019 08:04:17 15.7 C 20 %
762 05-07-2019 08:16:17 16.4 C 20 %
763 05-07-2019 08:28:17 16.6 C 20 %
764 05-07-2019 08:40:17 16.9 C 20 %
765 05-07-2019 08:52:17 17.3 C 20 %
766 05-07-2019 09:04:18 17.5 C 20 %
767 05-07-2019 09:16:17 17.8 C 20 %
768 05-07-2019 09:28:17 18.2 C 20 %
769 05-07-2019 09:40:17 18.8 C 20 %
770 05-07-2019 09:52:17 20.4 C 20 %
771 05-07-2019 10:04:17 22 C 20 %
772 05-07-2019 10:16:17 21.8 C 20 %
773 05-07-2019 10:28:17 22.4 C 20 %
774 05-07-2019 10:40:17 23.3 C 20 %
775 05-07-2019 10:52:17 23 C 20 %
Sensor: Nr:Datum:Temp:Feuchte:
Aussen-T/F 776 05-07-2019 11:04:17 22.6 C 20 %
777 05-07-2019 11:16:17 22.8 C 20 %
778 05-07-2019 11:28:17 23.5 C 20 %
779 05-07-2019 11:40:18 24 C 20 %
780 05-07-2019 11:52:17 24.2 C 20 %
781 05-07-2019 12:04:17 25 C 20 %
782 05-07-2019 12:16:17 24.2 C 20 %
783 05-07-2019 12:28:17 25.8 C 20 %
784 05-07-2019 12:40:17 24.5 C 20 %
785 05-07-2019 12:52:17 24.8 C 20 %
786 05-07-2019 13:04:18 24.7 C 20 %
787 05-07-2019 13:16:17 25.1 C 20 %
788 05-07-2019 13:28:17 25.4 C 20 %
789 05-07-2019 13:40:17 25.8 C 20 %
790 05-07-2019 13:52:18 25.8 C 20 %
791 05-07-2019 14:04:17 26 C 20 %
792 05-07-2019 14:16:17 26.6 C 20 %
793 05-07-2019 14:28:17 26.8 C 20 %
794 05-07-2019 14:40:17 27.7 C 20 %
795 05-07-2019 14:52:17 28.3 C 20 %
796 05-07-2019 15:04:18 28.6 C 20 %
797 05-07-2019 15:16:17 28.5 C 20 %
798 05-07-2019 15:28:17 28.4 C 20 %
799 05-07-2019 15:40:17 28.9 C 20 %
800 05-07-2019 15:52:17 28.3 C 20 %
Sensor: Nr:Datum:Temp:Feuchte:
Aussen-T/F 801 05-07-2019 16:04:18 28.6 C 20 %
802 05-07-2019 16:16:18 29.3 C 20 %
803 05-07-2019 16:28:18 28.9 C 20 %
804 05-07-2019 16:40:17 29.5 C 20 %
805 05-07-2019 16:52:18 29.3 C 20 %
806 05-07-2019 17:04:18 29.4 C 20 %
807 05-07-2019 17:16:18 30.2 C 20 %
808 05-07-2019 17:28:18 29.7 C 20 %
809 05-07-2019 17:40:18 29.7 C 20 %
810 05-07-2019 17:52:17 30.7 C 20 %
811 05-07-2019 18:04:18 29.5 C 20 %
812 05-07-2019 18:16:17 30.3 C 20 %
813 05-07-2019 18:28:17 29.5 C 20 %
814 05-07-2019 18:40:17 29.9 C 20 %
815 05-07-2019 18:52:18 28.7 C 20 %
816 05-07-2019 19:04:18 29.2 C 20 %
817 05-07-2019 19:16:18 28.7 C 20 %
818 05-07-2019 19:28:18 28.2 C 20 %
819 05-07-2019 19:40:18 27.6 C 20 %
820 05-07-2019 19:52:17 26.9 C 20 %
821 05-07-2019 20:04:18 26.8 C 20 %
822 05-07-2019 20:16:18 26.7 C 20 %
823 05-07-2019 20:28:18 26.5 C 20 %
824 05-07-2019 20:40:18 26.1 C 20 %
825 05-07-2019 20:52:17 25.4 C 20 %
Sensor: Nr:Datum:Temp:Feuchte:
Aussen-T/F 826 05-07-2019 21:04:18 24.3 C 20 %
827 05-07-2019 21:16:18 23 C 20 %
828 05-07-2019 21:28:18 22.6 C 20 %
829 05-07-2019 21:40:18 21.8 C 20 %
830 05-07-2019 21:52:17 21.3 C 20 %
831 05-07-2019 22:04:18 21.2 C 20 %
832 05-07-2019 22:16:18 21.1 C 20 %
833 05-07-2019 22:28:18 21.1 C 20 %
834 05-07-2019 22:40:18 21.2 C 20 %
835 05-07-2019 22:52:17 21.1 C 20 %
836 05-07-2019 23:04:17 20.8 C 20 %
837 05-07-2019 23:16:17 20.5 C 20 %
838 05-07-2019 23:28:17 20.1 C 20 %
839 05-07-2019 23:40:18 19.5 C 20 %
840 05-07-2019 23:52:18 19 C 20 %
841 06-07-2019 00:04:18 18.7 C 20 %
842 06-07-2019 00:16:18 18.4 C 20 %
843 06-07-2019 00:28:18 18.3 C 20 %
844 06-07-2019 00:40:17 18.1 C 20 %
845 06-07-2019 00:52:18 18.1 C 20 %
846 06-07-2019 01:04:18 18.1 C 20 %
847 06-07-2019 01:16:18 17.8 C 20 %
848 06-07-2019 01:28:18 17.3 C 20 %
849 06-07-2019 01:40:18 17.2 C 20 %
850 06-07-2019 01:52:17 17.2 C 20 %
Sensor: Nr:Datum:Temp:Feuchte:
Aussen-T/F 851 06-07-2019 02:04:18 17.2 C 20 %
852 06-07-2019 02:16:18 17.1 C 20 %
853 06-07-2019 02:28:18 17.2 C 20 %
854 06-07-2019 02:40:17 17.2 C 20 %
855 06-07-2019 02:52:17 17.2 C 20 %
856 06-07-2019 03:04:17 17.3 C 20 %
857 06-07-2019 03:16:17 17.3 C 20 %
858 06-07-2019 03:28:17 17 C 20 %
859 06-07-2019 03:40:17 16.9 C 20 %
860 06-07-2019 03:52:18 16.7 C 20 %
861 06-07-2019 04:04:18 16.6 C 22 %
862 06-07-2019 04:16:18 16.3 C 22 %
863 06-07-2019 04:28:18 16.1 C 25 %
864 06-07-2019 04:40:18 16 C 25 %
865 06-07-2019 04:52:17 15.9 C 25 %
866 06-07-2019 05:04:18 15.7 C 26 %
867 06-07-2019 05:16:17 15.6 C 26 %
868 06-07-2019 05:28:17 15.4 C 26 %
869 06-07-2019 05:40:17 14.9 C 29 %
870 06-07-2019 05:52:17 15.1 C 30 %
871 06-07-2019 06:04:17 15.2 C 30 %
872 06-07-2019 06:16:18 15.6 C 28 %
873 06-07-2019 06:28:18 15.6 C 28 %
874 06-07-2019 06:40:18 15.6 C 29 %
875 06-07-2019 06:52:17 15.5 C 29 %
Sensor: Nr:Datum:Temp:Feuchte:
Aussen-T/F 876 06-07-2019 07:04:18 15.2 C 28 %
877 06-07-2019 07:16:18 15 C 31 %
878 06-07-2019 07:28:18 15 C 32 %
879 06-07-2019 07:40:18 15.4 C 32 %
880 06-07-2019 07:52:17 15.9 C 27 %
881 06-07-2019 08:04:18 16.5 C 24 %
882 06-07-2019 08:16:18 17 C 21 %
883 06-07-2019 08:28:18 17.6 C 20 %
884 06-07-2019 08:40:17 18.1 C 20 %
885 06-07-2019 08:52:18 18.7 C 20 %
886 06-07-2019 09:04:18 19.2 C 20 %
887 06-07-2019 09:16:18 20 C 20 %
888 06-07-2019 09:28:18 21.3 C 20 %
889 06-07-2019 09:40:18 23.1 C 20 %
890 06-07-2019 09:52:17 27.4 C 20 %
891 06-07-2019 10:04:18 25.6 C 20 %
892 06-07-2019 10:16:18 23.5 C 20 %
893 06-07-2019 10:28:18 23.7 C 20 %
894 06-07-2019 10:40:18 24.6 C 20 %
895 06-07-2019 10:52:17 25.2 C 20 %
896 06-07-2019 11:04:18 26 C 20 %
897 06-07-2019 11:16:18 26.8 C 20 %
898 06-07-2019 11:28:18 27 C 20 %
899 06-07-2019 11:40:18 27.3 C 20 %
900 06-07-2019 11:52:17 27.8 C 20 %
Sensor: Nr:Datum:Temp:Feuchte:
Aussen-T/F 901 06-07-2019 12:04:18 26.6 C 20 %
902 06-07-2019 12:16:18 26.6 C 20 %
903 06-07-2019 12:28:18 26.2 C 20 %
904 06-07-2019 12:40:18 27.1 C 20 %
905 06-07-2019 12:52:17 27.2 C 20 %
906 06-07-2019 13:04:18 27.8 C 20 %
907 06-07-2019 13:16:17 27.7 C 20 %
908 06-07-2019 13:28:17 28.1 C 20 %
909 06-07-2019 13:40:17 28.3 C 20 %
910 06-07-2019 13:52:18 28.5 C 20 %
911 06-07-2019 14:04:18 28.6 C 20 %
912 06-07-2019 14:16:17 29.6 C 20 %
913 06-07-2019 14:28:17 30.5 C 20 %
914 06-07-2019 14:40:18 30 C 20 %
915 06-07-2019 14:52:17 31.2 C 20 %
916 06-07-2019 15:04:18 31.8 C 20 %
917 06-07-2019 15:16:18 32.3 C 20 %
918 06-07-2019 15:28:18 32.5 C 20 %
919 06-07-2019 15:40:18 32.2 C 20 %
920 06-07-2019 15:52:18 31.2 C 20 %
921 06-07-2019 16:04:18 30.5 C 20 %
922 06-07-2019 16:16:18 30.2 C 20 %
923 06-07-2019 16:28:18 29.5 C 20 %
924 06-07-2019 16:40:18 29.2 C 20 %
925 06-07-2019 16:52:17 29.1 C 20 %
Sensor: Nr:Datum:Temp:Feuchte:
Aussen-T/F 926 06-07-2019 17:04:18 29.1 C 20 %
927 06-07-2019 17:16:18 29.4 C 20 %
928 06-07-2019 17:28:18 28.8 C 20 %
929 06-07-2019 17:40:18 28.3 C 20 %
930 06-07-2019 17:52:18 27.7 C 20 %
931 06-07-2019 18:04:18 26.6 C 20 %
932 06-07-2019 18:16:17 22.2 C 20 %
933 06-07-2019 18:28:17 21 C 20 %
934 06-07-2019 18:40:18 21.8 C 20 %
935 06-07-2019 18:52:17 22 C 20 %
936 06-07-2019 19:04:18 22.2 C 20 %
937 06-07-2019 19:16:17 22.4 C 20 %
938 06-07-2019 19:28:17 22.5 C 20 %
939 06-07-2019 19:40:18 22.5 C 20 %
940 06-07-2019 19:52:17 21.2 C 20 %
941 06-07-2019 20:04:18 20.3 C 20 %
942 06-07-2019 20:16:18 21 C 20 %
943 06-07-2019 20:28:18 19.5 C 20 %
944 06-07-2019 20:40:18 19.7 C 20 %
945 06-07-2019 20:52:17 20.3 C 20 %
946 06-07-2019 21:04:18 20.2 C 20 %
947 06-07-2019 21:16:18 20.3 C 20 %
948 06-07-2019 21:28:18 20.3 C 20 %
949 06-07-2019 21:40:18 19.9 C 20 %
950 06-07-2019 21:52:17 19.9 C 20 %
Sensor: Nr:Datum:Temp:Feuchte:
Aussen-T/F 951 06-07-2019 22:04:18 19.8 C 20 %
952 06-07-2019 22:16:17 19.5 C 20 %
953 06-07-2019 22:28:18 20.4 C 20 %
954 06-07-2019 22:40:18 20.8 C 20 %
955 06-07-2019 22:52:17 21 C 20 %
956 06-07-2019 23:04:17 20.9 C 20 %
957 06-07-2019 23:16:17 20.8 C 20 %
958 06-07-2019 23:28:17 20.4 C 20 %
959 06-07-2019 23:40:17 20.1 C 20 %
960 06-07-2019 23:52:17 19.6 C 20 %
961 07-07-2019 00:04:17 19.5 C 20 %
962 07-07-2019 00:16:17 19.2 C 20 %
963 07-07-2019 00:28:17 19 C 20 %
964 07-07-2019 00:40:18 18.8 C 20 %
965 07-07-2019 00:52:17 18.6 C 20 %
966 07-07-2019 01:04:18 18.3 C 20 %
967 07-07-2019 01:16:18 18.2 C 20 %
968 07-07-2019 01:28:18 18.2 C 20 %
969 07-07-2019 01:40:18 17.7 C 20 %
970 07-07-2019 01:52:17 17.7 C 20 %
971 07-07-2019 02:04:18 17.7 C 20 %
972 07-07-2019 02:16:18 17.7 C 20 %
973 07-07-2019 02:28:18 17.6 C 20 %
974 07-07-2019 02:40:18 17.6 C 20 %
975 07-07-2019 02:52:17 17.4 C 20 %
Sensor: Nr:Datum:Temp:Feuchte:
Aussen-T/F 976 07-07-2019 03:04:17 17.4 C 20 %
977 07-07-2019 03:16:18 17.3 C 20 %
978 07-07-2019 03:28:18 17.2 C 20 %
979 07-07-2019 03:40:18 17.2 C 20 %
980 07-07-2019 03:52:17 17.2 C 20 %
981 07-07-2019 04:04:18 17.2 C 20 %
982 07-07-2019 04:16:18 17.2 C 20 %
983 07-07-2019 04:28:18 17.2 C 20 %
984 07-07-2019 04:40:18 17.1 C 20 %
985 07-07-2019 04:52:17 17 C 20 %
986 07-07-2019 05:04:18 16.8 C 20 %
987 07-07-2019 05:16:18 16.7 C 20 %
988 07-07-2019 05:28:18 16.6 C 20 %
989 07-07-2019 05:40:18 15.9 C 26 %
990 07-07-2019 05:52:17 14.9 C 36 %
991 07-07-2019 06:04:18 14.6 C 43 %
992 07-07-2019 06:16:17 14.4 C 44 %
993 07-07-2019 06:28:17 14.3 C 46 %
994 07-07-2019 06:40:17 14.4 C 46 %
995 07-07-2019 06:52:17 14.5 C 46 %
996 07-07-2019 07:04:17 14.5 C 47 %
997 07-07-2019 07:16:17 14.5 C 47 %
998 07-07-2019 07:28:17 14.5 C 47 %
999 07-07-2019 07:40:17 14.3 C 47 %
1000 07-07-2019 07:52:17 14.1 C 47 %
Sensor: Nr:Datum:Temp:Feuchte:
Aussen-T/F 1001 07-07-2019 08:04:18 14 C 46 %
1002 07-07-2019 08:16:18 13.8 C 46 %
1003 07-07-2019 08:28:18 13.9 C 47 %
1004 07-07-2019 08:40:17 13.9 C 47 %
1005 07-07-2019 08:52:18 14.2 C 47 %
1006 07-07-2019 09:04:18 14.1 C 45 %
1007 07-07-2019 09:16:17 14.2 C 44 %
1008 07-07-2019 09:28:17 14.8 C 40 %
1009 07-07-2019 09:40:17 15.6 C 37 %
1010 07-07-2019 09:52:17 15.6 C 34 %
1011 07-07-2019 10:04:18 15.8 C 33 %
1012 07-07-2019 10:16:18 15.8 C 29 %
1013 07-07-2019 10:28:18 15.9 C 27 %
1014 07-07-2019 10:40:18 15.5 C 24 %
1015 07-07-2019 10:52:17 16.8 C 22 %
1016 07-07-2019 11:04:18 16.6 C 20 %
1017 07-07-2019 11:16:18 16.8 C 20 %
1018 07-07-2019 11:28:18 17.2 C 20 %
1019 07-07-2019 11:40:18 18.1 C 20 %
1020 07-07-2019 11:52:17 18.7 C 20 %
1021 07-07-2019 12:04:18 19.1 C 20 %
1022 07-07-2019 12:16:18 18.4 C 20 %
1023 07-07-2019 12:28:18 18.9 C 20 %
1024 07-07-2019 12:40:18 19.1 C 20 %
1025 07-07-2019 12:52:17 19 C 20 %
Sensor: Nr:Datum:Temp:Feuchte:
Aussen-T/F 1026 07-07-2019 13:04:18 18.9 C 20 %
1027 07-07-2019 13:16:18 19 C 20 %
1028 07-07-2019 13:28:18 19.6 C 20 %
1029 07-07-2019 13:40:18 19.7 C 20 %
1030 07-07-2019 13:52:17 19.7 C 20 %
1031 07-07-2019 14:04:17 19.3 C 20 %
1032 07-07-2019 14:16:18 19.8 C 20 %
1033 07-07-2019 14:28:18 20.8 C 20 %
1034 07-07-2019 14:40:17 19.8 C 20 %
1035 07-07-2019 14:52:18 20.5 C 20 %
1036 07-07-2019 15:04:18 22.1 C 20 %
1037 07-07-2019 15:16:18 21.9 C 20 %
1038 07-07-2019 15:28:18 21.8 C 20 %
1039 07-07-2019 15:40:18 22.1 C 20 %
1040 07-07-2019 15:52:18 22.6 C 20 %
1041 07-07-2019 16:04:18 22.4 C 20 %
1042 07-07-2019 16:16:17 22.2 C 20 %
1043 07-07-2019 16:28:17 22.1 C 20 %
1044 07-07-2019 16:40:18 22.3 C 20 %
1045 07-07-2019 16:52:18 22.2 C 20 %
1046 07-07-2019 17:04:17 21.1 C 20 %
1047 07-07-2019 17:16:17 21.5 C 20 %
1048 07-07-2019 17:28:18 23.1 C 20 %
1049 07-07-2019 17:40:18 22.5 C 20 %
1050 07-07-2019 17:52:18 22.6 C 20 %
Sensor: Nr:Datum:Temp:Feuchte:
Aussen-T/F 1051 07-07-2019 18:04:18 22.4 C 20 %
1052 07-07-2019 18:16:17 22 C 20 %
1053 07-07-2019 18:28:17 21.9 C 20 %
1054 07-07-2019 18:40:17 22.8 C 20 %
1055 07-07-2019 18:52:17 22.5 C 20 %
1056 07-07-2019 19:04:17 22 C 20 %
1057 07-07-2019 19:16:17 21.8 C 20 %
1058 07-07-2019 19:28:17 22 C 20 %
1059 07-07-2019 19:40:17 21.2 C 20 %
1060 07-07-2019 19:52:18 20.9 C 20 %
1061 07-07-2019 20:04:17 20.4 C 20 %
1062 07-07-2019 20:16:18 20.3 C 20 %
1063 07-07-2019 20:28:18 20.3 C 20 %
1064 07-07-2019 20:40:18 20.3 C 20 %
1065 07-07-2019 20:52:17 19.9 C 20 %
1066 07-07-2019 21:04:18 19.3 C 20 %
1067 07-07-2019 21:16:17 19 C 20 %
1068 07-07-2019 21:28:17 18.8 C 20 %
1069 07-07-2019 21:40:17 18.3 C 20 %
1070 07-07-2019 21:52:18 17 C 20 %
1071 07-07-2019 22:04:18 15.8 C 20 %
1072 07-07-2019 22:16:17 15.1 C 20 %
1073 07-07-2019 22:28:17 14.9 C 20 %
1074 07-07-2019 22:40:18 14.3 C 20 %
1075 07-07-2019 22:52:17 13.9 C 20 %
Sensor: Nr:Datum:Temp:Feuchte:
Aussen-T/F 1076 07-07-2019 23:04:17 13.7 C 20 %
1077 07-07-2019 23:16:17 13.5 C 20 %
1078 07-07-2019 23:28:17 13.4 C 20 %
1079 07-07-2019 23:40:17 13.3 C 20 %
1080 07-07-2019 23:52:17 13.1 C 20 %
1081 08-07-2019 00:04:18 13 C 21 %
1082 08-07-2019 00:16:17 12.8 C 20 %
1083 08-07-2019 00:28:17 12.8 C 21 %
1084 08-07-2019 00:40:18 12.7 C 21 %
1085 08-07-2019 00:52:18 12.6 C 22 %
1086 08-07-2019 01:04:18 12.1 C 26 %
1087 08-07-2019 01:16:18 12 C 25 %
1088 08-07-2019 01:28:18 11.7 C 29 %
1089 08-07-2019 01:40:18 11.6 C 31 %
1090 08-07-2019 01:52:17 11.2 C 30 %
1091 08-07-2019 02:04:17 11.2 C 31 %
1092 08-07-2019 02:16:17 11 C 30 %
1093 08-07-2019 02:28:17 11.1 C 30 %
1094 08-07-2019 02:40:18 11.1 C 30 %
1095 08-07-2019 02:52:17 11.1 C 28 %
1096 08-07-2019 03:04:18 11 C 30 %
1097 08-07-2019 03:16:18 11 C 30 %
1098 08-07-2019 03:28:18 10.8 C 30 %
1099 08-07-2019 03:40:18 11.1 C 29 %
1100 08-07-2019 03:52:17 11.1 C 27 %
Sensor: Nr:Datum:Temp:Feuchte:
Aussen-T/F 1101 08-07-2019 04:04:17 11.2 C 26 %
1102 08-07-2019 04:16:17 10.7 C 28 %
1103 08-07-2019 04:28:18 10.6 C 30 %
1104 08-07-2019 04:40:18 10.4 C 31 %
1105 08-07-2019 04:52:17 10.2 C 33 %
1106 08-07-2019 05:04:18 10 C 35 %
1107 08-07-2019 05:16:17 9.9 C 35 %
1108 08-07-2019 05:28:17 9.8 C 37 %
1109 08-07-2019 05:40:17 9.6 C 37 %
1110 08-07-2019 05:52:18 9.4 C 37 %
1111 08-07-2019 06:04:18 9.3 C 38 %
1112 08-07-2019 06:16:17 9.4 C 39 %
1113 08-07-2019 06:28:17 9.6 C 40 %
1114 08-07-2019 06:40:18 9.7 C 40 %
1115 08-07-2019 06:52:17 9.9 C 40 %
1116 08-07-2019 07:04:18 9.8 C 40 %
1117 08-07-2019 07:16:18 10 C 40 %
1118 08-07-2019 07:28:18 10.2 C 40 %
1119 08-07-2019 07:40:18 10.4 C 40 %
1120 08-07-2019 07:52:17 10.6 C 40 %
1121 08-07-2019 08:04:18 10.7 C 39 %
1122 08-07-2019 08:16:17 11.1 C 38 %
1123 08-07-2019 08:28:17 11.8 C 33 %
1124 08-07-2019 08:40:17 12.8 C 30 %
1125 08-07-2019 08:52:17 13.8 C 20 %
Sensor: Nr:Datum:Temp:Feuchte:
Aussen-T/F 1126 08-07-2019 09:04:18 14 C 20 %
1127 08-07-2019 09:16:17 15.5 C 20 %
1128 08-07-2019 09:28:17 16.4 C 20 %
1129 08-07-2019 09:40:17 18 C 20 %
1130 08-07-2019 09:52:18 17.7 C 20 %
1131 08-07-2019 10:04:17 16.5 C 20 %
1132 08-07-2019 10:16:18 16.3 C 20 %
1133 08-07-2019 10:28:18 15.9 C 20 %
1134 08-07-2019 10:40:17 15.9 C 20 %
1135 08-07-2019 10:52:18 16.5 C 20 %
1136 08-07-2019 11:04:17 16.7 C 20 %
1137 08-07-2019 11:16:17 17.7 C 20 %
1138 08-07-2019 11:28:17 16.8 C 20 %
1139 08-07-2019 11:40:17 16.5 C 20 %
1140 08-07-2019 11:52:17 17 C 20 %
1141 08-07-2019 12:04:18 17.1 C 20 %
1142 08-07-2019 12:16:17 17.4 C 20 %
1143 08-07-2019 12:28:17 17.5 C 20 %
1144 08-07-2019 12:40:18 17.5 C 20 %
1145 08-07-2019 12:52:17 17.3 C 20 %
1146 08-07-2019 13:04:17 17.8 C 20 %
1147 08-07-2019 13:16:17 17.7 C 20 %
1148 08-07-2019 13:28:17 18.1 C 20 %
1149 08-07-2019 13:40:17 17.6 C 20 %
1150 08-07-2019 13:52:17 17.6 C 20 %
Sensor: Nr:Datum:Temp:Feuchte:
Aussen-T/F 1151 08-07-2019 14:04:17 17.8 C 20 %
1152 08-07-2019 14:16:17 18.2 C 20 %
1153 08-07-2019 14:28:17 18.6 C 20 %
1154 08-07-2019 14:40:17 17.6 C 20 %
1155 08-07-2019 14:52:17 17.7 C 20 %
1156 08-07-2019 15:04:18 17.4 C 20 %
1157 08-07-2019 15:16:17 18.6 C 20 %
1158 08-07-2019 15:28:17 18.1 C 20 %
1159 08-07-2019 15:40:18 18.1 C 20 %
1160 08-07-2019 15:52:17 18.2 C 20 %
1161 08-07-2019 16:04:17 18.4 C 20 %
1162 08-07-2019 16:16:18 18.3 C 20 %
1163 08-07-2019 16:28:18 18.5 C 20 %
1164 08-07-2019 16:40:18 19.3 C 20 %
1165 08-07-2019 16:52:17 18.7 C 20 %
1166 08-07-2019 17:04:18 18.7 C 20 %
1167 08-07-2019 17:16:18 18.9 C 20 %
1168 08-07-2019 17:28:18 18.7 C 20 %
1169 08-07-2019 17:40:18 18.4 C 20 %
1170 08-07-2019 17:52:17 18.7 C 20 %
1171 08-07-2019 18:04:17 18.7 C 20 %
1172 08-07-2019 18:16:17 18.8 C 20 %
1173 08-07-2019 18:28:17 18.3 C 20 %
1174 08-07-2019 18:40:17 18.1 C 20 %
1175 08-07-2019 18:52:17 18.4 C 20 %
Sensor: Nr:Datum:Temp:Feuchte:
Aussen-T/F 1176 08-07-2019 19:04:18 18.1 C 20 %
1177 08-07-2019 19:16:17 17.9 C 20 %
1178 08-07-2019 19:28:17 18.1 C 20 %
1179 08-07-2019 19:40:18 18.3 C 20 %
1180 08-07-2019 19:52:18 18.3 C 20 %
1181 08-07-2019 20:04:18 18.5 C 20 %
1182 08-07-2019 20:16:17 18.2 C 20 %
1183 08-07-2019 20:28:17 17.6 C 20 %
1184 08-07-2019 20:40:17 17.4 C 20 %
1185 08-07-2019 20:52:18 17.5 C 20 %
1186 08-07-2019 21:04:18 17.1 C 20 %
1187 08-07-2019 21:16:18 16.6 C 20 %
1188 08-07-2019 21:28:18 15.7 C 20 %
1189 08-07-2019 21:40:18 14.8 C 20 %
1190 08-07-2019 21:52:17 14 C 20 %
1191 08-07-2019 22:04:17 13.7 C 20 %
1192 08-07-2019 22:16:17 13.5 C 20 %
1193 08-07-2019 22:28:17 13.7 C 20 %
1194 08-07-2019 22:40:17 14 C 20 %
1195 08-07-2019 22:52:17 14.4 C 20 %
1196 08-07-2019 23:04:17 14.5 C 20 %
1197 08-07-2019 23:16:17 14.3 C 20 %
1198 08-07-2019 23:28:17 14 C 20 %
1199 08-07-2019 23:40:18 13.6 C 20 %
1200 08-07-2019 23:52:18 13.2 C 20 %
Sensor: Nr:Datum:Temp:Feuchte:
Aussen-T/F 1201 09-07-2019 00:04:18 13.2 C 20 %
1202 09-07-2019 00:16:18 13 C 22 %
1203 09-07-2019 00:28:18 13.1 C 23 %
1204 09-07-2019 00:40:18 13.1 C 23 %
1205 09-07-2019 00:52:17 13.2 C 25 %
1206 09-07-2019 01:04:18 12.7 C 25 %
1207 09-07-2019 01:16:18 12.4 C 26 %
1208 09-07-2019 01:28:18 12.5 C 27 %
1209 09-07-2019 01:40:18 12.3 C 28 %
1210 09-07-2019 01:52:17 12.2 C 28 %
1211 09-07-2019 02:04:18 12.1 C 29 %
1212 09-07-2019 02:16:17 11.8 C 30 %
1213 09-07-2019 02:28:17 11.6 C 32 %
1214 09-07-2019 02:40:17 11.2 C 31 %
1215 09-07-2019 02:52:18 11.1 C 34 %
1216 09-07-2019 03:04:18 11.3 C 35 %
1217 09-07-2019 03:16:18 11.1 C 35 %
1218 09-07-2019 03:28:18 10.8 C 35 %
1219 09-07-2019 03:40:18 10.7 C 36 %
1220 09-07-2019 03:52:17 10.6 C 37 %
1221 09-07-2019 04:04:18 10.5 C 38 %
1222 09-07-2019 04:16:18 10.4 C 38 %
1223 09-07-2019 04:28:18 10 C 38 %
1224 09-07-2019 04:40:17 9.9 C 40 %
1225 09-07-2019 04:52:18 9.7 C 40 %
Sensor: Nr:Datum:Temp:Feuchte:
Aussen-T/F 1226 09-07-2019 05:04:17 9.6 C 40 %
1227 09-07-2019 05:16:17 9.7 C 42 %
1228 09-07-2019 05:28:17 9.7 C 41 %
1229 09-07-2019 05:40:17 9.6 C 41 %
1230 09-07-2019 05:52:17 9.6 C 41 %
1231 09-07-2019 06:04:18 9.6 C 42 %
1232 09-07-2019 06:16:17 9.6 C 42 %
1233 09-07-2019 06:28:18 9.7 C 42 %
1234 09-07-2019 06:40:17 9.7 C 42 %
1235 09-07-2019 06:52:18 10.1 C 42 %
1236 09-07-2019 07:04:17 10.5 C 41 %
1237 09-07-2019 07:16:17 10.7 C 39 %
1238 09-07-2019 07:28:17 11.2 C 37 %
1239 09-07-2019 07:40:17 12.3 C 28 %
1240 09-07-2019 07:52:17 12.8 C 25 %
1241 09-07-2019 08:04:17 13.2 C 20 %
1242 09-07-2019 08:16:17 13.5 C 20 %
1243 09-07-2019 08:28:17 13.8 C 20 %
1244 09-07-2019 08:40:17 13.8 C 20 %
1245 09-07-2019 08:52:17 14.1 C 20 %
1246 09-07-2019 09:04:18 14.7 C 20 %
1247 09-07-2019 09:16:17 14.3 C 20 %
1248 09-07-2019 09:28:17 14.8 C 20 %
1249 09-07-2019 09:40:17 15.7 C 20 %
1250 09-07-2019 09:52:17 15.3 C 20 %
Sensor: Nr:Datum:Temp:Feuchte:
Aussen-T/F 1251 09-07-2019 10:04:17 15.1 C 20 %
1252 09-07-2019 10:16:18 15.2 C 20 %
1253 09-07-2019 10:28:18 15.1 C 20 %
1254 09-07-2019 10:40:18 15.6 C 20 %
1255 09-07-2019 10:52:17 16.4 C 20 %
1256 09-07-2019 11:04:18 16.7 C 20 %
1257 09-07-2019 11:17:17 16.4 C 20 %
1258 09-07-2019 11:28:17 17.7 C 20 %
1259 09-07-2019 11:40:17 17.7 C 20 %
1260 09-07-2019 11:52:18 17.2 C 20 %
1261 09-07-2019 12:04:17 17.5 C 20 %
1262 09-07-2019 12:16:18 17.6 C 20 %
1263 09-07-2019 12:28:18 17.7 C 20 %
1264 09-07-2019 12:40:18 17.5 C 20 %
1265 09-07-2019 12:52:18 18.3 C 20 %
1266 09-07-2019 13:04:17 17.7 C 20 %
1267 09-07-2019 13:17:17 18.1 C 20 %
1268 09-07-2019 13:28:17 18.8 C 20 %
1269 09-07-2019 13:40:17 18.7 C 20 %
1270 09-07-2019 13:53:17 19.3 C 20 %
1271 09-07-2019 14:04:17 19.3 C 20 %
1272 09-07-2019 14:17:17 19 C 20 %
1273 09-07-2019 14:29:17 20.4 C 20 %
1274 09-07-2019 14:40:17 19.4 C 20 %
1275 09-07-2019 14:52:17 19.6 C 20 %
Sensor: Nr:Datum:Temp:Feuchte:
Aussen-T/F 1276 09-07-2019 15:04:18 21.1 C 20 %
1277 09-07-2019 15:16:17 19.5 C 20 %
1278 09-07-2019 15:28:17 21.6 C 20 %
1279 09-07-2019 15:40:18 20.9 C 20 %
1280 09-07-2019 15:53:17 20.6 C 20 %
1281 09-07-2019 16:04:17 20.8 C 20 %
1282 09-07-2019 16:17:17 20.5 C 20 %
1283 09-07-2019 16:29:17 20.2 C 20 %
1284 09-07-2019 16:41:17 22 C 20 %
1285 09-07-2019 16:52:17 22 C 20 %
1286 09-07-2019 17:04:18 21.8 C 20 %
1287 09-07-2019 17:16:18 21.9 C 20 %
1288 09-07-2019 17:28:18 22.3 C 20 %
1289 09-07-2019 17:41:17 22.6 C 20 %
1290 09-07-2019 17:53:17 22.3 C 20 %
1291 09-07-2019 18:05:17 21.5 C 20 %
1292 09-07-2019 18:17:17 21.2 C 20 %
1293 09-07-2019 18:29:17 20.5 C 20 %
1294 09-07-2019 18:41:17 21.9 C 20 %
1295 09-07-2019 18:53:17 21.9 C 20 %
1296 09-07-2019 19:04:18 21.6 C 20 %
1297 09-07-2019 19:17:17 21.9 C 20 %
1298 09-07-2019 19:29:17 21.3 C 20 %
1299 09-07-2019 19:40:18 20.8 C 20 %
1300 09-07-2019 19:52:17 20.4 C 20 %
Sensor: Nr:Datum:Temp:Feuchte:
Aussen-T/F 1301 09-07-2019 20:04:18 20 C 20 %
1302 09-07-2019 20:16:18 19.6 C 20 %
1303 09-07-2019 20:28:18 19.4 C 20 %
1304 09-07-2019 20:40:18 19.2 C 20 %
1305 09-07-2019 20:52:18 18.4 C 20 %
1306 09-07-2019 21:04:18 17.4 C 20 %
1307 09-07-2019 21:17:17 16.7 C 20 %
1308 09-07-2019 21:29:17 16.2 C 20 %
1309 09-07-2019 21:41:17 16 C 20 %
1310 09-07-2019 21:52:18 15.3 C 20 %
1311 09-07-2019 22:04:18 14.9 C 20 %
1312 09-07-2019 22:16:18 14.7 C 20 %
1313 09-07-2019 22:28:18 14.4 C 20 %
1314 09-07-2019 22:40:18 14.1 C 20 %
1315 09-07-2019 22:52:18 13.7 C 20 %
1316 09-07-2019 23:04:18 13.3 C 20 %
1317 09-07-2019 23:16:18 12.8 C 20 %
1318 09-07-2019 23:28:18 13 C 20 %
1319 09-07-2019 23:40:18 13.4 C 20 %
1320 09-07-2019 23:52:18 13 C 20 %
1321 10-07-2019 00:05:17 12.5 C 20 %
1322 10-07-2019 00:17:17 12.1 C 20 %
1323 10-07-2019 00:29:17 11.6 C 20 %
1324 10-07-2019 00:41:17 11.3 C 20 %
1325 10-07-2019 00:52:18 11.2 C 20 %
Sensor: Nr:Datum:Temp:Feuchte:
Aussen-T/F 1326 10-07-2019 01:05:17 11.1 C 20 %
1327 10-07-2019 01:17:17 11.1 C 20 %
1328 10-07-2019 01:29:17 11 C 20 %
1329 10-07-2019 01:41:17 10.8 C 20 %
1330 10-07-2019 01:53:18 10.4 C 21 %
1331 10-07-2019 02:04:18 10.2 C 22 %
1332 10-07-2019 02:16:18 10 C 25 %
1333 10-07-2019 02:28:18 9.8 C 26 %
1334 10-07-2019 02:41:17 9.8 C 30 %
1335 10-07-2019 02:53:17 9.6 C 31 %
1336 10-07-2019 03:05:17 9.5 C 30 %
1337 10-07-2019 03:17:17 9.1 C 32 %
1338 10-07-2019 03:29:17 8.9 C 32 %
1339 10-07-2019 03:41:17 8.9 C 33 %
1340 10-07-2019 03:53:18 8.9 C 34 %
1341 10-07-2019 04:05:18 8.6 C 34 %
1342 10-07-2019 04:17:18 8.5 C 35 %
1343 10-07-2019 04:29:18 8.5 C 35 %
1344 10-07-2019 04:41:18 8.5 C 36 %
1345 10-07-2019 04:53:18 8.5 C 36 %
1346 10-07-2019 05:05:17 8.4 C 35 %
1347 10-07-2019 05:17:18 8.2 C 37 %
1348 10-07-2019 05:29:18 8.2 C 37 %
1349 10-07-2019 05:41:18 8.2 C 37 %
1350 10-07-2019 05:53:18 8.2 C 38 %
Sensor: Nr:Datum:Temp:Feuchte:
Aussen-T/F 1351 10-07-2019 06:05:17 8.1 C 38 %
1352 10-07-2019 06:17:17 8.2 C 38 %
1353 10-07-2019 06:29:17 8.2 C 38 %
1354 10-07-2019 06:41:17 8.1 C 38 %
1355 10-07-2019 06:53:17 8.3 C 39 %
1356 10-07-2019 07:05:17 8.5 C 39 %
1357 10-07-2019 07:17:18 8.5 C 39 %
1358 10-07-2019 07:29:18 8.7 C 39 %
1359 10-07-2019 07:41:18 8.9 C 39 %
1360 10-07-2019 07:53:17 9.3 C 38 %
1361 10-07-2019 08:05:18 9.8 C 37 %
1362 10-07-2019 08:17:17 10.4 C 36 %
1363 10-07-2019 08:29:17 11 C 31 %
1364 10-07-2019 08:41:18 11.4 C 30 %
1365 10-07-2019 08:53:17 11.8 C 27 %
1366 10-07-2019 09:05:17 12.2 C 23 %
1367 10-07-2019 09:17:18 13.4 C 20 %
1368 10-07-2019 09:29:18 14.3 C 20 %
1369 10-07-2019 09:41:17 18.7 C 20 %
1370 10-07-2019 09:53:17 20.7 C 20 %
1371 10-07-2019 10:05:17 19.5 C 20 %
1372 10-07-2019 10:17:17 18.2 C 20 %
1373 10-07-2019 10:29:17 17.8 C 20 %
1374 10-07-2019 10:41:17 18.2 C 20 %
1375 10-07-2019 10:53:17 18.9 C 20 %
Sensor: Nr:Datum:Temp:Feuchte:
Aussen-T/F 1376 10-07-2019 11:05:17 19.5 C 20 %
1377 10-07-2019 11:17:17 21.6 C 20 %
1378 10-07-2019 11:29:17 20.5 C 20 %
1379 10-07-2019 11:41:17 22 C 20 %
1380 10-07-2019 11:53:17 21.8 C 20 %
1381 10-07-2019 12:05:17 21.7 C 20 %
1382 10-07-2019 12:17:18 21.1 C 20 %
1383 10-07-2019 12:29:18 21.4 C 20 %
1384 10-07-2019 12:41:17 21.4 C 20 %
1385 10-07-2019 12:53:17 21 C 20 %
1386 10-07-2019 13:05:17 21.8 C 20 %
1387 10-07-2019 13:17:17 21.6 C 20 %
1388 10-07-2019 13:29:17 22.2 C 20 %
1389 10-07-2019 13:41:17 22.4 C 20 %
1390 10-07-2019 13:53:17 22.6 C 20 %
1391 10-07-2019 14:05:18 23.2 C 20 %
1392 10-07-2019 14:17:18 23.6 C 20 %
1393 10-07-2019 14:29:18 23.8 C 20 %
1394 10-07-2019 14:41:17 24.5 C 20 %
1395 10-07-2019 14:53:17 24.4 C 20 %
1396 10-07-2019 15:05:17 25.4 C 20 %
1397 10-07-2019 15:17:18 25.4 C 20 %
1398 10-07-2019 15:29:18 25.9 C 20 %
1399 10-07-2019 15:41:17 26.4 C 20 %
1400 10-07-2019 15:53:17 25.9 C 20 %
Sensor: Nr:Datum:Temp:Feuchte:
Aussen-T/F 1401 10-07-2019 16:05:18 25.3 C 20 %
1402 10-07-2019 16:17:18 25.6 C 20 %
1403 10-07-2019 16:29:18 26.2 C 20 %
1404 10-07-2019 16:41:17 26 C 20 %
1405 10-07-2019 16:53:17 26.9 C 20 %
1406 10-07-2019 17:05:17 26.5 C 20 %
1407 10-07-2019 17:17:17 27.1 C 20 %
1408 10-07-2019 17:29:17 27.2 C 20 %
1409 10-07-2019 17:41:17 26.3 C 20 %
1410 10-07-2019 17:53:17 26.8 C 20 %
1411 10-07-2019 18:05:18 28.3 C 20 %
1412 10-07-2019 18:17:17 28.7 C 20 %
1413 10-07-2019 18:29:17 27.3 C 20 %
1414 10-07-2019 18:41:18 27.9 C 20 %
1415 10-07-2019 18:53:18 26 C 20 %
1416 10-07-2019 19:05:17 26.3 C 20 %
1417 10-07-2019 19:17:18 26.3 C 20 %
1418 10-07-2019 19:29:18 26.4 C 20 %
1419 10-07-2019 19:41:18 25.6 C 20 %
1420 10-07-2019 19:53:17 25 C 20 %
1421 10-07-2019 20:05:18 24.4 C 20 %
1422 10-07-2019 20:17:17 24 C 20 %
1423 10-07-2019 20:29:17 23.8 C 20 %
1424 10-07-2019 20:41:17 23.3 C 20 %
1425 10-07-2019 20:53:17 22.8 C 20 %
Sensor: Nr:Datum:Temp:Feuchte:
Aussen-T/F 1426 10-07-2019 21:05:17 21 C 20 %
1427 10-07-2019 21:17:17 20.5 C 20 %
1428 10-07-2019 21:29:17 20.3 C 20 %
1429 10-07-2019 21:41:18 20 C 20 %
1430 10-07-2019 21:53:18 19.8 C 20 %
1431 10-07-2019 22:05:18 19.7 C 20 %
1432 10-07-2019 22:17:17 19.3 C 20 %
1433 10-07-2019 22:29:17 18.8 C 20 %
1434 10-07-2019 22:41:18 18.7 C 20 %
1435 10-07-2019 22:53:17 18.9 C 20 %
1436 10-07-2019 23:05:18 18.9 C 20 %
1437 10-07-2019 23:17:18 18.8 C 20 %
1438 10-07-2019 23:29:18 19 C 20 %
1439 10-07-2019 23:41:18 19.4 C 20 %
1440 10-07-2019 23:53:17 20 C 20 %
1441 11-07-2019 00:05:18 19.8 C 20 %
1442 11-07-2019 00:17:17 19.8 C 20 %
1443 11-07-2019 00:29:17 19 C 20 %
1444 11-07-2019 00:41:17 18.7 C 20 %
1445 11-07-2019 00:53:17 18.3 C 20 %
1446 11-07-2019 01:05:18 18 C 20 %
1447 11-07-2019 01:17:17 17.9 C 20 %
1448 11-07-2019 01:29:17 17.8 C 20 %
1449 11-07-2019 01:41:18 17.6 C 20 %
1450 11-07-2019 01:53:17 17.5 C 20 %
Sensor: Nr:Datum:Temp:Feuchte:
Aussen-T/F 1451 11-07-2019 02:05:17 17.4 C 20 %
1452 11-07-2019 02:17:17 17.4 C 20 %
1453 11-07-2019 02:29:17 17.4 C 20 %
1454 11-07-2019 02:41:17 17.2 C 20 %
1455 11-07-2019 02:53:18 17.2 C 20 %
1456 11-07-2019 03:05:18 17.2 C 20 %
1457 11-07-2019 03:17:18 17.1 C 20 %
1458 11-07-2019 03:29:18 17.1 C 20 %
1459 11-07-2019 03:41:18 17 C 20 %
1460 11-07-2019 03:53:17 17 C 20 %
1461 11-07-2019 04:05:18 16.9 C 20 %
1462 11-07-2019 04:17:18 16.8 C 20 %
1463 11-07-2019 04:29:18 16.8 C 20 %
1464 11-07-2019 04:41:18 16.7 C 20 %
1465 11-07-2019 04:53:17 16.6 C 20 %
1466 11-07-2019 05:05:18 16.6 C 20 %
1467 11-07-2019 05:17:17 16.6 C 20 %
1468 11-07-2019 05:29:17 16.6 C 20 %
1469 11-07-2019 05:41:17 16.5 C 20 %
1470 11-07-2019 05:53:18 16.4 C 20 %
1471 11-07-2019 06:05:18 16.4 C 20 %
1472 11-07-2019 06:17:17 16.5 C 20 %
1473 11-07-2019 06:29:18 16.7 C 20 %
1474 11-07-2019 06:41:18 17 C 20 %
1475 11-07-2019 06:53:17 17.1 C 20 %
Sensor: Nr:Datum:Temp:Feuchte:
Aussen-T/F 1476 11-07-2019 07:05:17 17.4 C 20 %
1477 11-07-2019 07:17:17 17.8 C 20 %
1478 11-07-2019 07:29:17 17.9 C 20 %
1479 11-07-2019 07:41:17 18 C 20 %
1480 11-07-2019 07:53:17 18 C 20 %
1481 11-07-2019 08:05:17 18 C 20 %
1482 11-07-2019 08:17:17 18.1 C 20 %
1483 11-07-2019 08:29:17 18.2 C 20 %
1484 11-07-2019 08:41:17 18.5 C 20 %
1485 11-07-2019 08:53:17 18.9 C 20 %
1486 11-07-2019 09:05:17 19.3 C 20 %
1487 11-07-2019 09:17:17 19.3 C 20 %
1488 11-07-2019 09:29:18 19 C 20 %
1489 11-07-2019 09:41:18 18.9 C 20 %
1490 11-07-2019 09:53:17 18.8 C 20 %
1491 11-07-2019 10:05:17 18.7 C 20 %
1492 11-07-2019 10:17:18 18.7 C 20 %
1493 11-07-2019 10:29:18 18.8 C 20 %
1494 11-07-2019 10:41:17 18.9 C 20 %
1495 11-07-2019 10:53:17 18.9 C 20 %
1496 11-07-2019 11:05:18 18.6 C 20 %
1497 11-07-2019 11:17:17 18.5 C 20 %
1498 11-07-2019 11:29:17 18.9 C 20 %
1499 11-07-2019 11:41:17 19.3 C 20 %
1500 11-07-2019 11:53:17 19.3 C 20 %
Sensor: Nr:Datum:Temp:Feuchte:
Aussen-T/F 1501 11-07-2019 12:05:18 17.3 C 20 %
1502 11-07-2019 12:17:17 16.6 C 27 %
1503 11-07-2019 12:29:17 16.4 C 35 %
1504 11-07-2019 12:41:18 16.4 C 35 %
1505 11-07-2019 12:53:18 16.2 C 40 %
1506 11-07-2019 13:05:17 16 C 41 %
1507 11-07-2019 13:17:18 16.2 C 43 %
1508 11-07-2019 13:29:18 15.9 C 44 %
1509 11-07-2019 13:41:18 16 C 43 %
1510 11-07-2019 13:53:17 16.1 C 42 %
1511 11-07-2019 14:05:17 16.6 C 41 %
1512 11-07-2019 14:17:17 16.7 C 42 %
1513 11-07-2019 14:29:17 16.7 C 43 %
1514 11-07-2019 14:41:18 16.7 C 42 %
1515 11-07-2019 14:53:17 16.6 C 42 %
1516 11-07-2019 15:05:18 17.2 C 42 %
1517 11-07-2019 15:17:17 17.3 C 42 %
1518 11-07-2019 15:29:17 17.5 C 41 %
1519 11-07-2019 15:41:18 17.6 C 41 %
1520 11-07-2019 15:53:17 18.2 C 39 %
1521 11-07-2019 16:05:17 18.4 C 38 %
1522 11-07-2019 16:17:17 18.7 C 37 %
1523 11-07-2019 16:29:17 19.5 C 32 %
1524 11-07-2019 16:41:17 19.8 C 28 %
1525 11-07-2019 16:53:17 20.8 C 25 %
Sensor: Nr:Datum:Temp:Feuchte:
Aussen-T/F 1526 11-07-2019 17:05:18 21.2 C 25 %
1527 11-07-2019 17:17:18 21.3 C 22 %
1528 11-07-2019 17:29:18 20.3 C 26 %
1529 11-07-2019 17:41:18 19.5 C 30 %
1530 11-07-2019 17:53:18 19.5 C 42 %
1531 11-07-2019 18:05:17 18.9 C 41 %
1532 11-07-2019 18:17:17 18.8 C 45 %
1533 11-07-2019 18:29:17 18.5 C 44 %
1534 11-07-2019 18:41:17 18 C 44 %
1535 11-07-2019 18:53:18 17.8 C 46 %
1536 11-07-2019 19:05:18 17.6 C 46 %
1537 11-07-2019 19:17:17 17.5 C 46 %
1538 11-07-2019 19:29:17 17.6 C 47 %
1539 11-07-2019 19:41:17 17.6 C 47 %
1540 11-07-2019 19:53:17 17.6 C 47 %
1541 11-07-2019 20:05:17 17.5 C 46 %
1542 11-07-2019 20:17:17 17.4 C 46 %
1543 11-07-2019 20:29:17 17.5 C 46 %
1544 11-07-2019 20:41:17 17.5 C 46 %
1545 11-07-2019 20:53:17 17.4 C 46 %
1546 11-07-2019 21:05:17 17.3 C 46 %
1547 11-07-2019 21:17:17 17.1 C 46 %
1548 11-07-2019 21:29:17 16.8 C 47 %
1549 11-07-2019 21:41:18 16.7 C 47 %
1550 11-07-2019 21:53:17 16.6 C 48 %
Sensor: Nr:Datum:Temp:Feuchte:
Aussen-T/F 1551 11-07-2019 22:05:18 16.5 C 48 %
1552 11-07-2019 22:17:18 16.4 C 49 %
1553 11-07-2019 22:29:18 16.3 C 49 %
1554 11-07-2019 22:41:18 16.3 C 52 %
1555 11-07-2019 22:53:18 16.3 C 56 %
1556 11-07-2019 23:05:18 16.2 C 58 %
1557 11-07-2019 23:17:17 16.1 C 58 %
1558 11-07-2019 23:29:17 16.2 C 57 %
1559 11-07-2019 23:41:17 15.8 C 58 %
1560 11-07-2019 23:53:18 15.8 C 59 %
1561 12-07-2019 00:05:18 15.9 C 60 %
1562 12-07-2019 00:17:18 15.8 C 57 %
1563 12-07-2019 00:29:18 15.7 C 53 %
1564 12-07-2019 00:41:18 15.7 C 54 %
1565 12-07-2019 00:53:17 15.6 C 53 %
1566 12-07-2019 01:05:18 15.6 C 54 %
1567 12-07-2019 01:17:18 15.5 C 54 %
1568 12-07-2019 01:29:18 15.5 C 56 %
1569 12-07-2019 01:41:18 15.3 C 54 %
1570 12-07-2019 01:53:17 15.1 C 53 %
1571 12-07-2019 02:05:18 14.9 C 55 %
1572 12-07-2019 02:17:18 14.8 C 56 %
1573 12-07-2019 02:29:18 14.8 C 58 %
1574 12-07-2019 02:41:18 14.8 C 59 %
1575 12-07-2019 02:53:18 14.9 C 61 %
Sensor: Nr:Datum:Temp:Feuchte:
Aussen-T/F 1576 12-07-2019 03:05:18 15.2 C 62 %
1577 12-07-2019 03:17:18 15.1 C 62 %
1578 12-07-2019 03:29:18 14.9 C 61 %
1579 12-07-2019 03:41:17 14.7 C 60 %
1580 12-07-2019 03:53:18 14.8 C 62 %
1581 12-07-2019 04:05:18 14.7 C 61 %
1582 12-07-2019 04:17:17 14.5 C 60 %
1583 12-07-2019 04:29:17 14.3 C 58 %
1584 12-07-2019 04:41:17 14.1 C 59 %
1585 12-07-2019 04:53:18 14 C 59 %
1586 12-07-2019 05:05:17 14 C 61 %
1587 12-07-2019 05:17:17 14 C 61 %
1588 12-07-2019 05:29:17 14.2 C 62 %
1589 12-07-2019 05:41:17 14.3 C 62 %
1590 12-07-2019 05:53:17 14.2 C 61 %
1591 12-07-2019 06:05:17 14.2 C 61 %
1592 12-07-2019 06:17:17 14.2 C 60 %
1593 12-07-2019 06:29:17 14.3 C 62 %
1594 12-07-2019 06:41:18 14.5 C 62 %
1595 12-07-2019 06:53:17 14.9 C 64 %
1596 12-07-2019 07:05:18 15.5 C 65 %
1597 12-07-2019 07:17:18 15.7 C 62 %
1598 12-07-2019 07:29:18 15.5 C 57 %
1599 12-07-2019 07:41:18 15.5 C 57 %
1600 12-07-2019 07:53:18 15.6 C 58 %
Sensor: Nr:Datum:Temp:Feuchte:
Aussen-T/F 1601 12-07-2019 08:05:18 15.8 C 58 %
1602 12-07-2019 08:17:18 16 C 54 %
1603 12-07-2019 08:29:18 16.3 C 52 %
1604 12-07-2019 08:41:17 16.5 C 49 %
1605 12-07-2019 08:53:18 16.7 C 49 %
1606 12-07-2019 09:05:17 17 C 48 %
1607 12-07-2019 09:17:18 17.5 C 47 %
1608 12-07-2019 09:29:18 17.9 C 45 %
1609 12-07-2019 09:41:17 20.1 C 39 %
1610 12-07-2019 09:53:17 18.9 C 37 %
1611 12-07-2019 10:05:17 19.3 C 31 %
1612 12-07-2019 10:17:17 19.5 C 31 %
1613 12-07-2019 10:29:17 20.6 C 30 %
1614 12-07-2019 10:41:17 21.1 C 29 %
1615 12-07-2019 10:53:17 20.8 C 30 %
1616 12-07-2019 11:05:17 20.9 C 30 %
1617 12-07-2019 11:17:18 20.8 C 29 %
1618 12-07-2019 11:29:18 20.4 C 29 %
1619 12-07-2019 11:41:17 19.6 C 33 %
1620 12-07-2019 11:53:17 19 C 38 %
1621 12-07-2019 12:05:17 18.6 C 43 %
1622 12-07-2019 12:17:17 18.4 C 45 %
1623 12-07-2019 12:29:18 18 C 46 %
1624 12-07-2019 12:41:17 17.8 C 47 %
1625 12-07-2019 12:53:17 17.4 C 47 %
Sensor: Nr:Datum:Temp:Feuchte:
Aussen-T/F 1626 12-07-2019 13:05:18 17.6 C 47 %
1627 12-07-2019 13:17:17 17.9 C 48 %
1628 12-07-2019 13:29:17 17.4 C 47 %
1629 12-07-2019 13:41:18 16.8 C 45 %
1630 12-07-2019 13:53:17 16.5 C 45 %
1631 12-07-2019 14:05:18 16.8 C 45 %
1632 12-07-2019 14:17:18 17.5 C 45 %
1633 12-07-2019 14:29:18 17.8 C 41 %
1634 12-07-2019 14:41:17 18.4 C 38 %
1635 12-07-2019 14:53:17 18.5 C 35 %
1636 12-07-2019 15:05:18 19 C 32 %
1637 12-07-2019 15:17:17 20.4 C 31 %
1638 12-07-2019 15:29:17 20.1 C 28 %
1639 12-07-2019 15:41:17 20.3 C 28 %
1640 12-07-2019 15:53:18 21.7 C 27 %
1641 12-07-2019 16:05:17 21.3 C 26 %
1642 12-07-2019 16:17:17 20.7 C 33 %
1643 12-07-2019 16:29:17 20.2 C 36 %
1644 12-07-2019 16:41:17 19.3 C 33 %
1645 12-07-2019 16:53:18 20 C 33 %
1646 12-07-2019 17:05:18 20.2 C 28 %
1647 12-07-2019 17:17:17 20 C 31 %
1648 12-07-2019 17:29:17 19.7 C 25 %
1649 12-07-2019 17:41:17 19.6 C 24 %
1650 12-07-2019 17:53:18 19.3 C 22 %
Sensor: Nr:Datum:Temp:Feuchte:
Aussen-T/F 1651 12-07-2019 18:05:18 18.9 C 27 %
1652 12-07-2019 18:17:17 18.3 C 27 %
1653 12-07-2019 18:29:17 18 C 33 %
1654 12-07-2019 18:41:17 17.6 C 30 %
1655 12-07-2019 18:53:17 17.5 C 34 %
1656 12-07-2019 19:05:17 17.1 C 32 %
1657 12-07-2019 19:17:17 17.2 C 35 %
1658 12-07-2019 19:29:18 17.3 C 33 %
1659 12-07-2019 19:41:18 17.5 C 33 %
1660 12-07-2019 19:53:17 17.7 C 36 %
1661 12-07-2019 20:05:18 17.6 C 38 %
1662 12-07-2019 20:17:17 17.9 C 35 %
1663 12-07-2019 20:29:17 18.3 C 33 %
1664 12-07-2019 20:41:17 18.1 C 33 %
1665 12-07-2019 20:53:17 17.7 C 34 %
1666 12-07-2019 21:05:17 17.6 C 33 %
1667 12-07-2019 21:17:17 17.5 C 32 %
1668 12-07-2019 21:29:18 17.5 C 32 %
1669 12-07-2019 21:41:18 17.6 C 31 %
1670 12-07-2019 21:53:18 17.7 C 30 %
1671 12-07-2019 22:05:18 17.1 C 32 %
1672 12-07-2019 22:17:18 17.2 C 32 %
1673 12-07-2019 22:29:18 17.1 C 31 %
1674 12-07-2019 22:41:18 17 C 33 %
1675 12-07-2019 22:53:18 16.8 C 33 %
Sensor: Nr:Datum:Temp:Feuchte:
Aussen-T/F 1676 12-07-2019 23:05:18 16.7 C 32 %
1677 12-07-2019 23:17:18 16.4 C 36 %
1678 12-07-2019 23:29:18 16.1 C 36 %
1679 12-07-2019 23:41:17 16.1 C 38 %
1680 12-07-2019 23:53:17 16.1 C 37 %
1681 13-07-2019 00:05:17 16.4 C 32 %
1682 13-07-2019 00:17:17 16.5 C 31 %
1683 13-07-2019 00:29:17 16.5 C 30 %
1684 13-07-2019 00:41:17 16.3 C 31 %
1685 13-07-2019 00:53:18 16.3 C 32 %
1686 13-07-2019 01:05:18 16.2 C 33 %
1687 13-07-2019 01:17:18 15.4 C 40 %
1688 13-07-2019 01:29:18 15.2 C 45 %
1689 13-07-2019 01:41:18 15 C 46 %
1690 13-07-2019 01:53:17 14.9 C 48 %
1691 13-07-2019 02:05:17 14.9 C 49 %
1692 13-07-2019 02:17:17 14.9 C 49 %
1693 13-07-2019 02:29:18 15 C 48 %
1694 13-07-2019 02:41:18 14.9 C 49 %
1695 13-07-2019 02:53:17 14.8 C 50 %
1696 13-07-2019 03:05:18 14.7 C 50 %
1697 13-07-2019 03:17:17 14.7 C 50 %
1698 13-07-2019 03:29:17 14.5 C 50 %
1699 13-07-2019 03:41:17 14.6 C 51 %
1700 13-07-2019 03:53:17 14.5 C 50 %
Sensor: Nr:Datum:Temp:Feuchte:
Aussen-T/F 1701 13-07-2019 04:05:17 14.5 C 51 %
1702 13-07-2019 04:17:17 14.5 C 52 %
1703 13-07-2019 04:29:17 14.5 C 53 %
1704 13-07-2019 04:41:18 14.5 C 55 %
1705 13-07-2019 04:53:17 14.4 C 54 %
1706 13-07-2019 05:05:17 14.5 C 54 %
1707 13-07-2019 05:17:17 14.5 C 56 %
1708 13-07-2019 05:29:17 14.4 C 56 %
1709 13-07-2019 05:41:17 14.5 C 58 %
1710 13-07-2019 05:53:18 14.4 C 58 %
1711 13-07-2019 06:05:17 14.4 C 59 %
1712 13-07-2019 06:17:17 14.4 C 59 %
1713 13-07-2019 06:29:17 14.3 C 57 %
1714 13-07-2019 06:41:18 14.3 C 58 %
1715 13-07-2019 06:53:17 14.3 C 57 %
1716 13-07-2019 07:05:18 14.4 C 52 %
1717 13-07-2019 07:17:17 14.5 C 50 %
1718 13-07-2019 07:29:18 14.6 C 49 %
1719 13-07-2019 07:41:18 14.9 C 48 %
1720 13-07-2019 07:53:17 15 C 43 %
1721 13-07-2019 08:05:17 15.2 C 41 %
1722 13-07-2019 08:17:17 15.5 C 40 %
1723 13-07-2019 08:29:18 15.6 C 39 %
1724 13-07-2019 08:41:18 15.8 C 39 %
1725 13-07-2019 08:53:17 15.7 C 40 %
Sensor: Nr:Datum:Temp:Feuchte:
Aussen-T/F 1726 13-07-2019 09:05:18 15.6 C 41 %
1727 13-07-2019 09:17:18 15.7 C 43 %
1728 13-07-2019 09:29:18 16.2 C 41 %
1729 13-07-2019 09:41:18 16.2 C 35 %
1730 13-07-2019 09:53:18 16.3 C 35 %
1731 13-07-2019 10:05:18 16.7 C 34 %
1732 13-07-2019 10:17:18 16.8 C 32 %
1733 13-07-2019 10:29:18 17 C 31 %
1734 13-07-2019 10:41:18 16.6 C 32 %
1735 13-07-2019 10:53:17 16.4 C 36 %
1736 13-07-2019 11:05:17 16.9 C 35 %
1737 13-07-2019 11:17:18 17.5 C 32 %
1738 13-07-2019 11:29:18 18 C 29 %
1739 13-07-2019 11:41:17 18.4 C 28 %
1740 13-07-2019 11:53:17 18.7 C 27 %
1741 13-07-2019 12:05:18 18.6 C 26 %
1742 13-07-2019 12:17:17 19 C 26 %
1743 13-07-2019 12:29:17 19.5 C 25 %
1744 13-07-2019 12:41:17 19.7 C 26 %
1745 13-07-2019 12:53:17 20.1 C 24 %
1746 13-07-2019 13:05:18 19.9 C 24 %
1747 13-07-2019 13:17:18 20.7 C 23 %
1748 13-07-2019 13:29:18 20 C 21 %
1749 13-07-2019 13:41:17 20 C 21 %
1750 13-07-2019 13:53:18 20.8 C 20 %
Sensor: Nr:Datum:Temp:Feuchte:
Aussen-T/F 1751 13-07-2019 14:05:18 21.4 C 20 %
1752 13-07-2019 14:17:18 21.8 C 20 %
1753 13-07-2019 14:29:18 22.3 C 20 %
1754 13-07-2019 14:41:18 22.3 C 20 %
1755 13-07-2019 14:53:17 20.6 C 20 %
1756 13-07-2019 15:05:17 21.3 C 20 %
1757 13-07-2019 15:17:18 21.8 C 20 %
1758 13-07-2019 15:29:18 22.4 C 20 %
1759 13-07-2019 15:41:18 22.6 C 20 %
1760 13-07-2019 15:53:17 21.8 C 20 %
1761 13-07-2019 16:05:18 22.3 C 20 %
1762 13-07-2019 16:17:18 20.9 C 20 %
1763 13-07-2019 16:29:18 20.8 C 20 %
1764 13-07-2019 16:41:18 20.6 C 20 %
1765 13-07-2019 16:53:17 20.8 C 20 %
1766 13-07-2019 17:05:18 20.9 C 20 %
1767 13-07-2019 17:17:18 21.4 C 20 %
1768 13-07-2019 17:29:18 22.5 C 20 %
1769 13-07-2019 17:41:17 23.6 C 20 %
1770 13-07-2019 17:53:18 23.4 C 20 %
1771 13-07-2019 18:05:18 22.2 C 20 %
1772 13-07-2019 18:17:17 22.5 C 20 %
1773 13-07-2019 18:29:17 22.2 C 20 %
1774 13-07-2019 18:41:17 22.5 C 20 %
1775 13-07-2019 18:53:17 23.5 C 20 %
Sensor: Nr:Datum:Temp:Feuchte:
Aussen-T/F 1776 13-07-2019 19:05:17 23.5 C 20 %
1777 13-07-2019 19:17:18 23.3 C 20 %
1778 13-07-2019 19:29:18 22.9 C 20 %
1779 13-07-2019 19:41:18 22.1 C 20 %
1780 13-07-2019 19:53:17 21.4 C 20 %
1781 13-07-2019 20:05:18 20.8 C 20 %
1782 13-07-2019 20:17:18 20.6 C 20 %
1783 13-07-2019 20:29:18 20.4 C 20 %
1784 13-07-2019 20:41:18 20.1 C 20 %
1785 13-07-2019 20:53:18 19.8 C 20 %
1786 13-07-2019 21:05:18 19.5 C 20 %
1787 13-07-2019 21:17:18 19.1 C 24 %
1788 13-07-2019 21:29:18 18.7 C 25 %
1789 13-07-2019 21:41:18 18.8 C 25 %
1790 13-07-2019 21:53:18 18.9 C 25 %
1791 13-07-2019 22:05:18 18.5 C 27 %
1792 13-07-2019 22:17:18 17.5 C 34 %
1793 13-07-2019 22:29:18 17.1 C 40 %
1794 13-07-2019 22:41:18 17 C 41 %
1795 13-07-2019 22:53:17 16.9 C 41 %
1796 13-07-2019 23:05:17 17 C 41 %
1797 13-07-2019 23:17:17 16.9 C 42 %
1798 13-07-2019 23:29:18 16.9 C 41 %
1799 13-07-2019 23:41:18 16.9 C 41 %
1800 13-07-2019 23:53:18 16.8 C 39 %
Sensor: Nr:Datum:Temp:Feuchte:
Aussen-T/F 1801 14-07-2019 00:05:18 16.8 C 37 %
1802 14-07-2019 00:17:18 16.8 C 38 %
1803 14-07-2019 00:29:18 17 C 36 %
1804 14-07-2019 00:41:18 16.9 C 37 %
1805 14-07-2019 00:53:17 16.9 C 37 %
1806 14-07-2019 01:05:17 17 C 36 %
1807 14-07-2019 01:17:17 17 C 35 %
1808 14-07-2019 01:29:17 17 C 34 %
1809 14-07-2019 01:41:17 17 C 35 %
1810 14-07-2019 01:53:17 16.9 C 35 %
1811 14-07-2019 02:05:17 16.7 C 35 %
1812 14-07-2019 02:17:17 16.3 C 37 %
1813 14-07-2019 02:29:17 15.8 C 40 %
1814 14-07-2019 02:41:17 15.7 C 42 %
1815 14-07-2019 02:53:17 15.3 C 42 %
1816 14-07-2019 03:05:17 15.2 C 43 %
1817 14-07-2019 03:17:17 15 C 42 %
1818 14-07-2019 03:29:17 14.8 C 42 %
1819 14-07-2019 03:41:17 14.8 C 42 %
1820 14-07-2019 03:53:18 14.8 C 42 %
1821 14-07-2019 04:05:18 14.8 C 43 %
1822 14-07-2019 04:17:18 14.8 C 42 %
1823 14-07-2019 04:29:18 14.9 C 40 %
1824 14-07-2019 04:41:18 14.9 C 39 %
1825 14-07-2019 04:53:18 14.9 C 39 %
Sensor: Nr:Datum:Temp:Feuchte:
Aussen-T/F 1826 14-07-2019 05:05:18 14.8 C 38 %
1827 14-07-2019 05:17:18 14.8 C 38 %
1828 14-07-2019 05:29:18 14.6 C 38 %
1829 14-07-2019 05:41:18 14.6 C 40 %
1830 14-07-2019 05:53:18 14.6 C 40 %
1831 14-07-2019 06:05:17 14.6 C 40 %
1832 14-07-2019 06:17:17 14.6 C 40 %
1833 14-07-2019 06:29:18 14.7 C 40 %
1834 14-07-2019 06:41:18 14.7 C 40 %
1835 14-07-2019 06:53:17 14.7 C 36 %
1836 14-07-2019 07:05:17 14.8 C 33 %
1837 14-07-2019 07:17:17 14.9 C 33 %
1838 14-07-2019 07:29:17 15.1 C 31 %
1839 14-07-2019 07:41:17 15.1 C 29 %
1840 14-07-2019 07:53:17 15.3 C 28 %
1841 14-07-2019 08:05:17 15.5 C 28 %
1842 14-07-2019 08:17:17 15.6 C 28 %
1843 14-07-2019 08:29:17 15.7 C 30 %
1844 14-07-2019 08:41:17 15.7 C 30 %
1845 14-07-2019 08:53:18 15.9 C 30 %
1846 14-07-2019 09:05:18 15.5 C 30 %
1847 14-07-2019 09:17:18 15.2 C 29 %
1848 14-07-2019 09:29:18 15.2 C 27 %
1849 14-07-2019 09:41:18 15.4 C 27 %
1850 14-07-2019 09:53:17 16 C 25 %
Sensor: Nr:Datum:Temp:Feuchte:
Aussen-T/F 1851 14-07-2019 10:05:18 16.1 C 22 %
1852 14-07-2019 10:17:18 16.4 C 20 %
1853 14-07-2019 10:29:18 16.5 C 20 %
1854 14-07-2019 10:41:18 16.6 C 20 %
1855 14-07-2019 10:53:17 17 C 20 %
1856 14-07-2019 11:05:17 16.8 C 20 %
1857 14-07-2019 11:17:18 17.1 C 20 %
1858 14-07-2019 11:29:18 17.5 C 20 %
1859 14-07-2019 11:41:18 18 C 20 %
1860 14-07-2019 11:53:17 17.6 C 20 %
1861 14-07-2019 12:05:18 17.9 C 20 %
1862 14-07-2019 12:17:18 18.1 C 20 %
1863 14-07-2019 12:29:18 18.4 C 20 %
1864 14-07-2019 12:41:18 18.5 C 20 %
1865 14-07-2019 12:53:17 18.7 C 20 %
1866 14-07-2019 13:05:18 18.1 C 20 %
1867 14-07-2019 13:17:18 18.1 C 20 %
1868 14-07-2019 13:29:18 18.4 C 20 %
1869 14-07-2019 13:41:17 18.6 C 20 %
1870 14-07-2019 13:53:18 19 C 20 %
1871 14-07-2019 14:05:18 18.5 C 20 %
1872 14-07-2019 14:17:17 18.6 C 20 %
1873 14-07-2019 14:29:17 18.8 C 20 %
1874 14-07-2019 14:41:17 18.9 C 20 %
1875 14-07-2019 14:53:17 19.5 C 20 %
Sensor: Nr:Datum:Temp:Feuchte:
Aussen-T/F 1876 14-07-2019 15:05:17 19.2 C 20 %
1877 14-07-2019 15:17:17 19.5 C 20 %
1878 14-07-2019 15:29:17 19.3 C 20 %
1879 14-07-2019 15:41:18 20 C 20 %
1880 14-07-2019 15:53:18 20.3 C 20 %
1881 14-07-2019 16:05:18 19.6 C 20 %
1882 14-07-2019 16:17:18 19.6 C 20 %
1883 14-07-2019 16:29:18 19.9 C 20 %
1884 14-07-2019 16:41:18 19.8 C 20 %
1885 14-07-2019 16:53:17 19.9 C 20 %
1886 14-07-2019 17:05:18 20.4 C 20 %
1887 14-07-2019 17:17:18 19.7 C 20 %
1888 14-07-2019 17:29:18 19.7 C 20 %
1889 14-07-2019 17:41:18 19.8 C 20 %
1890 14-07-2019 17:53:17 19.5 C 20 %
1891 14-07-2019 18:05:18 19.1 C 20 %
1892 14-07-2019 18:17:17 19 C 20 %
1893 14-07-2019 18:29:17 19.1 C 20 %
1894 14-07-2019 18:41:18 18.9 C 20 %
1895 14-07-2019 18:53:18 18.9 C 20 %
1896 14-07-2019 19:05:18 18.9 C 20 %
1897 14-07-2019 19:17:18 18.7 C 20 %
1898 14-07-2019 19:29:18 18.7 C 20 %
1899 14-07-2019 19:41:18 18.6 C 20 %
1900 14-07-2019 19:53:18 18.5 C 20 %
Sensor: Nr:Datum:Temp:Feuchte:
Aussen-T/F 1901 14-07-2019 20:05:18 18.3 C 20 %
1902 14-07-2019 20:17:17 18.1 C 20 %
1903 14-07-2019 20:29:17 18 C 20 %
1904 14-07-2019 20:41:17 18 C 20 %
1905 14-07-2019 20:53:18 17.8 C 20 %
1906 14-07-2019 21:05:18 17.7 C 20 %
1907 14-07-2019 21:17:18 17.7 C 20 %
1908 14-07-2019 21:29:18 17.6 C 20 %
1909 14-07-2019 21:41:18 17.4 C 20 %
1910 14-07-2019 21:53:18 17.4 C 20 %
1911 14-07-2019 22:05:18 17.2 C 20 %
1912 14-07-2019 22:17:18 17.2 C 20 %
1913 14-07-2019 22:29:18 17.3 C 20 %
1914 14-07-2019 22:41:18 17.2 C 20 %
1915 14-07-2019 22:53:17 17 C 20 %
1916 14-07-2019 23:05:18 17 C 20 %
1917 14-07-2019 23:17:18 17 C 20 %
1918 14-07-2019 23:29:18 16.9 C 20 %
1919 14-07-2019 23:41:18 16.6 C 20 %
1920 14-07-2019 23:53:18 16.2 C 20 %
1921 15-07-2019 00:05:17 16.3 C 20 %
1922 15-07-2019 00:17:17 16.2 C 20 %
1923 15-07-2019 00:29:17 15.9 C 20 %
1924 15-07-2019 00:41:17 15.5 C 25 %
1925 15-07-2019 00:53:17 15.4 C 26 %
Sensor: Nr:Datum:Temp:Feuchte:
Aussen-T/F 1926 15-07-2019 01:05:17 15.5 C 25 %
1927 15-07-2019 01:17:17 15.4 C 26 %
1928 15-07-2019 01:29:17 15.9 C 20 %
1929 15-07-2019 01:41:18 16 C 20 %
1930 15-07-2019 01:53:18 16 C 20 %
1931 15-07-2019 02:05:18 15.9 C 20 %
1932 15-07-2019 02:17:18 15.5 C 25 %
1933 15-07-2019 02:29:18 15.2 C 27 %
1934 15-07-2019 02:41:17 15 C 28 %
1935 15-07-2019 02:53:18 15 C 29 %
1936 15-07-2019 03:05:18 15 C 30 %
1937 15-07-2019 03:17:18 15 C 30 %
1938 15-07-2019 03:29:18 15 C 28 %
1939 15-07-2019 03:41:18 15 C 29 %
1940 15-07-2019 03:53:17 14.9 C 30 %
1941 15-07-2019 04:05:18 15.2 C 21 %
1942 15-07-2019 04:17:17 15.6 C 20 %
1943 15-07-2019 04:29:18 15.6 C 21 %
1944 15-07-2019 04:41:18 15.6 C 20 %
1945 15-07-2019 04:53:17 15.7 C 20 %
1946 15-07-2019 05:05:18 15.7 C 20 %
1947 15-07-2019 05:17:17 15.8 C 20 %
1948 15-07-2019 05:29:17 15.7 C 20 %
1949 15-07-2019 05:41:17 15.6 C 20 %
1950 15-07-2019 05:53:17 15.6 C 20 %
Sensor: Nr:Datum:Temp:Feuchte:
Aussen-T/F 1951 15-07-2019 06:05:18 15.6 C 20 %
1952 15-07-2019 06:17:18 15.6 C 20 %
1953 15-07-2019 06:29:18 15.6 C 20 %
1954 15-07-2019 06:41:17 15.6 C 20 %
1955 15-07-2019 06:53:17 15.6 C 20 %
1956 15-07-2019 07:05:17 15.7 C 20 %
1957 15-07-2019 07:17:17 15.7 C 20 %
1958 15-07-2019 07:29:17 15.8 C 20 %
1959 15-07-2019 07:41:18 15.8 C 20 %
1960 15-07-2019 07:53:17 15.7 C 20 %
1961 15-07-2019 08:05:17 15.7 C 20 %
1962 15-07-2019 08:17:17 15.8 C 20 %
1963 15-07-2019 08:29:17 15.9 C 20 %
1964 15-07-2019 08:41:18 16.3 C 20 %
1965 15-07-2019 08:53:18 16.5 C 20 %
1966 15-07-2019 09:05:18 16.6 C 20 %
1967 15-07-2019 09:17:17 16.7 C 20 %
1968 15-07-2019 09:29:17 17.1 C 20 %
1969 15-07-2019 09:41:18 17.1 C 20 %
1970 15-07-2019 09:53:18 17.2 C 20 %
1971 15-07-2019 10:05:17 17.2 C 20 %
1972 15-07-2019 10:17:17 17 C 20 %
1973 15-07-2019 10:29:17 17.1 C 20 %
1974 15-07-2019 10:41:17 17.1 C 20 %
1975 15-07-2019 10:53:17 17.2 C 20 %
Sensor: Nr:Datum:Temp:Feuchte:
Aussen-T/F 1976 15-07-2019 11:05:17 17.4 C 20 %
1977 15-07-2019 11:17:18 17.4 C 20 %
1978 15-07-2019 11:29:18 17.2 C 20 %
1979 15-07-2019 11:41:17 17.4 C 20 %
1980 15-07-2019 11:53:18 17.5 C 20 %
1981 15-07-2019 12:05:17 17.8 C 20 %
1982 15-07-2019 12:17:17 17.7 C 20 %
1983 15-07-2019 12:29:17 17.6 C 20 %
1984 15-07-2019 12:41:18 17.6 C 20 %
1985 15-07-2019 12:53:17 17.6 C 20 %
1986 15-07-2019 13:05:18 17.5 C 20 %
1987 15-07-2019 13:17:18 17.8 C 20 %
1988 15-07-2019 13:29:18 18.2 C 20 %
1989 15-07-2019 13:41:18 18.4 C 20 %
1990 15-07-2019 13:53:17 18.4 C 20 %
1991 15-07-2019 14:05:18 18.9 C 20 %
1992 15-07-2019 14:17:17 19.1 C 20 %
1993 15-07-2019 14:29:18 19.1 C 20 %
1994 15-07-2019 14:41:18 18.8 C 20 %
1995 15-07-2019 14:53:17 19 C 20 %
1996 15-07-2019 15:05:17 18.5 C 20 %
1997 15-07-2019 15:17:17 18 C 20 %
1998 15-07-2019 15:29:17 18.5 C 20 %
1999 15-07-2019 15:41:17 18.2 C 20 %
2000 15-07-2019 15:53:17 18.3 C 20 %
Sensor: Nr:Datum:Temp:Feuchte:
Aussen-T/F 2001 15-07-2019 16:05:17 17.7 C 20 %
2002 15-07-2019 16:17:18 17.8 C 20 %
2003 15-07-2019 16:29:18 17.5 C 20 %
2004 15-07-2019 16:41:17 17.5 C 20 %
2005 15-07-2019 16:53:18 17.4 C 20 %
2006 15-07-2019 17:05:17 17.4 C 20 %
2007 15-07-2019 17:17:18 17.1 C 20 %
2008 15-07-2019 17:29:18 17.1 C 20 %
2009 15-07-2019 17:41:18 16.8 C 20 %
2010 15-07-2019 17:53:18 16.8 C 20 %
2011 15-07-2019 18:05:17 17 C 20 %
2012 15-07-2019 18:17:17 16.9 C 20 %
2013 15-07-2019 18:29:17 17 C 20 %
2014 15-07-2019 18:41:17 17.1 C 20 %
2015 15-07-2019 18:53:17 17.3 C 20 %
2016 15-07-2019 19:05:18 17.1 C 20 %
2017 15-07-2019 19:17:18 17 C 20 %
2018 15-07-2019 19:29:18 17 C 20 %
2019 15-07-2019 19:41:17 17 C 20 %
2020 15-07-2019 19:53:17 16.9 C 20 %
2021 15-07-2019 20:05:17 16.9 C 20 %
2022 15-07-2019 20:17:17 16.9 C 20 %
2023 15-07-2019 20:29:17 16.9 C 20 %
2024 15-07-2019 20:41:17 16.9 C 20 %
2025 15-07-2019 20:53:18 16.7 C 20 %
Sensor: Nr:Datum:Temp:Feuchte:
Aussen-T/F 2026 15-07-2019 21:05:18 16.5 C 20 %
2027 15-07-2019 21:17:17 16.5 C 20 %
2028 15-07-2019 21:29:17 16.4 C 20 %
2029 15-07-2019 21:41:17 16.2 C 20 %
2030 15-07-2019 21:53:17 15.8 C 23 %
2031 15-07-2019 22:05:18 15.6 C 23 %
2032 15-07-2019 22:17:18 15.5 C 25 %
2033 15-07-2019 22:29:18 15.4 C 25 %
2034 15-07-2019 22:41:18 15.4 C 25 %
2035 15-07-2019 22:53:17 15.2 C 25 %
2036 15-07-2019 23:05:17 15.7 C 20 %
2037 15-07-2019 23:17:17 15.7 C 20 %
2038 15-07-2019 23:29:17 15.6 C 20 %
2039 15-07-2019 23:41:18 15.2 C 20 %
2040 15-07-2019 23:53:18 14.8 C 25 %
2041 16-07-2019 00:05:18 14.7 C 27 %
2042 16-07-2019 00:17:18 14.5 C 26 %
2043 16-07-2019 00:29:18 14.6 C 26 %
2044 16-07-2019 00:41:18 14.5 C 27 %
2045 16-07-2019 00:53:18 14.4 C 27 %
2046 16-07-2019 01:05:18 13.8 C 27 %
2047 16-07-2019 01:17:18 13.1 C 30 %
2048 16-07-2019 01:29:18 12.9 C 32 %
2049 16-07-2019 01:41:18 12.7 C 33 %
2050 16-07-2019 01:53:17 12.5 C 34 %
Sensor: Nr:Datum:Temp:Feuchte:
Aussen-T/F 2051 16-07-2019 02:05:18 12.3 C 36 %
2052 16-07-2019 02:17:18 11.8 C 38 %
2053 16-07-2019 02:29:18 11.4 C 39 %
2054 16-07-2019 02:41:18 11.1 C 41 %
2055 16-07-2019 02:53:18 10.8 C 42 %
2056 16-07-2019 03:05:18 10.7 C 44 %
2057 16-07-2019 03:17:18 10.6 C 45 %
2058 16-07-2019 03:29:18 10.6 C 45 %
2059 16-07-2019 03:41:18 10.4 C 45 %
2060 16-07-2019 03:53:18 10.3 C 45 %
2061 16-07-2019 04:05:17 10.2 C 45 %
2062 16-07-2019 04:17:17 10 C 45 %
2063 16-07-2019 04:29:17 9.9 C 46 %
2064 16-07-2019 04:41:18 9.9 C 47 %
2065 16-07-2019 04:53:18 9.9 C 47 %
2066 16-07-2019 05:05:17 10 C 47 %
2067 16-07-2019 05:17:17 9.8 C 47 %
2068 16-07-2019 05:29:17 9.8 C 48 %
2069 16-07-2019 05:41:17 9.7 C 48 %
2070 16-07-2019 05:53:17 9.7 C 48 %
2071 16-07-2019 06:05:17 9.8 C 49 %
2072 16-07-2019 06:17:17 9.9 C 49 %
2073 16-07-2019 06:29:17 10.2 C 48 %
2074 16-07-2019 06:41:17 10.5 C 48 %
2075 16-07-2019 06:53:17 10.7 C 45 %
Sensor: Nr:Datum:Temp:Feuchte:
Aussen-T/F 2076 16-07-2019 07:05:17 11 C 42 %
2077 16-07-2019 07:17:17 11.2 C 40 %
2078 16-07-2019 07:29:17 11.3 C 39 %
2079 16-07-2019 07:41:17 11.7 C 38 %
2080 16-07-2019 07:53:17 12 C 36 %
2081 16-07-2019 08:05:18 12.4 C 36 %
2082 16-07-2019 08:17:17 12.8 C 35 %
2083 16-07-2019 08:29:17 13.3 C 32 %
2084 16-07-2019 08:41:17 13.9 C 30 %
2085 16-07-2019 08:53:18 14.5 C 29 %
2086 16-07-2019 09:05:17 14.8 C 27 %
2087 16-07-2019 09:17:17 15.3 C 26 %
2088 16-07-2019 09:29:18 15.6 C 25 %
2089 16-07-2019 09:41:17 15.3 C 24 %
2090 16-07-2019 09:53:17 15.4 C 23 %
2091 16-07-2019 10:05:18 16 C 21 %
2092 16-07-2019 10:17:17 15.8 C 20 %
2093 16-07-2019 10:29:17 15.8 C 20 %
2094 16-07-2019 10:41:18 16.2 C 20 %
2095 16-07-2019 10:53:17 16.2 C 20 %
2096 16-07-2019 11:05:17 16.4 C 20 %
2097 16-07-2019 11:17:17 16.5 C 20 %
2098 16-07-2019 11:29:17 16 C 20 %
2099 16-07-2019 11:41:18 16.4 C 20 %
2100 16-07-2019 11:53:17 17 C 20 %
Sensor: Nr:Datum:Temp:Feuchte:
Aussen-T/F 2101 16-07-2019 12:05:17 17.1 C 20 %
2102 16-07-2019 12:17:18 17.2 C 20 %
2103 16-07-2019 12:29:18 17.2 C 20 %
2104 16-07-2019 12:41:17 17.7 C 20 %
2105 16-07-2019 12:53:17 17.6 C 20 %
2106 16-07-2019 13:05:18 18.2 C 20 %
2107 16-07-2019 13:17:18 18 C 20 %
2108 16-07-2019 13:29:18 18.3 C 20 %
2109 16-07-2019 13:41:17 18.4 C 20 %
2110 16-07-2019 13:53:17 18.3 C 20 %
2111 16-07-2019 14:05:18 19.1 C 20 %
2112 16-07-2019 14:17:17 19.4 C 20 %
2113 16-07-2019 14:29:17 19.8 C 20 %
2114 16-07-2019 14:41:17 20.4 C 20 %
2115 16-07-2019 14:53:17 20.4 C 20 %
2116 16-07-2019 15:05:18 20.8 C 20 %
2117 16-07-2019 15:17:17 21.5 C 20 %
2118 16-07-2019 15:29:17 22.1 C 20 %
2119 16-07-2019 15:41:17 21.8 C 20 %
2120 16-07-2019 15:53:18 22.2 C 20 %
2121 16-07-2019 16:05:17 22.9 C 20 %
2122 16-07-2019 16:17:17 22.9 C 20 %
2123 16-07-2019 16:29:17 23.2 C 20 %
2124 16-07-2019 16:41:17 22.2 C 20 %
2125 16-07-2019 16:53:17 23.2 C 20 %
Sensor: Nr:Datum:Temp:Feuchte:
Aussen-T/F 2126 16-07-2019 17:05:18 23.3 C 20 %
2127 16-07-2019 17:17:18 22.8 C 20 %
2128 16-07-2019 17:29:18 23.5 C 20 %
2129 16-07-2019 17:41:18 23.4 C 20 %
2130 16-07-2019 17:53:18 23.6 C 20 %
2131 16-07-2019 18:05:17 23 C 20 %
2132 16-07-2019 18:17:17 23.7 C 20 %
2133 16-07-2019 18:29:17 24.1 C 20 %
2134 16-07-2019 18:41:17 23.6 C 20 %
2135 16-07-2019 18:53:18 22.9 C 20 %
2136 16-07-2019 19:05:18 22.9 C 20 %
2137 16-07-2019 19:17:18 22.9 C 20 %
2138 16-07-2019 19:29:18 22.1 C 20 %
2139 16-07-2019 19:41:18 21.4 C 20 %
2140 16-07-2019 19:53:18 21.8 C 20 %
2141 16-07-2019 20:05:18 21.7 C 20 %
2142 16-07-2019 20:17:17 21.4 C 20 %
2143 16-07-2019 20:29:17 20.7 C 20 %
2144 16-07-2019 20:41:17 20.4 C 20 %
2145 16-07-2019 20:53:17 20 C 20 %
2146 16-07-2019 21:05:17 19.4 C 20 %
2147 16-07-2019 21:17:17 18.2 C 20 %
2148 16-07-2019 21:29:17 17.3 C 20 %
2149 16-07-2019 21:41:17 16.7 C 20 %
2150 16-07-2019 21:53:17 16.4 C 22 %
Sensor: Nr:Datum:Temp:Feuchte:
Aussen-T/F 2151 16-07-2019 22:05:18 15.9 C 25 %
2152 16-07-2019 22:17:18 15.8 C 25 %
2153 16-07-2019 22:29:18 15.7 C 26 %
2154 16-07-2019 22:41:18 15.6 C 26 %
2155 16-07-2019 22:53:18 15.5 C 25 %
2156 16-07-2019 23:05:18 15.5 C 25 %
2157 16-07-2019 23:17:18 15.2 C 26 %
2158 16-07-2019 23:29:18 15.1 C 26 %
2159 16-07-2019 23:41:17 14.8 C 29 %
2160 16-07-2019 23:53:17 14.5 C 30 %
2161 17-07-2019 00:05:18 14.3 C 31 %
2162 17-07-2019 00:17:18 14 C 31 %
2163 17-07-2019 00:29:18 13.8 C 34 %
2164 17-07-2019 00:41:18 13.6 C 35 %
2165 17-07-2019 00:53:17 13.4 C 35 %
2166 17-07-2019 01:05:18 13.1 C 36 %
2167 17-07-2019 01:17:17 13 C 37 %
2168 17-07-2019 01:29:18 13.1 C 38 %
2169 17-07-2019 01:41:18 12.9 C 38 %
2170 17-07-2019 01:53:17 12.8 C 39 %
2171 17-07-2019 02:05:18 12.4 C 39 %
2172 17-07-2019 02:17:18 12.2 C 40 %
2173 17-07-2019 02:29:18 12.2 C 41 %
2174 17-07-2019 02:41:18 12 C 41 %
2175 17-07-2019 02:53:18 11.8 C 42 %
Sensor: Nr:Datum:Temp:Feuchte:
Aussen-T/F 2176 17-07-2019 03:05:18 11.7 C 42 %
2177 17-07-2019 03:17:18 11.6 C 43 %
2178 17-07-2019 03:29:18 11.6 C 44 %
2179 17-07-2019 03:41:18 11.5 C 45 %
2180 17-07-2019 03:53:17 11.4 C 45 %
2181 17-07-2019 04:05:18 11.3 C 45 %
2182 17-07-2019 04:17:18 11.2 C 45 %
2183 17-07-2019 04:29:18 11 C 45 %
2184 17-07-2019 04:41:18 11 C 45 %
2185 17-07-2019 04:53:18 11 C 45 %
2186 17-07-2019 05:05:17 10.9 C 46 %
2187 17-07-2019 05:17:17 10.9 C 47 %
2188 17-07-2019 05:29:17 10.8 C 47 %
2189 17-07-2019 05:41:17 10.7 C 47 %
2190 17-07-2019 05:53:18 10.8 C 47 %
2191 17-07-2019 06:05:18 10.8 C 47 %
2192 17-07-2019 06:17:17 10.7 C 47 %
2193 17-07-2019 06:29:17 10.9 C 48 %
2194 17-07-2019 06:41:17 11.1 C 47 %
2195 17-07-2019 06:53:18 11.2 C 46 %
2196 17-07-2019 07:05:17 11.4 C 46 %
2197 17-07-2019 07:17:17 11.6 C 46 %
2198 17-07-2019 07:29:18 11.9 C 46 %
2199 17-07-2019 07:41:17 12.1 C 45 %
2200 17-07-2019 07:53:18 12.5 C 45 %
Sensor: Nr:Datum:Temp:Feuchte:
Aussen-T/F 2201 17-07-2019 08:05:17 12.9 C 43 %
2202 17-07-2019 08:17:17 13.2 C 40 %
2203 17-07-2019 08:29:17 13.5 C 37 %
2204 17-07-2019 08:41:17 13.9 C 35 %
2205 17-07-2019 08:53:18 14.4 C 32 %
2206 17-07-2019 09:05:17 14.9 C 31 %
2207 17-07-2019 09:17:17 15.5 C 28 %
2208 17-07-2019 09:29:17 16.1 C 26 %
2209 17-07-2019 09:41:17 16.4 C 26 %
2210 17-07-2019 09:53:17 17.3 C 23 %
2211 17-07-2019 10:05:18 17.7 C 21 %
2212 17-07-2019 10:17:17 18.1 C 20 %
2213 17-07-2019 10:29:17 18.7 C 20 %
2214 17-07-2019 10:41:18 18.7 C 20 %
2215 17-07-2019 10:53:18 19.1 C 20 %
2216 17-07-2019 11:05:17 19.7 C 20 %
2217 17-07-2019 11:17:17 20.3 C 20 %
2218 17-07-2019 11:29:17 19.7 C 20 %
2219 17-07-2019 11:41:17 19.6 C 20 %
2220 17-07-2019 11:53:18 20.2 C 20 %
2221 17-07-2019 12:05:18 19.9 C 20 %
2222 17-07-2019 12:17:17 20.2 C 20 %
2223 17-07-2019 12:29:17 20.3 C 20 %
2224 17-07-2019 12:41:18 20.8 C 20 %
2225 17-07-2019 12:53:18 20.7 C 20 %
Sensor: Nr:Datum:Temp:Feuchte:
Aussen-T/F 2226 17-07-2019 13:05:17 20.8 C 20 %
2227 17-07-2019 13:17:17 21.2 C 20 %
2228 17-07-2019 13:29:17 21.7 C 20 %
2229 17-07-2019 13:41:18 21.7 C 20 %
2230 17-07-2019 13:53:18 22 C 20 %
2231 17-07-2019 14:05:17 22.4 C 20 %
2232 17-07-2019 14:17:18 22.6 C 20 %
2233 17-07-2019 14:29:18 23.1 C 20 %
2234 17-07-2019 14:41:17 23.2 C 20 %
2235 17-07-2019 14:53:17 23.3 C 20 %
2236 17-07-2019 15:05:17 23.3 C 20 %
2237 17-07-2019 15:17:18 23.7 C 20 %
2238 17-07-2019 15:29:18 23.6 C 20 %
2239 17-07-2019 15:41:18 23.9 C 20 %
2240 17-07-2019 15:53:17 23.9 C 20 %
2241 17-07-2019 16:05:17 23.6 C 20 %
2242 17-07-2019 16:17:18 23.3 C 20 %
2243 17-07-2019 16:29:18 24.5 C 20 %
2244 17-07-2019 16:41:18 24.4 C 20 %
2245 17-07-2019 16:53:17 23.6 C 20 %
2246 17-07-2019 17:05:17 24.9 C 20 %
2247 17-07-2019 17:17:17 24.8 C 20 %
2248 17-07-2019 17:29:17 25.2 C 20 %
2249 17-07-2019 17:41:17 25.4 C 20 %
2250 17-07-2019 17:53:18 25 C 20 %
Sensor: Nr:Datum:Temp:Feuchte:
Aussen-T/F 2251 17-07-2019 18:05:17 25.1 C 20 %
2252 17-07-2019 18:17:18 24.6 C 20 %
2253 17-07-2019 18:29:18 24.1 C 20 %
2254 17-07-2019 18:41:18 24.1 C 20 %
2255 17-07-2019 18:53:18 23.7 C 20 %
2256 17-07-2019 19:05:18 24.3 C 20 %
2257 17-07-2019 19:17:17 23.4 C 20 %
2258 17-07-2019 19:29:17 23.1 C 20 %
2259 17-07-2019 19:41:17 22.5 C 20 %
2260 17-07-2019 19:53:17 22.4 C 20 %
2261 17-07-2019 20:05:17 22.1 C 20 %
2262 17-07-2019 20:17:17 22 C 20 %
2263 17-07-2019 20:29:17 21.7 C 20 %
2264 17-07-2019 20:41:18 21.3 C 20 %
2265 17-07-2019 20:53:18 20.9 C 20 %
2266 17-07-2019 21:05:18 20.6 C 20 %
2267 17-07-2019 21:17:18 20.3 C 20 %
2268 17-07-2019 21:29:18 19.7 C 20 %
2269 17-07-2019 21:41:18 18.3 C 20 %
2270 17-07-2019 21:53:18 17.6 C 22 %
2271 17-07-2019 22:05:18 17.2 C 25 %
2272 17-07-2019 22:17:18 17 C 26 %
2273 17-07-2019 22:29:18 16.8 C 26 %
2274 17-07-2019 22:41:18 16.4 C 27 %
2275 17-07-2019 22:53:17 16.3 C 29 %
Sensor: Nr:Datum:Temp:Feuchte:
Aussen-T/F 2276 17-07-2019 23:05:18 16.4 C 29 %
2277 17-07-2019 23:17:18 16.1 C 29 %
2278 17-07-2019 23:29:18 15.9 C 31 %
2279 17-07-2019 23:41:18 15.6 C 30 %
2280 17-07-2019 23:53:18 15.6 C 31 %
2281 18-07-2019 00:05:18 15.5 C 32 %
2282 18-07-2019 00:17:18 15.5 C 32 %
2283 18-07-2019 00:29:18 15.2 C 32 %
2284 18-07-2019 00:41:18 15.2 C 33 %
2285 18-07-2019 00:53:18 14.8 C 35 %
2286 18-07-2019 01:05:18 14.5 C 35 %
2287 18-07-2019 01:17:18 14.3 C 36 %
2288 18-07-2019 01:29:18 14 C 37 %
2289 18-07-2019 01:41:18 13.8 C 39 %
2290 18-07-2019 01:53:17 13.7 C 40 %
2291 18-07-2019 02:05:18 13.8 C 41 %
2292 18-07-2019 02:17:18 13.6 C 41 %
2293 18-07-2019 02:29:18 13.7 C 41 %
2294 18-07-2019 02:41:17 13.8 C 41 %
2295 18-07-2019 02:53:17 13.7 C 41 %
2296 18-07-2019 03:05:17 13.6 C 41 %
2297 18-07-2019 03:17:17 13.6 C 42 %
2298 18-07-2019 03:29:17 13.5 C 42 %
2299 18-07-2019 03:41:17 13.7 C 42 %
2300 18-07-2019 03:53:17 13.6 C 42 %
Sensor: Nr:Datum:Temp:Feuchte:
Aussen-T/F 2301 18-07-2019 04:05:17 13.6 C 42 %
2302 18-07-2019 04:17:17 13.4 C 42 %
2303 18-07-2019 04:29:17 13.3 C 43 %
2304 18-07-2019 04:41:17 13.1 C 43 %
2305 18-07-2019 04:53:18 12.9 C 44 %
2306 18-07-2019 05:05:17 12.8 C 45 %
2307 18-07-2019 05:17:17 12.7 C 45 %
2308 18-07-2019 05:29:17 12.5 C 45 %
2309 18-07-2019 05:41:17 12.4 C 45 %
2310 18-07-2019 05:53:18 12.4 C 45 %
2311 18-07-2019 06:05:17 12.4 C 45 %
2312 18-07-2019 06:17:17 12.4 C 46 %
2313 18-07-2019 06:29:17 12.5 C 46 %
2314 18-07-2019 06:41:17 12.7 C 46 %
2315 18-07-2019 06:53:18 12.9 C 46 %
2316 18-07-2019 07:05:17 13.3 C 46 %
2317 18-07-2019 07:17:17 13.7 C 44 %
2318 18-07-2019 07:29:18 13.8 C 42 %
2319 18-07-2019 07:41:17 14 C 41 %
2320 18-07-2019 07:53:17 14.2 C 39 %
2321 18-07-2019 08:05:18 14.5 C 37 %
2322 18-07-2019 08:17:17 14.7 C 37 %
2323 18-07-2019 08:29:17 15.1 C 35 %
2324 18-07-2019 08:41:18 15.5 C 34 %
2325 18-07-2019 08:53:17 16 C 32 %
Sensor: Nr:Datum:Temp:Feuchte:
Aussen-T/F 2326 18-07-2019 09:05:17 16.4 C 32 %
2327 18-07-2019 09:17:17 17 C 31 %
2328 18-07-2019 09:29:17 17.7 C 27 %
2329 18-07-2019 09:41:17 19 C 25 %
2330 18-07-2019 09:53:17 20.4 C 21 %
2331 18-07-2019 10:05:17 19.7 C 20 %
2332 18-07-2019 10:17:17 20 C 20 %
2333 18-07-2019 10:29:17 20.1 C 20 %
2334 18-07-2019 10:41:17 21 C 20 %
2335 18-07-2019 10:53:17 22.2 C 20 %
2336 18-07-2019 11:05:17 23.5 C 20 %
2337 18-07-2019 11:17:17 24.5 C 20 %
2338 18-07-2019 11:29:17 24.8 C 20 %
2339 18-07-2019 11:41:17 27 C 20 %
2340 18-07-2019 11:53:17 25.9 C 20 %
2341 18-07-2019 12:05:18 25.1 C 20 %
2342 18-07-2019 12:17:17 25.1 C 20 %
2343 18-07-2019 12:29:17 25.6 C 20 %
2344 18-07-2019 12:41:17 25.4 C 20 %
2345 18-07-2019 12:53:17 24.9 C 20 %
2346 18-07-2019 13:05:17 25.6 C 20 %
2347 18-07-2019 13:17:18 26.2 C 20 %
2348 18-07-2019 13:29:18 26.6 C 20 %
2349 18-07-2019 13:41:17 27 C 20 %
2350 18-07-2019 13:53:17 27.6 C 20 %
Sensor: Nr:Datum:Temp:Feuchte:
Aussen-T/F 2351 18-07-2019 14:05:18 27.9 C 20 %
2352 18-07-2019 14:17:17 28.6 C 20 %
2353 18-07-2019 14:29:17 27.6 C 20 %
2354 18-07-2019 14:41:17 27.7 C 20 %
2355 18-07-2019 14:53:18 27.4 C 20 %
2356 18-07-2019 15:05:17 26.6 C 20 %
2357 18-07-2019 15:17:17 26.1 C 20 %
2358 18-07-2019 15:29:18 25.7 C 20 %
2359 18-07-2019 15:41:17 25.4 C 20 %
2360 18-07-2019 15:53:17 25.5 C 20 %
2361 18-07-2019 16:05:17 24.1 C 20 %
2362 18-07-2019 16:17:18 24.1 C 20 %
2363 18-07-2019 16:29:18 24.4 C 20 %
2364 18-07-2019 16:41:17 24.5 C 20 %
2365 18-07-2019 16:53:17 25.2 C 20 %
2366 18-07-2019 17:05:17 25.1 C 20 %
2367 18-07-2019 17:17:17 24.8 C 20 %
2368 18-07-2019 17:29:17 25.1 C 20 %
2369 18-07-2019 17:41:18 24.5 C 20 %
2370 18-07-2019 17:53:17 24 C 20 %
2371 18-07-2019 18:05:18 24.6 C 20 %
2372 18-07-2019 18:17:18 24.9 C 20 %
2373 18-07-2019 18:29:18 23.7 C 20 %
2374 18-07-2019 18:41:17 21 C 22 %
2375 18-07-2019 18:53:18 20 C 29 %
Sensor: Nr:Datum:Temp:Feuchte:
Aussen-T/F 2376 18-07-2019 19:05:18 20.3 C 27 %
2377 18-07-2019 19:17:18 20.6 C 25 %
2378 18-07-2019 19:29:18 20.6 C 23 %
2379 18-07-2019 19:41:17 20.6 C 21 %
2380 18-07-2019 19:53:17 20.5 C 20 %
2381 18-07-2019 20:05:17 20.9 C 20 %
2382 18-07-2019 20:17:17 21.2 C 20 %
2383 18-07-2019 20:29:17 21 C 20 %
2384 18-07-2019 20:41:17 20.8 C 20 %
2385 18-07-2019 20:53:17 20.5 C 20 %
2386 18-07-2019 21:05:18 20.3 C 20 %
2387 18-07-2019 21:17:17 20 C 20 %
2388 18-07-2019 21:29:17 19.7 C 20 %
2389 18-07-2019 21:41:18 19.5 C 20 %
2390 18-07-2019 21:53:18 19.4 C 20 %
2391 18-07-2019 22:05:18 19.4 C 20 %
2392 18-07-2019 22:17:17 19.4 C 20 %
2393 18-07-2019 22:29:17 19.5 C 20 %
2394 18-07-2019 22:41:17 19.4 C 20 %
2395 18-07-2019 22:53:17 19.3 C 20 %
2396 18-07-2019 23:05:17 19.1 C 20 %
2397 18-07-2019 23:17:17 19 C 20 %
2398 18-07-2019 23:29:17 19.3 C 20 %
2399 18-07-2019 23:41:17 19.4 C 20 %
2400 18-07-2019 23:53:17 19.6 C 20 %
Sensor: Nr:Datum:Temp:Feuchte:
Aussen-T/F 2401 19-07-2019 00:05:17 19.4 C 20 %
2402 19-07-2019 00:17:17 19.1 C 20 %
2403 19-07-2019 00:29:17 18.9 C 21 %
2404 19-07-2019 00:41:17 18.8 C 23 %
2405 19-07-2019 00:53:17 18.7 C 24 %
2406 19-07-2019 01:05:18 18.6 C 25 %
2407 19-07-2019 01:17:18 17.5 C 35 %
2408 19-07-2019 01:29:18 17 C 39 %
2409 19-07-2019 01:41:18 16.7 C 42 %
2410 19-07-2019 01:53:18 16.6 C 45 %
2411 19-07-2019 02:05:18 16.5 C 45 %
2412 19-07-2019 02:17:18 16.2 C 45 %
2413 19-07-2019 02:29:18 16.4 C 46 %
2414 19-07-2019 02:41:17 16.4 C 46 %
2415 19-07-2019 02:53:18 16.4 C 46 %
2416 19-07-2019 03:05:18 16.2 C 46 %
2417 19-07-2019 03:17:18 16.2 C 46 %
2418 19-07-2019 03:29:18 16.3 C 46 %
2419 19-07-2019 03:41:18 16.3 C 46 %
2420 19-07-2019 03:53:17 16.2 C 46 %
2421 19-07-2019 04:05:18 16.2 C 45 %
2422 19-07-2019 04:17:17 16.1 C 46 %
2423 19-07-2019 04:29:17 16 C 45 %
2424 19-07-2019 04:41:18 16 C 45 %
2425 19-07-2019 04:53:17 16 C 46 %
Sensor: Nr:Datum:Temp:Feuchte:
Aussen-T/F 2426 19-07-2019 05:05:17 16 C 46 %
2427 19-07-2019 05:17:18 16 C 47 %
2428 19-07-2019 05:29:18 16 C 47 %
2429 19-07-2019 05:41:18 16 C 48 %
2430 19-07-2019 05:53:18 16.1 C 48 %
2431 19-07-2019 06:05:18 16.1 C 49 %
2432 19-07-2019 06:17:17 16 C 49 %
2433 19-07-2019 06:29:18 16 C 49 %
2434 19-07-2019 06:41:17 16.2 C 50 %
2435 19-07-2019 06:53:18 16.2 C 52 %
2436 19-07-2019 07:05:18 16.4 C 54 %
2437 19-07-2019 07:17:18 16.4 C 55 %
2438 19-07-2019 07:29:18 16.5 C 54 %
2439 19-07-2019 07:41:18 16.6 C 54 %
2440 19-07-2019 07:53:17 16.8 C 54 %
2441 19-07-2019 08:05:17 16.8 C 52 %
2442 19-07-2019 08:17:17 17 C 50 %
2443 19-07-2019 08:29:17 17.2 C 47 %
2444 19-07-2019 08:41:18 17.4 C 46 %
2445 19-07-2019 08:53:18 17.6 C 45 %
2446 19-07-2019 09:05:17 18 C 43 %
2447 19-07-2019 09:17:17 18.1 C 41 %
2448 19-07-2019 09:29:17 18.1 C 40 %
2449 19-07-2019 09:41:18 18.3 C 38 %
2450 19-07-2019 09:53:18 18.7 C 35 %
Sensor: Nr:Datum:Temp:Feuchte:
Aussen-T/F 2451 19-07-2019 10:05:17 19.1 C 35 %
2452 19-07-2019 10:17:17 19.4 C 33 %
2453 19-07-2019 10:29:17 19.8 C 32 %
2454 19-07-2019 10:41:18 20 C 30 %
2455 19-07-2019 10:53:18 20.5 C 29 %
2456 19-07-2019 11:05:17 20.4 C 30 %
2457 19-07-2019 11:17:17 20.6 C 27 %
2458 19-07-2019 11:29:17 21.6 C 26 %
2459 19-07-2019 11:41:18 22.1 C 22 %
2460 19-07-2019 11:53:17 20.7 C 28 %
2461 19-07-2019 12:05:17 19.1 C 32 %
2462 19-07-2019 12:17:17 19.2 C 35 %
2463 19-07-2019 12:29:17 19.5 C 34 %
2464 19-07-2019 12:41:18 20.7 C 30 %
2465 19-07-2019 12:53:18 21.2 C 26 %
2466 19-07-2019 13:05:17 21.4 C 25 %
2467 19-07-2019 13:17:18 22.1 C 21 %
2468 19-07-2019 13:29:18 23.2 C 20 %
2469 19-07-2019 13:41:18 23.1 C 20 %
2470 19-07-2019 13:53:17 22.5 C 20 %
2471 19-07-2019 14:05:17 22.8 C 20 %
2472 19-07-2019 14:17:18 23.2 C 20 %
2473 19-07-2019 14:29:18 24.5 C 20 %
2474 19-07-2019 14:41:17 24.9 C 20 %
2475 19-07-2019 14:53:17 25 C 20 %
Sensor: Nr:Datum:Temp:Feuchte:
Aussen-T/F 2476 19-07-2019 15:05:18 25.2 C 20 %
2477 19-07-2019 15:17:17 25.9 C 20 %
2478 19-07-2019 15:29:17 25.5 C 20 %
2479 19-07-2019 15:41:17 25.5 C 20 %
2480 19-07-2019 15:53:17 25.5 C 20 %
2481 19-07-2019 16:05:18 25.3 C 20 %
2482 19-07-2019 16:17:17 25.3 C 20 %
2483 19-07-2019 16:29:17 25.9 C 20 %
2484 19-07-2019 16:41:17 26.3 C 20 %
2485 19-07-2019 16:53:18 25.5 C 20 %
2486 19-07-2019 17:05:18 26.4 C 20 %
2487 19-07-2019 17:17:18 26.4 C 20 %
2488 19-07-2019 17:29:18 26.6 C 20 %
2489 19-07-2019 17:41:18 25.8 C 20 %
2490 19-07-2019 17:53:17 26.1 C 20 %
2491 19-07-2019 18:05:17 26.1 C 20 %
2492 19-07-2019 18:17:17 25.8 C 20 %
2493 19-07-2019 18:29:17 25.5 C 20 %
2494 19-07-2019 18:41:17 25.3 C 20 %
2495 19-07-2019 18:53:17 24.9 C 20 %
2496 19-07-2019 19:05:18 25 C 20 %
2497 19-07-2019 19:17:17 25.1 C 20 %
2498 19-07-2019 19:29:17 24.3 C 20 %
2499 19-07-2019 19:41:17 23.9 C 20 %
2500 19-07-2019 19:53:17 23.6 C 20 %
Sensor: Nr:Datum:Temp:Feuchte:
Aussen-T/F 2501 19-07-2019 20:05:17 23.4 C 20 %
2502 19-07-2019 20:17:17 23.4 C 20 %
2503 19-07-2019 20:29:17 22.6 C 20 %
2504 19-07-2019 20:41:17 21.9 C 20 %
2505 19-07-2019 20:53:17 21.5 C 20 %
2506 19-07-2019 21:05:18 20.8 C 20 %
2507 19-07-2019 21:17:18 20.3 C 20 %
2508 19-07-2019 21:29:18 20.1 C 21 %
2509 19-07-2019 21:41:18 19.4 C 25 %
2510 19-07-2019 21:53:17 19.1 C 26 %
2511 19-07-2019 22:05:17 18.9 C 27 %
2512 19-07-2019 22:17:17 18.7 C 28 %
2513 19-07-2019 22:29:17 18.6 C 29 %
2514 19-07-2019 22:41:17 18.8 C 30 %
2515 19-07-2019 22:53:17 18.6 C 30 %
2516 19-07-2019 23:05:18 18.5 C 29 %
2517 19-07-2019 23:17:17 18.3 C 30 %
2518 19-07-2019 23:29:17 18.1 C 31 %
2519 19-07-2019 23:41:18 17.9 C 32 %
2520 19-07-2019 23:53:17 17.8 C 32 %
2521 20-07-2019 00:05:18 17.5 C 34 %
2522 20-07-2019 00:17:17 17.2 C 34 %
2523 20-07-2019 00:29:17 17 C 35 %
2524 20-07-2019 00:41:17 16.8 C 35 %
2525 20-07-2019 00:53:18 16.5 C 36 %
Sensor: Nr:Datum:Temp:Feuchte:
Aussen-T/F 2526 20-07-2019 01:05:18 16.4 C 37 %
2527 20-07-2019 01:17:18 16.2 C 38 %
2528 20-07-2019 01:29:18 16 C 38 %
2529 20-07-2019 01:41:18 16 C 39 %
2530 20-07-2019 01:53:18 15.9 C 40 %
2531 20-07-2019 02:05:18 15.7 C 40 %
2532 20-07-2019 02:17:17 15.5 C 41 %
2533 20-07-2019 02:29:17 15.3 C 41 %
2534 20-07-2019 02:41:18 15.1 C 42 %
2535 20-07-2019 02:53:18 15 C 42 %
2536 20-07-2019 03:05:18 14.8 C 43 %
2537 20-07-2019 03:17:17 14.8 C 44 %
2538 20-07-2019 03:29:17 14.7 C 45 %
2539 20-07-2019 03:41:17 14.6 C 45 %
2540 20-07-2019 03:53:17 14.5 C 45 %
2541 20-07-2019 04:05:18 14.4 C 45 %
2542 20-07-2019 04:17:17 14.4 C 45 %
2543 20-07-2019 04:29:17 14.2 C 45 %
2544 20-07-2019 04:41:18 14.2 C 45 %
2545 20-07-2019 04:53:18 14.1 C 46 %
2546 20-07-2019 05:05:17 14 C 46 %
2547 20-07-2019 05:17:17 13.9 C 46 %
2548 20-07-2019 05:29:17 14 C 46 %
2549 20-07-2019 05:41:17 13.9 C 47 %
2550 20-07-2019 05:53:17 13.9 C 47 %
Sensor: Nr:Datum:Temp:Feuchte:
Aussen-T/F 2551 20-07-2019 06:05:17 13.9 C 47 %
2552 20-07-2019 06:17:17 13.9 C 47 %
2553 20-07-2019 06:29:17 14 C 47 %
2554 20-07-2019 06:41:17 14 C 47 %
2555 20-07-2019 06:53:17 14.2 C 47 %
2556 20-07-2019 07:05:18 14.3 C 47 %
2557 20-07-2019 07:17:18 14.3 C 47 %
2558 20-07-2019 07:29:18 14.7 C 47 %
2559 20-07-2019 07:41:17 14.8 C 47 %
2560 20-07-2019 07:53:17 15 C 46 %
2561 20-07-2019 08:05:18 15.5 C 47 %
2562 20-07-2019 08:17:18 16 C 46 %
2563 20-07-2019 08:29:18 16.3 C 46 %
2564 20-07-2019 08:41:18 16.8 C 45 %
2565 20-07-2019 08:53:18 17.2 C 42 %
2566 20-07-2019 09:05:18 17.5 C 40 %
2567 20-07-2019 09:17:17 18.3 C 36 %
2568 20-07-2019 09:29:17 19.3 C 32 %
2569 20-07-2019 09:41:18 22.5 C 25 %
2570 20-07-2019 09:53:17 22 C 24 %
2571 20-07-2019 10:05:18 22.1 C 25 %
2572 20-07-2019 10:17:18 22.9 C 23 %
2573 20-07-2019 10:29:18 22.9 C 25 %
2574 20-07-2019 10:41:18 23.1 C 25 %
2575 20-07-2019 10:53:18 24.5 C 22 %
Sensor: Nr:Datum:Temp:Feuchte:
Aussen-T/F 2576 20-07-2019 11:05:18 26.3 C 20 %
2577 20-07-2019 11:17:18 28 C 20 %
2578 20-07-2019 11:29:18 28.9 C 20 %
2579 20-07-2019 11:41:18 28.8 C 20 %
2580 20-07-2019 11:53:17 28.3 C 20 %
2581 20-07-2019 12:05:17 28.1 C 20 %
2582 20-07-2019 12:17:17 28.2 C 20 %
2583 20-07-2019 12:29:17 28.1 C 20 %
2584 20-07-2019 12:41:17 28 C 20 %
2585 20-07-2019 12:53:17 28.2 C 20 %
2586 20-07-2019 13:05:17 28.5 C 20 %
2587 20-07-2019 13:17:17 28.4 C 20 %
2588 20-07-2019 13:29:17 28.2 C 20 %
2589 20-07-2019 13:41:18 28.7 C 20 %
2590 20-07-2019 13:53:18 29.1 C 20 %
2591 20-07-2019 14:05:18 29.9 C 20 %
2592 20-07-2019 14:17:18 30.4 C 20 %
2593 20-07-2019 14:29:18 30.4 C 20 %
2594 20-07-2019 14:41:18 31.6 C 20 %
2595 20-07-2019 14:53:18 32.3 C 20 %
2596 20-07-2019 15:05:18 32.1 C 20 %
2597 20-07-2019 15:17:18 32.1 C 20 %
2598 20-07-2019 15:29:18 31.5 C 20 %
2599 20-07-2019 15:41:18 31 C 20 %
2600 20-07-2019 15:53:17 30.2 C 20 %
Sensor: Nr:Datum:Temp:Feuchte:
Aussen-T/F 2601 20-07-2019 16:05:18 30.8 C 20 %
2602 20-07-2019 16:17:17 30.2 C 20 %
2603 20-07-2019 16:29:17 24.4 C 30 %
2604 20-07-2019 16:41:17 26.2 C 27 %
2605 20-07-2019 16:53:18 25.1 C 26 %
2606 20-07-2019 17:05:18 26.3 C 22 %
2607 20-07-2019 17:17:17 28.7 C 20 %
2608 20-07-2019 17:29:17 28.3 C 20 %
2609 20-07-2019 17:41:18 29 C 20 %
2610 20-07-2019 17:53:18 29 C 20 %
2611 20-07-2019 18:05:18 29.2 C 20 %
2612 20-07-2019 18:17:17 29.1 C 20 %
2613 20-07-2019 18:29:17 29.3 C 20 %
2614 20-07-2019 18:41:17 29.3 C 20 %
2615 20-07-2019 18:53:17 29.5 C 20 %
2616 20-07-2019 19:05:17 29.4 C 20 %
2617 20-07-2019 19:17:18 29.5 C 20 %
2618 20-07-2019 19:29:18 27.4 C 20 %
2619 20-07-2019 19:41:18 25.2 C 20 %
2620 20-07-2019 19:53:17 24.4 C 20 %
2621 20-07-2019 20:05:18 24.3 C 20 %
2622 20-07-2019 20:17:18 23.9 C 20 %
2623 20-07-2019 20:29:18 23.6 C 20 %
2624 20-07-2019 20:41:18 23.5 C 20 %
2625 20-07-2019 20:53:17 22.9 C 20 %
Sensor: Nr:Datum:Temp:Feuchte:
Aussen-T/F 2626 20-07-2019 21:05:18 22.3 C 20 %
2627 20-07-2019 21:17:18 21.6 C 21 %
2628 20-07-2019 21:29:18 21.5 C 21 %
2629 20-07-2019 21:41:18 21.3 C 22 %
2630 20-07-2019 21:53:17 21.2 C 23 %
2631 20-07-2019 22:05:18 20.8 C 25 %
2632 20-07-2019 22:17:18 20.6 C 25 %
2633 20-07-2019 22:29:18 20.4 C 26 %
2634 20-07-2019 22:41:18 20 C 27 %
2635 20-07-2019 22:53:17 20 C 28 %
2636 20-07-2019 23:05:17 20 C 28 %
2637 20-07-2019 23:17:17 19.6 C 30 %
2638 20-07-2019 23:29:18 19.4 C 30 %
2639 20-07-2019 23:41:18 19.5 C 31 %
2640 20-07-2019 23:53:18 19.5 C 31 %
2641 21-07-2019 00:05:18 19.3 C 32 %
2642 21-07-2019 00:17:18 18.9 C 32 %
2643 21-07-2019 00:29:18 18.9 C 33 %
2644 21-07-2019 00:41:18 18.7 C 34 %
2645 21-07-2019 00:53:17 18.7 C 35 %
2646 21-07-2019 01:05:18 18.5 C 36 %
2647 21-07-2019 01:17:18 18.5 C 36 %
2648 21-07-2019 01:29:18 18.2 C 36 %
2649 21-07-2019 01:41:18 18.3 C 37 %
2650 21-07-2019 01:53:17 18.8 C 36 %
Sensor: Nr:Datum:Temp:Feuchte:
Aussen-T/F 2651 21-07-2019 02:05:18 19.1 C 34 %
2652 21-07-2019 02:17:18 19.1 C 33 %
2653 21-07-2019 02:29:18 18.8 C 34 %
2654 21-07-2019 02:41:17 18.7 C 35 %
2655 21-07-2019 02:53:17 18.7 C 36 %
2656 21-07-2019 03:05:17 18.7 C 36 %
2657 21-07-2019 03:17:17 18.7 C 37 %
2658 21-07-2019 03:29:17 18.7 C 37 %
2659 21-07-2019 03:41:18 18.5 C 37 %
2660 21-07-2019 03:53:18 18.2 C 37 %
2661 21-07-2019 04:05:18 17.9 C 38 %
2662 21-07-2019 04:17:17 17.6 C 39 %
2663 21-07-2019 04:29:17 17.6 C 40 %
2664 21-07-2019 04:41:17 17.4 C 40 %
2665 21-07-2019 04:53:18 17.3 C 40 %
2666 21-07-2019 05:05:17 17.1 C 41 %
2667 21-07-2019 05:17:17 17.2 C 41 %
2668 21-07-2019 05:29:17 17.3 C 41 %
2669 21-07-2019 05:41:18 17.5 C 41 %
2670 21-07-2019 05:53:17 17.8 C 40 %
2671 21-07-2019 06:05:18 17.8 C 40 %
2672 21-07-2019 06:17:17 17.9 C 40 %
2673 21-07-2019 06:29:17 18.1 C 38 %
2674 21-07-2019 06:41:18 18.2 C 37 %
2675 21-07-2019 06:53:18 18.4 C 35 %
Sensor: Nr:Datum:Temp:Feuchte:
Aussen-T/F 2676 21-07-2019 07:05:18 18.6 C 35 %
2677 21-07-2019 07:17:17 18.8 C 34 %
2678 21-07-2019 07:29:17 19 C 33 %
2679 21-07-2019 07:41:18 19.2 C 33 %
2680 21-07-2019 07:53:18 19.4 C 30 %
2681 21-07-2019 08:05:18 19.6 C 25 %
2682 21-07-2019 08:17:18 19.4 C 24 %
2683 21-07-2019 08:29:18 19.5 C 23 %
2684 21-07-2019 08:41:18 19.5 C 25 %
2685 21-07-2019 08:53:18 19.6 C 25 %
2686 21-07-2019 09:05:18 20.3 C 22 %
2687 21-07-2019 09:17:18 20.5 C 20 %
2688 21-07-2019 09:29:18 21.2 C 20 %
2689 21-07-2019 09:41:18 23.4 C 20 %
2690 21-07-2019 09:53:17 22.6 C 20 %
2691 21-07-2019 10:05:18 22.1 C 20 %
2692 21-07-2019 10:17:17 22.5 C 20 %
2693 21-07-2019 10:29:17 22.7 C 20 %
2694 21-07-2019 10:41:18 23.4 C 20 %
2695 21-07-2019 10:53:17 24.4 C 20 %
2696 21-07-2019 11:05:17 25.5 C 20 %
2697 21-07-2019 11:17:17 26.1 C 20 %
2698 21-07-2019 11:29:17 26.4 C 20 %
2699 21-07-2019 11:41:18 28.3 C 20 %
2700 21-07-2019 11:53:18 26.7 C 20 %
Sensor: Nr:Datum:Temp:Feuchte:
Aussen-T/F 2701 21-07-2019 12:05:17 25.9 C 20 %
2702 21-07-2019 12:17:17 25.9 C 20 %
2703 21-07-2019 12:29:17 26.2 C 20 %
2704 21-07-2019 12:41:17 25.8 C 20 %
2705 21-07-2019 12:53:17 25.8 C 20 %
2706 21-07-2019 13:05:18 25.5 C 20 %
2707 21-07-2019 13:17:18 25.4 C 20 %
2708 21-07-2019 13:29:18 25.5 C 20 %
2709 21-07-2019 13:41:17 26 C 20 %
2710 21-07-2019 13:53:17 26.2 C 20 %
2711 21-07-2019 14:05:18 26.3 C 20 %
2712 21-07-2019 14:17:18 27 C 20 %
2713 21-07-2019 14:29:18 27.2 C 20 %
2714 21-07-2019 14:41:18 27.3 C 20 %
2715 21-07-2019 14:53:17 27.2 C 20 %
2716 21-07-2019 15:05:17 28 C 20 %
2717 21-07-2019 15:17:17 28.2 C 20 %
2718 21-07-2019 15:29:17 28.1 C 20 %
2719 21-07-2019 15:41:18 27.5 C 20 %
2720 21-07-2019 15:53:18 28.1 C 20 %
2721 21-07-2019 16:05:17 27.9 C 20 %
2722 21-07-2019 16:17:17 28.5 C 20 %
2723 21-07-2019 16:29:17 28.7 C 20 %
2724 21-07-2019 16:41:18 28.6 C 20 %
2725 21-07-2019 16:53:17 28.7 C 20 %
Sensor: Nr:Datum:Temp:Feuchte:
Aussen-T/F 2726 21-07-2019 17:05:18 28.3 C 20 %
2727 21-07-2019 17:17:18 27.6 C 20 %
2728 21-07-2019 17:29:18 27.7 C 20 %
2729 21-07-2019 17:41:18 27 C 20 %
2730 21-07-2019 17:53:18 27.7 C 20 %
2731 21-07-2019 18:05:17 27.4 C 20 %
2732 21-07-2019 18:17:17 26.8 C 20 %
2733 21-07-2019 18:29:17 26.7 C 20 %
2734 21-07-2019 18:41:17 26.5 C 20 %
2735 21-07-2019 18:53:17 26.7 C 20 %
2736 21-07-2019 19:05:17 26.6 C 20 %
2737 21-07-2019 19:17:17 26 C 20 %
2738 21-07-2019 19:29:17 25.7 C 20 %
2739 21-07-2019 19:41:17 25.3 C 20 %
2740 21-07-2019 19:53:18 25.1 C 20 %
2741 21-07-2019 20:05:17 24.9 C 20 %
2742 21-07-2019 20:17:17 24.7 C 20 %
2743 21-07-2019 20:29:17 24.9 C 20 %
2744 21-07-2019 20:41:18 24.8 C 20 %
2745 21-07-2019 20:53:18 24.6 C 20 %
2746 21-07-2019 21:05:18 24.1 C 20 %
2747 21-07-2019 21:17:17 22.5 C 20 %
2748 21-07-2019 21:29:17 21.3 C 20 %
2749 21-07-2019 21:41:17 20.9 C 20 %
2750 21-07-2019 21:53:18 20.3 C 20 %
Sensor: Nr:Datum:Temp:Feuchte:
Aussen-T/F 2751 21-07-2019 22:05:18 19.8 C 20 %
2752 21-07-2019 22:17:18 19.5 C 20 %
2753 21-07-2019 22:29:18 19.5 C 20 %
2754 21-07-2019 22:41:17 19.3 C 20 %
2755 21-07-2019 22:53:18 18.8 C 20 %
2756 21-07-2019 23:05:17 18.9 C 21 %
2757 21-07-2019 23:17:17 18.3 C 25 %
2758 21-07-2019 23:29:17 18 C 25 %
2759 21-07-2019 23:41:17 17.8 C 26 %
2760 21-07-2019 23:53:17 17.5 C 26 %
2761 22-07-2019 00:05:17 17.3 C 26 %
2762 22-07-2019 00:17:17 17 C 27 %
2763 22-07-2019 00:29:17 16.8 C 28 %
2764 22-07-2019 00:41:17 16.8 C 28 %
2765 22-07-2019 00:53:18 16.5 C 30 %
2766 22-07-2019 01:05:17 16.3 C 30 %
2767 22-07-2019 01:17:17 16.2 C 31 %
2768 22-07-2019 01:29:17 16.1 C 32 %
2769 22-07-2019 01:41:18 16 C 33 %
2770 22-07-2019 01:53:17 15.7 C 34 %
2771 22-07-2019 02:05:18 15.7 C 36 %
2772 22-07-2019 02:17:18 15.6 C 36 %
2773 22-07-2019 02:29:18 15.7 C 37 %
2774 22-07-2019 02:41:18 15.6 C 37 %
2775 22-07-2019 02:53:17 15.6 C 36 %
Sensor: Nr:Datum:Temp:Feuchte:
Aussen-T/F 2776 22-07-2019 03:05:18 15.7 C 37 %
2777 22-07-2019 03:17:17 15.7 C 37 %
2778 22-07-2019 03:29:18 15.5 C 37 %
2779 22-07-2019 03:41:18 15.1 C 37 %
2780 22-07-2019 03:53:17 15 C 38 %
2781 22-07-2019 04:05:18 14.9 C 39 %
2782 22-07-2019 04:17:17 14.8 C 40 %
2783 22-07-2019 04:29:17 14.6 C 40 %
2784 22-07-2019 04:41:18 14.5 C 41 %
2785 22-07-2019 04:53:17 14.5 C 41 %
2786 22-07-2019 05:05:17 14.3 C 40 %
2787 22-07-2019 05:17:17 14.4 C 41 %
2788 22-07-2019 05:29:17 14.3 C 41 %
2789 22-07-2019 05:41:17 14.2 C 41 %
2790 22-07-2019 05:53:18 14.2 C 41 %
2791 22-07-2019 06:05:18 14.3 C 42 %
2792 22-07-2019 06:17:18 14.2 C 41 %
2793 22-07-2019 06:29:18 14.1 C 42 %
2794 22-07-2019 06:41:18 14.2 C 42 %
2795 22-07-2019 06:53:17 14.5 C 43 %
2796 22-07-2019 07:05:17 14.5 C 42 %
2797 22-07-2019 07:17:17 14.8 C 42 %
2798 22-07-2019 07:29:17 15.4 C 41 %
2799 22-07-2019 07:41:17 15.6 C 40 %
2800 22-07-2019 07:53:18 15.8 C 36 %
Sensor: Nr:Datum:Temp:Feuchte:
Aussen-T/F 2801 22-07-2019 08:05:18 16.1 C 35 %
2802 22-07-2019 08:17:18 16.6 C 33 %
2803 22-07-2019 08:29:18 17.1 C 30 %
2804 22-07-2019 08:41:18 17.7 C 28 %
2805 22-07-2019 08:53:17 17.9 C 28 %
2806 22-07-2019 09:05:17 18.1 C 27 %
2807 22-07-2019 09:17:17 18.5 C 27 %
2808 22-07-2019 09:29:18 19.5 C 23 %
2809 22-07-2019 09:41:17 22.6 C 20 %
2810 22-07-2019 09:53:17 21.2 C 20 %
2811 22-07-2019 10:05:18 21.3 C 20 %
2812 22-07-2019 10:17:17 21.7 C 20 %
2813 22-07-2019 10:29:17 21.9 C 20 %
2814 22-07-2019 10:41:18 22.5 C 20 %
2815 22-07-2019 10:53:18 24.1 C 20 %
2816 22-07-2019 11:05:18 25.2 C 20 %
2817 22-07-2019 11:17:17 25.5 C 20 %
2818 22-07-2019 11:29:17 26.6 C 20 %
2819 22-07-2019 11:41:18 28.8 C 20 %
2820 22-07-2019 11:53:18 27.9 C 20 %
2821 22-07-2019 12:05:17 26.6 C 20 %
2822 22-07-2019 12:17:18 26.3 C 20 %
2823 22-07-2019 12:29:18 26.4 C 20 %
2824 22-07-2019 12:41:17 26.7 C 20 %
2825 22-07-2019 12:53:17 26.8 C 20 %
Sensor: Nr:Datum:Temp:Feuchte:
Aussen-T/F 2826 22-07-2019 13:05:18 26.5 C 20 %
2827 22-07-2019 13:29:17 26.8 C 20 %
2828 22-07-2019 13:29:17 27 C 20 %
2829 22-07-2019 13:41:17 27.3 C 20 %
2830 22-07-2019 13:53:17 27.9 C 20 %
2831 22-07-2019 14:05:18 28.2 C 20 %
2832 22-07-2019 14:29:17 28.7 C 20 %
2833 22-07-2019 14:29:17 28.7 C 20 %
2834 22-07-2019 14:41:17 29.4 C 20 %
2835 22-07-2019 14:53:17 29.5 C 20 %
2836 22-07-2019 15:05:18 29.7 C 20 %
2837 22-07-2019 15:29:17 30.3 C 20 %
2838 22-07-2019 15:29:18 30.2 C 20 %
2839 22-07-2019 15:41:18 30.1 C 20 %
2840 22-07-2019 15:54:17 30.6 C 20 %
2841 22-07-2019 16:05:17 30.8 C 20 %
2842 22-07-2019 16:17:18 31.5 C 20 %
2843 22-07-2019 16:29:18 31.5 C 20 %
2844 22-07-2019 16:41:18 31.3 C 20 %
2845 22-07-2019 16:54:17 31.7 C 20 %
2846 22-07-2019 17:05:17 31.8 C 20 %
2847 22-07-2019 17:17:18 31.1 C 20 %
2848 22-07-2019 17:29:18 31.8 C 20 %
2849 22-07-2019 17:41:18 32.1 C 20 %
2850 22-07-2019 17:53:18 32.1 C 20 %
Sensor: Nr:Datum:Temp:Feuchte:
Aussen-T/F 2851 22-07-2019 18:06:17 32.1 C 20 %
2852 22-07-2019 18:18:17 32.8 C 20 %
2853 22-07-2019 18:29:18 32.8 C 20 %
2854 22-07-2019 18:41:18 33 C 20 %
2855 22-07-2019 18:53:17 32.1 C 20 %
2856 22-07-2019 19:05:18 32.2 C 20 %
2857 22-07-2019 19:17:18 32.2 C 20 %
2858 22-07-2019 19:29:18 31.4 C 20 %
2859 22-07-2019 19:41:18 30.6 C 20 %
2860 22-07-2019 19:53:17 30.1 C 20 %
2861 22-07-2019 20:05:18 29.8 C 20 %
2862 22-07-2019 20:17:18 29.7 C 20 %
2863 22-07-2019 20:29:18 29.3 C 20 %
2864 22-07-2019 20:41:18 28.8 C 20 %
2865 22-07-2019 20:54:17 28.2 C 20 %
2866 22-07-2019 21:05:18 26.9 C 20 %
2867 22-07-2019 21:18:17 25.4 C 20 %
2868 22-07-2019 21:29:18 25.4 C 20 %
2869 22-07-2019 21:41:18 23.8 C 20 %
2870 22-07-2019 21:53:18 23.6 C 20 %
2871 22-07-2019 22:05:18 23.2 C 20 %
2872 22-07-2019 22:17:18 22.7 C 20 %
2873 22-07-2019 22:29:18 22.3 C 20 %
2874 22-07-2019 22:41:18 21.9 C 20 %
2875 22-07-2019 22:54:17 21.7 C 20 %
Sensor: Nr:Datum:Temp:Feuchte:
Aussen-T/F 2876 22-07-2019 23:06:17 21.4 C 20 %
2877 22-07-2019 23:18:17 20.9 C 20 %
2878 22-07-2019 23:30:17 20.3 C 20 %
2879 22-07-2019 23:42:17 20.1 C 20 %
2880 22-07-2019 23:54:17 19.8 C 20 %
2881 23-07-2019 00:05:18 19.5 C 21 %
2882 23-07-2019 00:29:18 19.4 C 22 %
2883 23-07-2019 00:29:18 19.1 C 22 %
2884 23-07-2019 00:41:18 19 C 23 %
2885 23-07-2019 00:54:17 18.8 C 25 %
2886 23-07-2019 01:06:18 18.7 C 25 %
2887 23-07-2019 01:18:18 18.5 C 26 %
2888 23-07-2019 01:29:18 18.2 C 27 %
2889 23-07-2019 01:41:18 18 C 27 %
2890 23-07-2019 01:54:17 17.9 C 28 %
2891 23-07-2019 02:06:18 17.8 C 30 %
2892 23-07-2019 02:18:17 17.6 C 30 %
2893 23-07-2019 02:30:17 17.4 C 30 %
2894 23-07-2019 02:42:17 17.2 C 31 %
2895 23-07-2019 02:54:17 17.2 C 32 %
2896 23-07-2019 03:06:17 16.9 C 32 %
2897 23-07-2019 03:18:17 17 C 33 %
2898 23-07-2019 03:30:17 16.8 C 33 %
2899 23-07-2019 03:42:17 16.6 C 34 %
2900 23-07-2019 03:54:17 16.6 C 35 %
Sensor: Nr:Datum:Temp:Feuchte:
Aussen-T/F 2901 23-07-2019 04:06:17 16.5 C 36 %
2902 23-07-2019 04:18:18 16.2 C 36 %
2903 23-07-2019 04:30:18 16.2 C 36 %
2904 23-07-2019 04:42:18 16.2 C 37 %
2905 23-07-2019 04:54:17 16.1 C 38 %
2906 23-07-2019 05:06:17 16 C 38 %
2907 23-07-2019 05:18:18 15.9 C 39 %
2908 23-07-2019 05:30:18 15.9 C 40 %
2909 23-07-2019 05:42:18 15.6 C 40 %
2910 23-07-2019 05:54:17 15.7 C 40 %
2911 23-07-2019 06:06:18 15.6 C 41 %
2912 23-07-2019 06:18:18 15.7 C 41 %
2913 23-07-2019 06:30:18 15.8 C 41 %
2914 23-07-2019 06:42:18 15.8 C 40 %
2915 23-07-2019 06:54:18 16.1 C 40 %
2916 23-07-2019 07:06:18 16.3 C 40 %
2917 23-07-2019 07:18:17 16.3 C 39 %
2918 23-07-2019 07:30:18 16.4 C 39 %
2919 23-07-2019 07:42:18 16.4 C 39 %
2920 23-07-2019 07:54:18 16.6 C 39 %
2921 23-07-2019 08:06:18 16.7 C 38 %
2922 23-07-2019 08:18:17 16.8 C 39 %
2923 23-07-2019 08:30:18 17.1 C 38 %
2924 23-07-2019 08:42:18 17.2 C 37 %
2925 23-07-2019 08:54:17 17.7 C 36 %
Sensor: Nr:Datum:Temp:Feuchte:
Aussen-T/F 2926 23-07-2019 09:06:17 18.4 C 33 %
2927 23-07-2019 09:18:17 18.9 C 31 %
2928 23-07-2019 09:30:17 20 C 27 %
2929 23-07-2019 09:42:17 23.8 C 20 %
2930 23-07-2019 09:54:17 22.2 C 20 %
2931 23-07-2019 10:06:18 22.2 C 20 %
2932 23-07-2019 10:18:17 22.9 C 20 %
2933 23-07-2019 10:30:18 23.6 C 20 %
2934 23-07-2019 10:42:18 25.1 C 20 %
2935 23-07-2019 10:54:17 27 C 20 %
2936 23-07-2019 11:06:17 28.6 C 20 %
2937 23-07-2019 11:18:18 29.3 C 20 %
2938 23-07-2019 11:30:17 30.5 C 20 %
2939 23-07-2019 11:42:17 31.7 C 20 %
2940 23-07-2019 11:54:18 31.6 C 20 %
2941 23-07-2019 12:06:18 30.4 C 20 %
2942 23-07-2019 12:18:17 30.1 C 20 %
2943 23-07-2019 12:30:17 30.4 C 20 %
2944 23-07-2019 12:42:18 30.4 C 20 %
2945 23-07-2019 12:54:18 30.5 C 20 %
2946 23-07-2019 13:06:18 30.7 C 20 %
2947 23-07-2019 13:18:17 30.9 C 20 %
2948 23-07-2019 13:30:18 31.2 C 20 %
2949 23-07-2019 13:42:18 31.5 C 20 %
2950 23-07-2019 13:54:18 31.6 C 20 %
Sensor: Nr:Datum:Temp:Feuchte:
Aussen-T/F 2951 23-07-2019 14:06:17 31.7 C 20 %
2952 23-07-2019 14:18:18 32.7 C 20 %
2953 23-07-2019 14:30:18 33.1 C 20 %
2954 23-07-2019 14:42:18 33.6 C 20 %
2955 23-07-2019 14:54:17 33.8 C 20 %
2956 23-07-2019 15:06:17 34.6 C 20 %
2957 23-07-2019 15:18:18 34.7 C 20 %
2958 23-07-2019 15:30:17 35 C 20 %
2959 23-07-2019 15:42:17 35.5 C 20 %
2960 23-07-2019 15:54:17 35.5 C 20 %
2961 23-07-2019 16:06:17 35.7 C 20 %
2962 23-07-2019 16:18:17 36 C 20 %
2963 23-07-2019 16:30:18 36.2 C 20 %
2964 23-07-2019 16:42:18 36.4 C 20 %
2965 23-07-2019 16:54:18 36.4 C 20 %
2966 23-07-2019 17:06:17 36.6 C 20 %
2967 23-07-2019 17:18:17 36 C 20 %
2968 23-07-2019 17:30:17 36.7 C 20 %
2969 23-07-2019 17:42:17 37.2 C 20 %
2970 23-07-2019 17:54:18 36.8 C 20 %
2971 23-07-2019 18:06:18 37.3 C 20 %
2972 23-07-2019 18:18:17 37.3 C 20 %
2973 23-07-2019 18:30:17 37.3 C 20 %
2974 23-07-2019 18:42:17 37.3 C 20 %
2975 23-07-2019 18:54:17 36.8 C 20 %
Sensor: Nr:Datum:Temp:Feuchte:
Aussen-T/F 2976 23-07-2019 19:06:18 36.7 C 20 %
2977 23-07-2019 19:18:18 36.2 C 20 %
2978 23-07-2019 19:30:18 35.3 C 20 %
2979 23-07-2019 19:42:18 34.8 C 20 %
2980 23-07-2019 19:54:17 34.2 C 20 %
2981 23-07-2019 20:06:18 33.6 C 20 %
2982 23-07-2019 20:18:17 32.7 C 20 %
2983 23-07-2019 20:30:17 31.6 C 20 %
2984 23-07-2019 20:42:17 30 C 20 %
2985 23-07-2019 20:54:18 29 C 20 %
2986 23-07-2019 21:06:17 27.4 C 20 %
2987 23-07-2019 21:18:17 26.4 C 20 %
2988 23-07-2019 21:30:17 26.4 C 20 %
2989 23-07-2019 21:42:17 26 C 20 %
2990 23-07-2019 21:54:17 25.8 C 20 %
2991 23-07-2019 22:06:17 25.6 C 20 %
2992 23-07-2019 22:18:17 25.3 C 20 %
2993 23-07-2019 22:30:18 24.4 C 20 %
2994 23-07-2019 22:42:18 24.1 C 20 %
2995 23-07-2019 22:54:18 23.8 C 20 %
2996 23-07-2019 23:06:18 23.1 C 20 %
2997 23-07-2019 23:18:17 22.8 C 20 %
2998 23-07-2019 23:30:17 22.7 C 20 %
2999 23-07-2019 23:42:17 22.3 C 20 %
3000 23-07-2019 23:54:17 22 C 20 %
Sensor: Nr:Datum:Temp:Feuchte:
Aussen-T/F 3001 24-07-2019 00:06:18 21.6 C 20 %
3002 24-07-2019 00:18:18 21.4 C 20 %
3003 24-07-2019 00:30:18 21.3 C 20 %
3004 24-07-2019 00:42:18 21.2 C 20 %
3005 24-07-2019 00:54:17 20.7 C 20 %
3006 24-07-2019 01:06:18 20.6 C 21 %
3007 24-07-2019 01:18:17 20.6 C 22 %
3008 24-07-2019 01:30:18 20 C 24 %
3009 24-07-2019 01:42:18 19.7 C 25 %
3010 24-07-2019 01:54:17 19.5 C 25 %
3011 24-07-2019 02:06:18 19.5 C 25 %
3012 24-07-2019 02:18:18 19.3 C 25 %
3013 24-07-2019 02:30:17 19.3 C 27 %
3014 24-07-2019 02:42:17 19 C 26 %
3015 24-07-2019 02:54:18 18.8 C 28 %
3016 24-07-2019 03:06:18 19 C 27 %
3017 24-07-2019 03:18:18 18.6 C 28 %
3018 24-07-2019 03:30:18 18.3 C 30 %
3019 24-07-2019 03:42:18 18.3 C 30 %
3020 24-07-2019 03:54:18 18.2 C 31 %
3021 24-07-2019 04:06:18 17.9 C 32 %
3022 24-07-2019 04:18:18 17.9 C 33 %
3023 24-07-2019 04:30:18 17.7 C 33 %
3024 24-07-2019 04:42:18 17.6 C 34 %
3025 24-07-2019 04:54:18 17.5 C 35 %
Sensor: Nr:Datum:Temp:Feuchte:
Aussen-T/F 3026 24-07-2019 05:06:17 17.2 C 35 %
3027 24-07-2019 05:18:18 17.2 C 36 %
3028 24-07-2019 05:30:18 17.2 C 36 %
3029 24-07-2019 05:42:18 17.1 C 36 %
3030 24-07-2019 05:54:17 17.1 C 36 %
3031 24-07-2019 06:06:18 17.2 C 37 %
3032 24-07-2019 06:18:17 17.1 C 36 %
3033 24-07-2019 06:30:18 17.2 C 37 %
3034 24-07-2019 06:42:18 17.1 C 37 %
3035 24-07-2019 06:54:18 17.1 C 37 %
3036 24-07-2019 07:06:18 17.2 C 38 %
3037 24-07-2019 07:18:18 17.4 C 38 %
3038 24-07-2019 07:30:17 17.6 C 37 %
3039 24-07-2019 07:42:17 17.8 C 37 %
3040 24-07-2019 07:54:17 18 C 36 %
3041 24-07-2019 08:06:18 18.1 C 36 %
3042 24-07-2019 08:18:17 18.3 C 36 %
3043 24-07-2019 08:30:18 18.6 C 35 %
3044 24-07-2019 08:42:18 19 C 35 %
3045 24-07-2019 08:54:18 19.5 C 33 %
3046 24-07-2019 09:06:17 19.9 C 32 %
3047 24-07-2019 09:18:17 20.4 C 30 %
3048 24-07-2019 09:30:18 21.3 C 26 %
3049 24-07-2019 09:42:18 24.2 C 20 %
3050 24-07-2019 09:54:17 23.7 C 20 %
Sensor: Nr:Datum:Temp:Feuchte:
Aussen-T/F 3051 24-07-2019 10:06:17 23.6 C 20 %
3052 24-07-2019 10:18:17 24.1 C 20 %
3053 24-07-2019 10:30:18 24.7 C 20 %
3054 24-07-2019 10:42:18 25 C 20 %
3055 24-07-2019 10:54:17 26.6 C 20 %
3056 24-07-2019 11:06:18 27.5 C 20 %
3057 24-07-2019 11:18:17 29.1 C 20 %
3058 24-07-2019 11:30:18 29.9 C 20 %
3059 24-07-2019 11:42:18 34.2 C 20 %
3060 24-07-2019 11:54:18 33.7 C 20 %
3061 24-07-2019 12:06:18 32.4 C 20 %
3062 24-07-2019 12:18:17 33 C 20 %
3063 24-07-2019 12:30:18 32.9 C 20 %
3064 24-07-2019 12:42:18 33.4 C 20 %
3065 24-07-2019 12:54:18 33.8 C 20 %
3066 24-07-2019 13:06:17 33.6 C 20 %
3067 24-07-2019 13:18:17 33.6 C 20 %
3068 24-07-2019 13:30:18 34 C 20 %
3069 24-07-2019 13:42:18 34 C 20 %
3070 24-07-2019 13:54:17 34.3 C 20 %
3071 24-07-2019 14:06:17 34.7 C 20 %
3072 24-07-2019 14:18:17 35 C 20 %
3073 24-07-2019 14:30:17 35.8 C 20 %
3074 24-07-2019 14:42:17 36.7 C 20 %
3075 24-07-2019 14:54:17 37.1 C 20 %
Sensor: Nr:Datum:Temp:Feuchte:
Aussen-T/F 3076 24-07-2019 15:06:18 37.2 C 20 %
3077 24-07-2019 15:18:18 37.7 C 20 %
3078 24-07-2019 15:30:18 38.7 C 20 %
3079 24-07-2019 15:42:18 38.6 C 20 %
3080 24-07-2019 15:54:17 39 C 20 %
3081 24-07-2019 16:06:18 39.6 C 20 %
3082 24-07-2019 16:18:17 39.3 C 20 %
3083 24-07-2019 16:30:18 39.8 C 20 %
3084 24-07-2019 16:42:18 39.5 C 20 %
3085 24-07-2019 16:54:18 39.7 C 20 %
3086 24-07-2019 17:06:17 40 C 20 %
3087 24-07-2019 17:18:17 39.8 C 20 %
3088 24-07-2019 17:30:17 39.1 C 20 %
3089 24-07-2019 17:42:17 38.9 C 20 %
3090 24-07-2019 17:54:17 39.2 C 20 %
3091 24-07-2019 18:06:17 39.7 C 20 %
3092 24-07-2019 18:18:17 39.2 C 20 %
3093 24-07-2019 18:30:17 39.1 C 20 %
3094 24-07-2019 18:42:18 38.9 C 20 %
3095 24-07-2019 18:54:17 38.5 C 20 %
3096 24-07-2019 19:06:17 38.4 C 20 %
3097 24-07-2019 19:18:18 38.5 C 20 %
3098 24-07-2019 19:30:18 38 C 20 %
3099 24-07-2019 19:42:18 36.6 C 20 %
3100 24-07-2019 19:54:17 35.8 C 20 %
Sensor: Nr:Datum:Temp:Feuchte:
Aussen-T/F 3101 24-07-2019 20:06:18 33.6 C 20 %
3102 24-07-2019 20:18:17 31.8 C 20 %
3103 24-07-2019 20:30:18 30.5 C 20 %
3104 24-07-2019 20:42:18 29.8 C 20 %
3105 24-07-2019 20:54:18 29.3 C 20 %
3106 24-07-2019 21:06:18 29 C 20 %
3107 24-07-2019 21:18:18 28.5 C 20 %
3108 24-07-2019 21:30:18 28.1 C 20 %
3109 24-07-2019 21:42:18 27.7 C 20 %
3110 24-07-2019 21:54:17 27.7 C 20 %
3111 24-07-2019 22:06:18 27.2 C 20 %
3112 24-07-2019 22:18:17 27.1 C 20 %
3113 24-07-2019 22:30:18 27 C 20 %
3114 24-07-2019 22:42:18 26.9 C 20 %
3115 24-07-2019 22:54:18 26.7 C 20 %
3116 24-07-2019 23:06:18 26.5 C 20 %
3117 24-07-2019 23:18:18 25.7 C 20 %
3118 24-07-2019 23:30:18 24.7 C 20 %
3119 24-07-2019 23:42:18 24.5 C 20 %
3120 24-07-2019 23:54:17 23.9 C 20 %
3121 25-07-2019 00:06:18 23.6 C 20 %
3122 25-07-2019 00:18:17 23.4 C 20 %
3123 25-07-2019 00:30:17 23.2 C 20 %
3124 25-07-2019 00:42:17 23 C 20 %
3125 25-07-2019 00:54:18 22.9 C 20 %
Sensor: Nr:Datum:Temp:Feuchte:
Aussen-T/F 3126 25-07-2019 01:06:18 22.5 C 20 %
3127 25-07-2019 01:18:17 22.2 C 20 %
3128 25-07-2019 01:30:17 22.4 C 20 %
3129 25-07-2019 01:42:17 22.1 C 20 %
3130 25-07-2019 01:54:17 21.8 C 20 %
3131 25-07-2019 02:06:18 21.6 C 20 %
3132 25-07-2019 02:18:17 21.5 C 20 %
3133 25-07-2019 02:30:17 21.4 C 20 %
3134 25-07-2019 02:42:17 21.3 C 20 %
3135 25-07-2019 02:54:17 21.1 C 20 %
3136 25-07-2019 03:06:17 21 C 20 %
3137 25-07-2019 03:18:17 20.8 C 20 %
3138 25-07-2019 03:30:18 20.6 C 20 %
3139 25-07-2019 03:42:18 20.4 C 22 %
3140 25-07-2019 03:54:18 20.2 C 23 %
3141 25-07-2019 04:06:18 20 C 24 %
3142 25-07-2019 04:18:18 19.9 C 25 %
3143 25-07-2019 04:30:17 19.9 C 25 %
3144 25-07-2019 04:42:17 19.7 C 25 %
3145 25-07-2019 04:54:17 19.7 C 26 %
3146 25-07-2019 05:06:18 19.4 C 26 %
3147 25-07-2019 05:18:17 19.3 C 26 %
3148 25-07-2019 05:30:17 19.2 C 28 %
3149 25-07-2019 05:42:17 19.1 C 27 %
3150 25-07-2019 05:54:18 19.1 C 28 %
Sensor: Nr:Datum:Temp:Feuchte:
Aussen-T/F 3151 25-07-2019 06:06:17 19.1 C 29 %
3152 25-07-2019 06:18:17 19.2 C 29 %
3153 25-07-2019 06:30:17 19.1 C 30 %
3154 25-07-2019 06:42:17 19.2 C 30 %
3155 25-07-2019 06:54:17 19.4 C 30 %
3156 25-07-2019 07:06:17 19.4 C 30 %
3157 25-07-2019 07:18:18 19.7 C 31 %
3158 25-07-2019 07:30:17 19.9 C 31 %
3159 25-07-2019 07:42:17 20 C 30 %
3160 25-07-2019 07:54:17 20.2 C 30 %
3161 25-07-2019 08:06:17 20.6 C 29 %
3162 25-07-2019 08:18:17 20.8 C 27 %
3163 25-07-2019 08:30:18 21.2 C 28 %
3164 25-07-2019 08:42:18 21.6 C 27 %
3165 25-07-2019 08:54:17 22 C 25 %
3166 25-07-2019 09:06:17 22.4 C 25 %
3167 25-07-2019 09:18:18 22.9 C 21 %
3168 25-07-2019 09:30:17 23.3 C 21 %
3169 25-07-2019 09:42:17 26.3 C 20 %
3170 25-07-2019 09:54:17 25.7 C 20 %
3171 25-07-2019 10:06:18 25.9 C 20 %
3172 25-07-2019 10:18:17 26.3 C 20 %
3173 25-07-2019 10:30:18 26.6 C 20 %
3174 25-07-2019 10:42:18 28 C 20 %
3175 25-07-2019 10:54:18 29 C 20 %
Sensor: Nr:Datum:Temp:Feuchte:
Aussen-T/F 3176 25-07-2019 11:06:17 30.5 C 20 %
3177 25-07-2019 11:18:17 32.1 C 20 %
3178 25-07-2019 11:30:18 33.6 C 20 %
3179 25-07-2019 11:42:18 36.3 C 20 %
3180 25-07-2019 11:54:18 35.5 C 20 %
3181 25-07-2019 12:06:18 35.1 C 20 %
3182 25-07-2019 12:18:17 34.8 C 20 %
3183 25-07-2019 12:30:18 35.4 C 20 %
3184 25-07-2019 12:42:18 36.1 C 20 %
3185 25-07-2019 12:54:18 36.5 C 20 %
3186 25-07-2019 13:06:18 36.5 C 20 %
3187 25-07-2019 13:18:17 36.4 C 20 %
3188 25-07-2019 13:30:17 36.6 C 20 %
3189 25-07-2019 13:42:17 37.3 C 20 %
3190 25-07-2019 13:54:17 37.2 C 20 %
3191 25-07-2019 14:06:17 37.4 C 20 %
3192 25-07-2019 14:18:17 38.1 C 20 %
3193 25-07-2019 14:30:17 37.7 C 20 %
3194 25-07-2019 14:42:18 38.7 C 20 %
3195 25-07-2019 14:54:18 38.9 C 20 %
3196 25-07-2019 15:06:17 39.6 C 20 %
3197 25-07-2019 15:18:17 39.6 C 20 %
3198 25-07-2019 15:30:17 39.6 C 20 %
3199 25-07-2019 15:42:17 39.5 C 20 %
3200 25-07-2019 15:54:17 40.2 C 20 %
Sensor: Nr:Datum:Temp:Feuchte:
Aussen-T/F 3201 25-07-2019 16:06:18 40.3 C 20 %
3202 25-07-2019 16:18:17 40.5 C 20 %
3203 25-07-2019 16:30:18 40.4 C 20 %
3204 25-07-2019 16:42:18 40 C 20 %
3205 25-07-2019 16:54:17 39.8 C 20 %
3206 25-07-2019 17:06:18 40.3 C 20 %
3207 25-07-2019 17:18:18 39.9 C 20 %
3208 25-07-2019 17:30:17 39.5 C 20 %
3209 25-07-2019 17:42:17 39.7 C 20 %
3210 25-07-2019 17:54:17 39.6 C 20 %
3211 25-07-2019 18:06:17 39.4 C 20 %
3212 25-07-2019 18:18:17 39.2 C 20 %
3213 25-07-2019 18:30:18 39.3 C 20 %
3214 25-07-2019 18:42:18 38.8 C 20 %
3215 25-07-2019 18:54:17 38.5 C 20 %
3216 25-07-2019 19:06:18 37.5 C 20 %
3217 25-07-2019 19:18:17 36.7 C 20 %
3218 25-07-2019 19:30:18 35.5 C 20 %
3219 25-07-2019 19:42:18 34.5 C 20 %
3220 25-07-2019 19:54:18 33.7 C 20 %
3221 25-07-2019 20:06:18 33.1 C 20 %
3222 25-07-2019 20:18:17 32.7 C 20 %
3223 25-07-2019 20:30:17 32.3 C 20 %
3224 25-07-2019 20:42:17 31.6 C 20 %
3225 25-07-2019 20:54:18 31.4 C 20 %
Sensor: Nr:Datum:Temp:Feuchte:
Aussen-T/F 3226 25-07-2019 21:06:17 30.6 C 20 %
3227 25-07-2019 21:18:18 30.1 C 20 %
3228 25-07-2019 21:30:18 29.6 C 20 %
3229 25-07-2019 21:42:18 29.3 C 20 %
3230 25-07-2019 21:54:18 28.9 C 20 %
3231 25-07-2019 22:06:18 28.7 C 20 %
3232 25-07-2019 22:18:18 28.5 C 20 %
3233 25-07-2019 22:30:18 28.2 C 20 %
3234 25-07-2019 22:42:18 27.9 C 20 %
3235 25-07-2019 22:54:17 27.7 C 20 %
3236 25-07-2019 23:06:17 27.6 C 20 %
3237 25-07-2019 23:18:17 27.5 C 20 %
3238 25-07-2019 23:30:18 26.9 C 20 %
3239 25-07-2019 23:42:18 26.8 C 20 %
3240 25-07-2019 23:54:17 26.4 C 20 %
3241 26-07-2019 00:06:17 26.2 C 20 %
3242 26-07-2019 00:18:18 26 C 20 %
3243 26-07-2019 00:30:18 25.7 C 20 %
3244 26-07-2019 00:42:18 25.5 C 20 %
3245 26-07-2019 00:54:18 25.4 C 20 %
3246 26-07-2019 01:06:18 25.3 C 20 %
3247 26-07-2019 01:18:18 25.2 C 20 %
3248 26-07-2019 01:30:18 24.9 C 20 %
3249 26-07-2019 01:42:18 24 C 20 %
3250 26-07-2019 01:54:17 23.3 C 20 %
Sensor: Nr:Datum:Temp:Feuchte:
Aussen-T/F 3251 26-07-2019 02:06:18 22.9 C 20 %
3252 26-07-2019 02:18:18 22.4 C 20 %
3253 26-07-2019 02:30:18 22 C 20 %
3254 26-07-2019 02:42:18 21.6 C 20 %
3255 26-07-2019 02:54:17 21.2 C 20 %
3256 26-07-2019 03:06:18 21.1 C 20 %
3257 26-07-2019 03:18:18 21 C 20 %
3258 26-07-2019 03:30:18 20.8 C 20 %
3259 26-07-2019 03:42:18 20.5 C 20 %
3260 26-07-2019 03:54:17 20.6 C 21 %
3261 26-07-2019 04:06:17 20.3 C 23 %
3262 26-07-2019 04:18:17 20.1 C 23 %
3263 26-07-2019 04:30:18 19.9 C 26 %
3264 26-07-2019 04:42:18 19.7 C 25 %
3265 26-07-2019 04:54:17 19.6 C 26 %
3266 26-07-2019 05:06:18 19.5 C 25 %
3267 26-07-2019 05:18:17 19.5 C 25 %
3268 26-07-2019 05:30:17 19.3 C 26 %
3269 26-07-2019 05:42:17 19.1 C 27 %
3270 26-07-2019 05:54:18 19 C 25 %
3271 26-07-2019 06:06:18 19.1 C 27 %
3272 26-07-2019 06:18:17 19.1 C 26 %
3273 26-07-2019 06:30:18 19.1 C 27 %
3274 26-07-2019 06:42:18 19.3 C 27 %
3275 26-07-2019 06:54:17 19.5 C 29 %
Sensor: Nr:Datum:Temp:Feuchte:
Aussen-T/F 3276 26-07-2019 07:06:18 19.7 C 30 %
3277 26-07-2019 07:18:17 19.7 C 30 %
3278 26-07-2019 07:30:18 20 C 28 %
3279 26-07-2019 07:42:18 20.4 C 27 %
3280 26-07-2019 07:54:17 20.7 C 27 %
3281 26-07-2019 08:06:18 20.8 C 26 %
3282 26-07-2019 08:18:18 21.1 C 26 %
3283 26-07-2019 08:30:18 21.6 C 25 %
3284 26-07-2019 08:42:18 22 C 23 %
3285 26-07-2019 08:54:17 22.6 C 20 %
3286 26-07-2019 09:06:17 23.1 C 20 %
3287 26-07-2019 09:18:17 23.7 C 20 %
3288 26-07-2019 09:30:17 24.4 C 20 %
3289 26-07-2019 09:42:17 27.5 C 20 %
3290 26-07-2019 09:54:17 27.8 C 20 %
3291 26-07-2019 10:06:17 27.9 C 20 %
3292 26-07-2019 10:18:17 28.9 C 20 %
3293 26-07-2019 10:30:17 30 C 20 %
3294 26-07-2019 10:42:17 31.1 C 20 %
3295 26-07-2019 10:54:17 32.2 C 20 %
3296 26-07-2019 11:06:17 33.1 C 20 %
3297 26-07-2019 11:18:17 34.1 C 20 %
3298 26-07-2019 11:30:18 34.6 C 20 %
3299 26-07-2019 11:42:18 37 C 20 %
3300 26-07-2019 11:54:18 35.7 C 20 %
Sensor: Nr:Datum:Temp:Feuchte:
Aussen-T/F 3301 26-07-2019 12:06:18 35 C 20 %
3302 26-07-2019 12:18:18 34.2 C 20 %
3303 26-07-2019 12:30:17 34.8 C 20 %
3304 26-07-2019 12:42:17 35.6 C 20 %
3305 26-07-2019 12:54:17 35.9 C 20 %
3306 26-07-2019 13:06:17 36.2 C 20 %
3307 26-07-2019 13:18:17 35.9 C 20 %
3308 26-07-2019 13:30:17 36.4 C 20 %
3309 26-07-2019 13:42:17 36.8 C 20 %
3310 26-07-2019 13:54:17 37.1 C 20 %
3311 26-07-2019 14:06:17 37.3 C 20 %
3312 26-07-2019 14:18:18 37.3 C 20 %
3313 26-07-2019 14:30:18 38.2 C 20 %
3314 26-07-2019 14:42:18 38.5 C 20 %
3315 26-07-2019 14:54:17 38.7 C 20 %
3316 26-07-2019 15:06:18 39.6 C 20 %
3317 26-07-2019 15:18:17 37.7 C 20 %
3318 26-07-2019 15:30:18 37.4 C 20 %
3319 26-07-2019 15:42:18 36 C 20 %
3320 26-07-2019 15:54:17 35.9 C 20 %
3321 26-07-2019 16:06:18 36 C 20 %
3322 26-07-2019 16:18:18 36.1 C 20 %
3323 26-07-2019 16:30:18 35.8 C 20 %
3324 26-07-2019 16:42:18 35.2 C 20 %
3325 26-07-2019 16:54:17 34.7 C 20 %
Sensor: Nr:Datum:Temp:Feuchte:
Aussen-T/F 3326 26-07-2019 17:06:17 33.8 C 20 %
3327 26-07-2019 17:18:18 32.9 C 20 %
3328 26-07-2019 17:30:18 32.2 C 20 %
3329 26-07-2019 17:42:18 31.8 C 20 %
3330 26-07-2019 17:54:18 31.9 C 20 %
3331 26-07-2019 18:06:18 31.7 C 20 %
3332 26-07-2019 18:18:18 31.4 C 20 %
3333 26-07-2019 18:30:18 31.1 C 20 %
3334 26-07-2019 18:42:18 30.4 C 20 %
3335 26-07-2019 18:54:17 30 C 20 %
3336 26-07-2019 19:06:18 29.2 C 20 %
3337 26-07-2019 19:18:18 29 C 20 %
3338 26-07-2019 19:30:18 28.4 C 20 %
3339 26-07-2019 19:42:18 28.2 C 20 %
3340 26-07-2019 19:54:17 27.8 C 20 %
3341 26-07-2019 20:06:17 27.7 C 20 %
3342 26-07-2019 20:18:17 27.8 C 20 %
3343 26-07-2019 20:30:17 27.4 C 20 %
3344 26-07-2019 20:42:17 27.1 C 20 %
3345 26-07-2019 20:54:18 26.8 C 20 %
3346 26-07-2019 21:06:18 26.6 C 20 %
3347 26-07-2019 21:18:18 26.3 C 20 %
3348 26-07-2019 21:30:18 26.1 C 20 %
3349 26-07-2019 21:42:18 26 C 20 %
3350 26-07-2019 21:54:17 25.8 C 20 %
Sensor: Nr:Datum:Temp:Feuchte:
Aussen-T/F 3351 26-07-2019 22:06:18 25.8 C 20 %
3352 26-07-2019 22:18:17 25.9 C 20 %
3353 26-07-2019 22:30:18 25.3 C 20 %
3354 26-07-2019 22:42:18 25.1 C 20 %
3355 26-07-2019 22:54:17 24.7 C 20 %
3356 26-07-2019 23:06:17 24.6 C 20 %
3357 26-07-2019 23:18:17 24.7 C 20 %
3358 26-07-2019 23:30:17 24.5 C 20 %
3359 26-07-2019 23:42:17 23.9 C 20 %
3360 26-07-2019 23:54:17 23.7 C 20 %
3361 27-07-2019 00:06:17 23.7 C 20 %
3362 27-07-2019 00:18:17 23.3 C 20 %
3363 27-07-2019 00:30:18 22.8 C 20 %
3364 27-07-2019 00:42:18 23.1 C 20 %
3365 27-07-2019 00:54:18 22.9 C 20 %
3366 27-07-2019 01:06:18 22.7 C 20 %
3367 27-07-2019 01:18:18 22.7 C 20 %
3368 27-07-2019 01:30:18 22.9 C 20 %
3369 27-07-2019 01:42:18 22.5 C 20 %
3370 27-07-2019 01:54:17 22.3 C 20 %
3371 27-07-2019 02:06:18 22.3 C 20 %
3372 27-07-2019 02:18:18 22.6 C 20 %
3373 27-07-2019 02:30:18 22.5 C 20 %
3374 27-07-2019 02:42:18 22.5 C 21 %
3375 27-07-2019 02:54:18 22.6 C 20 %
Sensor: Nr:Datum:Temp:Feuchte:
Aussen-T/F 3376 27-07-2019 03:06:18 22.7 C 20 %
3377 27-07-2019 03:18:17 23 C 20 %
3378 27-07-2019 03:30:17 23 C 20 %
3379 27-07-2019 03:42:17 22.4 C 20 %
3380 27-07-2019 03:54:18 20.5 C 36 %
3381 27-07-2019 04:06:17 20.1 C 40 %
3382 27-07-2019 04:18:17 20.1 C 41 %
3383 27-07-2019 04:30:18 20.1 C 40 %
3384 27-07-2019 04:42:18 20.2 C 40 %
3385 27-07-2019 04:54:18 20.4 C 38 %
3386 27-07-2019 05:06:18 20.4 C 38 %
3387 27-07-2019 05:18:18 20.4 C 38 %
3388 27-07-2019 05:30:17 20.3 C 38 %
3389 27-07-2019 05:42:17 20.3 C 38 %
3390 27-07-2019 05:54:18 20.4 C 37 %
3391 27-07-2019 06:06:18 20.3 C 39 %
3392 27-07-2019 06:18:18 20.5 C 39 %
3393 27-07-2019 06:30:18 20.5 C 39 %
3394 27-07-2019 06:42:18 21 C 35 %
3395 27-07-2019 06:54:17 21.3 C 35 %
3396 27-07-2019 07:06:18 21.2 C 35 %
3397 27-07-2019 07:18:18 21.5 C 35 %
3398 27-07-2019 07:30:18 21.9 C 35 %
3399 27-07-2019 07:42:18 22 C 32 %
3400 27-07-2019 07:54:17 22.2 C 30 %
Sensor: Nr:Datum:Temp:Feuchte:
Aussen-T/F 3401 27-07-2019 08:06:17 22.3 C 30 %
3402 27-07-2019 08:18:18 22.5 C 25 %
3403 27-07-2019 08:30:18 23.1 C 22 %
3404 27-07-2019 08:42:18 23.6 C 20 %
3405 27-07-2019 08:54:18 24.1 C 20 %
3406 27-07-2019 09:06:18 24.9 C 20 %
3407 27-07-2019 09:18:18 25.4 C 20 %
3408 27-07-2019 09:30:18 25.7 C 20 %
3409 27-07-2019 09:42:18 25.7 C 20 %
3410 27-07-2019 09:54:17 25.9 C 20 %
3411 27-07-2019 10:06:18 25.8 C 20 %
3412 27-07-2019 10:18:18 23.8 C 24 %
3413 27-07-2019 10:30:18 23.2 C 32 %
3414 27-07-2019 10:42:18 23.3 C 38 %
3415 27-07-2019 10:54:17 23.6 C 37 %
3416 27-07-2019 11:06:18 24 C 35 %
3417 27-07-2019 11:18:18 24.1 C 34 %
3418 27-07-2019 11:30:18 23.9 C 35 %
3419 27-07-2019 11:42:18 22.9 C 33 %
3420 27-07-2019 11:54:17 22.2 C 35 %
3421 27-07-2019 12:06:18 22.6 C 37 %
3422 27-07-2019 12:18:18 23 C 32 %
3423 27-07-2019 12:30:18 24.5 C 27 %
3424 27-07-2019 12:42:18 25.5 C 20 %
3425 27-07-2019 12:54:17 26.2 C 20 %
Sensor: Nr:Datum:Temp:Feuchte:
Aussen-T/F 3426 27-07-2019 13:06:17 26.7 C 20 %
3427 27-07-2019 13:18:17 26.9 C 20 %
3428 27-07-2019 13:30:18 26.8 C 20 %
3429 27-07-2019 13:42:18 26.9 C 20 %
3430 27-07-2019 13:54:18 26.7 C 20 %
3431 27-07-2019 14:06:18 26.3 C 20 %
3432 27-07-2019 14:18:17 26 C 20 %
3433 27-07-2019 14:30:18 25.7 C 20 %
3434 27-07-2019 14:42:18 25.8 C 20 %
3435 27-07-2019 14:54:17 25.7 C 20 %
3436 27-07-2019 15:06:18 25 C 20 %
3437 27-07-2019 15:18:18 25 C 20 %
3438 27-07-2019 15:30:18 25.5 C 20 %
3439 27-07-2019 15:42:18 26.1 C 20 %
3440 27-07-2019 15:54:17 26.4 C 20 %
3441 27-07-2019 16:06:18 27.2 C 20 %
3442 27-07-2019 16:18:18 27.1 C 20 %
3443 27-07-2019 16:30:18 27.4 C 20 %
3444 27-07-2019 16:42:18 26.5 C 20 %
3445 27-07-2019 16:54:17 25.6 C 20 %
3446 27-07-2019 17:06:17 25 C 20 %
3447 27-07-2019 17:18:17 25 C 20 %
3448 27-07-2019 17:30:18 25 C 20 %
3449 27-07-2019 17:42:18 24.8 C 20 %
3450 27-07-2019 17:54:17 25.1 C 20 %
Sensor: Nr:Datum:Temp:Feuchte:
Aussen-T/F 3451 27-07-2019 18:06:18 25.1 C 20 %
3452 27-07-2019 18:18:17 25.8 C 20 %
3453 27-07-2019 18:30:17 26 C 20 %
3454 27-07-2019 18:42:17 26 C 20 %
3455 27-07-2019 18:54:17 25.6 C 20 %
3456 27-07-2019 19:06:17 24.6 C 21 %
3457 27-07-2019 19:18:17 24.6 C 21 %
3458 27-07-2019 19:30:18 23.9 C 27 %
3459 27-07-2019 19:42:18 23.7 C 27 %
3460 27-07-2019 19:54:18 23.7 C 28 %
3461 27-07-2019 20:06:17 23.4 C 29 %
3462 27-07-2019 20:18:17 23.4 C 30 %
3463 27-07-2019 20:30:17 23.3 C 28 %
3464 27-07-2019 20:42:17 23.3 C 28 %
3465 27-07-2019 20:54:18 22.9 C 30 %
3466 27-07-2019 21:06:18 22.7 C 30 %
3467 27-07-2019 21:18:18 22.6 C 30 %
3468 27-07-2019 21:30:18 22.4 C 31 %
3469 27-07-2019 21:42:18 22.1 C 31 %
3470 27-07-2019 21:54:18 22 C 31 %
3471 27-07-2019 22:06:18 21.8 C 33 %
3472 27-07-2019 22:18:18 21.7 C 33 %
3473 27-07-2019 22:30:18 21.7 C 34 %
3474 27-07-2019 22:42:18 21.6 C 34 %
3475 27-07-2019 22:54:17 21.6 C 35 %
Sensor: Nr:Datum:Temp:Feuchte:
Aussen-T/F 3476 27-07-2019 23:06:17 21.5 C 35 %
3477 27-07-2019 23:18:17 21.5 C 35 %
3478 27-07-2019 23:30:17 21.4 C 35 %
3479 27-07-2019 23:42:17 21.3 C 35 %
3480 27-07-2019 23:54:17 21.2 C 36 %
3481 28-07-2019 00:06:18 21.2 C 36 %
3482 28-07-2019 00:18:18 21.1 C 36 %
3483 28-07-2019 00:30:18 21.2 C 36 %
3484 28-07-2019 00:42:18 21.1 C 36 %
3485 28-07-2019 00:54:18 21.1 C 36 %
3486 28-07-2019 01:06:17 21 C 36 %
3487 28-07-2019 01:18:17 21 C 36 %
3488 28-07-2019 01:30:18 21 C 36 %
3489 28-07-2019 01:42:18 20.9 C 37 %
3490 28-07-2019 01:54:17 21 C 36 %
3491 28-07-2019 02:06:18 20.9 C 37 %
3492 28-07-2019 02:18:18 20.9 C 37 %
3493 28-07-2019 02:30:18 21 C 36 %
3494 28-07-2019 02:42:18 20.9 C 37 %
3495 28-07-2019 02:54:17 20.9 C 37 %
3496 28-07-2019 03:06:18 21 C 36 %
3497 28-07-2019 03:18:18 20.9 C 37 %
3498 28-07-2019 03:30:18 20.9 C 37 %
3499 28-07-2019 03:42:18 20.8 C 38 %
3500 28-07-2019 03:54:17 20.8 C 38 %
Sensor: Nr:Datum:Temp:Feuchte:
Aussen-T/F 3501 28-07-2019 04:06:17 20.7 C 39 %
3502 28-07-2019 04:18:18 20.7 C 39 %
3503 28-07-2019 04:30:18 20.8 C 39 %
3504 28-07-2019 04:42:18 20.8 C 38 %
3505 28-07-2019 04:54:17 20.8 C 38 %
3506 28-07-2019 05:06:17 20.8 C 38 %
3507 28-07-2019 05:18:17 20.7 C 38 %
3508 28-07-2019 05:30:17 20.7 C 39 %
3509 28-07-2019 05:42:17 20.7 C 39 %
3510 28-07-2019 05:54:17 20.7 C 39 %
3511 28-07-2019 06:06:17 20.7 C 39 %
3512 28-07-2019 06:18:17 20.7 C 39 %
3513 28-07-2019 06:30:18 20.8 C 38 %
3514 28-07-2019 06:42:18 20.8 C 38 %
3515 28-07-2019 06:54:17 20.9 C 37 %
3516 28-07-2019 07:06:18 21 C 36 %
3517 28-07-2019 07:18:18 21 C 35 %
3518 28-07-2019 07:30:17 21 C 35 %
3519 28-07-2019 07:42:17 21 C 34 %
3520 28-07-2019 07:54:17 21 C 34 %
3521 28-07-2019 08:06:17 21 C 34 %
3522 28-07-2019 08:18:17 20.9 C 35 %
3523 28-07-2019 08:30:17 21 C 34 %
3524 28-07-2019 08:42:17 21.1 C 34 %
3525 28-07-2019 08:54:17 21 C 35 %
Sensor: Nr:Datum:Temp:Feuchte:
Aussen-T/F 3526 28-07-2019 09:06:17 20.9 C 36 %
3527 28-07-2019 09:18:17 20.8 C 36 %
3528 28-07-2019 09:30:17 20.7 C 36 %
3529 28-07-2019 09:42:17 20.5 C 37 %
3530 28-07-2019 09:54:17 20.4 C 38 %
3531 28-07-2019 10:06:17 20.4 C 39 %
3532 28-07-2019 10:18:17 20.4 C 39 %
3533 28-07-2019 10:30:17 20 C 41 %
3534 28-07-2019 10:42:17 20 C 41 %
3535 28-07-2019 10:54:17 19.9 C 41 %
3536 28-07-2019 11:06:17 19.8 C 43 %
3537 28-07-2019 11:18:17 20 C 41 %
3538 28-07-2019 11:30:18 20.5 C 38 %
3539 28-07-2019 11:42:18 20.9 C 33 %
3540 28-07-2019 11:54:18 21 C 31 %
3541 28-07-2019 12:06:18 20.9 C 32 %
3542 28-07-2019 12:18:18 20.8 C 32 %
3543 28-07-2019 12:30:18 20.7 C 30 %
3544 28-07-2019 12:42:18 20.7 C 31 %
3545 28-07-2019 12:54:17 20.8 C 30 %
3546 28-07-2019 13:06:18 20.8 C 30 %
3547 28-07-2019 13:18:17 20.7 C 30 %
3548 28-07-2019 13:30:18 20.6 C 31 %
3549 28-07-2019 13:42:18 20.1 C 35 %
3550 28-07-2019 13:54:17 19.9 C 38 %
Sensor: Nr:Datum:Temp:Feuchte:
Aussen-T/F 3551 28-07-2019 14:06:17 20 C 36 %
3552 28-07-2019 14:18:17 20 C 36 %
3553 28-07-2019 14:30:17 20.3 C 34 %
3554 28-07-2019 14:42:17 20.2 C 35 %
3555 28-07-2019 14:54:18 20.1 C 35 %
3556 28-07-2019 15:06:18 20.1 C 34 %
3557 28-07-2019 15:18:18 20 C 35 %
3558 28-07-2019 15:30:18 20.2 C 33 %
3559 28-07-2019 15:42:18 20.2 C 32 %
3560 28-07-2019 15:54:18 20.1 C 33 %
3561 28-07-2019 16:06:18 20.1 C 32 %
3562 28-07-2019 16:18:17 20 C 32 %
3563 28-07-2019 16:30:17 19.8 C 35 %
3564 28-07-2019 16:42:17 19.8 C 35 %
3565 28-07-2019 16:54:18 19.9 C 34 %
3566 28-07-2019 17:06:18 19.5 C 35 %
3567 28-07-2019 17:18:18 19 C 40 %
3568 28-07-2019 17:30:18 19 C 40 %
3569 28-07-2019 17:42:18 18.8 C 41 %
3570 28-07-2019 17:54:17 19 C 43 %
3571 28-07-2019 18:06:17 19.1 C 41 %
3572 28-07-2019 18:18:17 19.1 C 37 %
3573 28-07-2019 18:30:17 19.1 C 38 %
3574 28-07-2019 18:42:17 18.9 C 38 %
3575 28-07-2019 18:54:18 18.8 C 40 %
Sensor: Nr:Datum:Temp:Feuchte:
Aussen-T/F 3576 28-07-2019 19:06:18 18.8 C 42 %
3577 28-07-2019 19:18:18 18.7 C 42 %
3578 28-07-2019 19:30:17 18.7 C 43 %
3579 28-07-2019 19:42:17 18.6 C 43 %
3580 28-07-2019 19:54:18 18.4 C 42 %
3581 28-07-2019 20:06:18 18.3 C 43 %
3582 28-07-2019 20:18:17 18.3 C 43 %
3583 28-07-2019 20:30:17 18.1 C 43 %
3584 28-07-2019 20:42:17 18.1 C 44 %
3585 28-07-2019 20:54:17 17.9 C 45 %
3586 28-07-2019 21:06:18 17.9 C 45 %
3587 28-07-2019 21:18:17 17.9 C 46 %
3588 28-07-2019 21:30:18 17.9 C 46 %
3589 28-07-2019 21:42:18 17.8 C 46 %
3590 28-07-2019 21:54:17 17.7 C 46 %
3591 28-07-2019 22:06:17 17.6 C 46 %
3592 28-07-2019 22:18:18 17.7 C 47 %
3593 28-07-2019 22:30:18 17.7 C 47 %
3594 28-07-2019 22:42:18 17.6 C 47 %
3595 28-07-2019 22:54:17 17.4 C 47 %
3596 28-07-2019 23:06:18 17.4 C 47 %
3597 28-07-2019 23:18:18 17.4 C 47 %
3598 28-07-2019 23:30:18 17.2 C 47 %
3599 28-07-2019 23:42:18 17.2 C 47 %
3600 28-07-2019 23:54:18 17.2 C 48 %
Sensor: Nr:Datum:Temp:Feuchte:
Aussen-T/F 3601 29-07-2019 00:06:18 17.2 C 48 %
3602 29-07-2019 00:18:18 17.2 C 48 %
3603 29-07-2019 00:30:18 17.1 C 49 %
3604 29-07-2019 00:42:18 17 C 49 %
3605 29-07-2019 00:54:17 17 C 49 %
3606 29-07-2019 01:06:17 17 C 49 %
3607 29-07-2019 01:18:17 17 C 47 %
3608 29-07-2019 01:30:18 16.9 C 47 %
3609 29-07-2019 01:42:18 17 C 46 %
3610 29-07-2019 01:54:18 17 C 45 %
3611 29-07-2019 02:06:18 16.9 C 46 %
3612 29-07-2019 02:18:17 16.9 C 45 %
3613 29-07-2019 02:30:18 16.9 C 45 %
3614 29-07-2019 02:42:18 16.9 C 45 %
3615 29-07-2019 02:54:17 16.9 C 45 %
3616 29-07-2019 03:06:18 16.8 C 45 %
3617 29-07-2019 03:18:18 16.8 C 45 %
3618 29-07-2019 03:30:18 16.8 C 45 %
3619 29-07-2019 03:42:18 16.8 C 45 %
3620 29-07-2019 03:54:18 16.9 C 45 %
3621 29-07-2019 04:06:17 16.8 C 44 %
3622 29-07-2019 04:18:17 16.9 C 44 %
3623 29-07-2019 04:30:17 16.8 C 44 %
3624 29-07-2019 04:42:17 16.8 C 44 %
3625 29-07-2019 04:54:17 16.8 C 44 %
Sensor: Nr:Datum:Temp:Feuchte:
Aussen-T/F 3626 29-07-2019 05:06:17 16.8 C 44 %
3627 29-07-2019 05:18:18 16.7 C 44 %
3628 29-07-2019 05:30:18 16.7 C 44 %
3629 29-07-2019 05:42:18 16.7 C 44 %
3630 29-07-2019 05:54:17 16.7 C 44 %
3631 29-07-2019 06:06:17 16.7 C 44 %
3632 29-07-2019 06:18:17 16.6 C 43 %
3633 29-07-2019 06:30:17 16.7 C 45 %
3634 29-07-2019 06:42:18 16.9 C 44 %
3635 29-07-2019 06:54:18 16.9 C 44 %
3636 29-07-2019 07:06:18 17 C 43 %
3637 29-07-2019 07:18:18 17.1 C 43 %
3638 29-07-2019 07:30:17 17.1 C 42 %
3639 29-07-2019 07:42:17 17.3 C 38 %
3640 29-07-2019 07:54:18 17.3 C 36 %
3641 29-07-2019 08:06:18 17.7 C 36 %
3642 29-07-2019 08:18:17 17.8 C 35 %
3643 29-07-2019 08:30:18 18.1 C 33 %
3644 29-07-2019 08:42:18 18.2 C 31 %
3645 29-07-2019 08:54:17 18.4 C 30 %
3646 29-07-2019 09:06:18 18.7 C 30 %
3647 29-07-2019 09:18:17 18.7 C 30 %
3648 29-07-2019 09:30:18 19.2 C 27 %
3649 29-07-2019 09:42:18 19.3 C 26 %
3650 29-07-2019 09:54:17 19.1 C 26 %
Sensor: Nr:Datum:Temp:Feuchte:
Aussen-T/F 3651 29-07-2019 10:06:17 19.2 C 26 %
3652 29-07-2019 10:18:17 19.5 C 26 %
3653 29-07-2019 10:30:17 20.2 C 22 %
3654 29-07-2019 10:42:17 20.5 C 21 %
3655 29-07-2019 10:54:18 21 C 20 %
3656 29-07-2019 11:06:18 21.7 C 20 %
3657 29-07-2019 11:18:18 21.7 C 20 %
3658 29-07-2019 11:30:18 23.1 C 20 %
3659 29-07-2019 11:42:18 25.7 C 20 %
3660 29-07-2019 11:54:17 23.7 C 20 %
3661 29-07-2019 12:06:18 22.7 C 20 %
3662 29-07-2019 12:18:18 22.9 C 20 %
3663 29-07-2019 12:30:18 22.9 C 20 %
3664 29-07-2019 12:42:18 23.1 C 20 %
3665 29-07-2019 12:54:18 23.2 C 20 %
3666 29-07-2019 13:06:18 23.5 C 20 %
3667 29-07-2019 13:18:18 23.9 C 20 %
3668 29-07-2019 13:30:18 24.1 C 20 %
3669 29-07-2019 13:42:18 24 C 20 %
3670 29-07-2019 13:54:17 24.4 C 20 %
3671 29-07-2019 14:06:18 24.7 C 20 %
3672 29-07-2019 14:18:18 25.3 C 20 %
3673 29-07-2019 14:30:18 25.8 C 20 %
3674 29-07-2019 14:42:18 26.1 C 20 %
3675 29-07-2019 14:54:17 25.5 C 20 %
Sensor: Nr:Datum:Temp:Feuchte:
Aussen-T/F 3676 29-07-2019 15:06:18 26.2 C 20 %
3677 29-07-2019 15:18:18 26.6 C 20 %
3678 29-07-2019 15:30:18 26.9 C 20 %
3679 29-07-2019 15:42:18 26.8 C 20 %
3680 29-07-2019 15:54:17 27.3 C 20 %
3681 29-07-2019 16:06:17 27.7 C 20 %
3682 29-07-2019 16:18:17 27.4 C 20 %
3683 29-07-2019 16:30:18 27.9 C 20 %
3684 29-07-2019 16:42:18 28.3 C 20 %
3685 29-07-2019 16:54:18 27.6 C 20 %
3686 29-07-2019 17:06:18 28.9 C 20 %
3687 29-07-2019 17:18:18 28.6 C 20 %
3688 29-07-2019 17:30:18 28.7 C 20 %
3689 29-07-2019 17:42:18 28.2 C 20 %
3690 29-07-2019 17:54:17 27.6 C 20 %
3691 29-07-2019 18:06:18 27.5 C 20 %
3692 29-07-2019 18:18:17 28.2 C 20 %
3693 29-07-2019 18:30:18 28 C 20 %
3694 29-07-2019 18:42:18 28.8 C 20 %
3695 29-07-2019 18:54:17 28.5 C 20 %
3696 29-07-2019 19:06:17 29.3 C 20 %
3697 29-07-2019 19:18:17 28.5 C 20 %
3698 29-07-2019 19:30:18 27.8 C 20 %
3699 29-07-2019 19:42:18 27.4 C 20 %
3700 29-07-2019 19:54:18 27 C 20 %
Sensor: Nr:Datum:Temp:Feuchte:
Aussen-T/F 3701 29-07-2019 20:06:18 26.7 C 20 %
3702 29-07-2019 20:18:18 26.4 C 20 %
3703 29-07-2019 20:30:18 26.3 C 20 %
3704 29-07-2019 20:42:18 25.9 C 20 %
3705 29-07-2019 20:54:18 25.3 C 20 %
3706 29-07-2019 21:06:18 24.1 C 20 %
3707 29-07-2019 21:18:18 22.5 C 20 %
3708 29-07-2019 21:30:18 21.7 C 20 %
3709 29-07-2019 21:42:18 21.4 C 20 %
3710 29-07-2019 21:54:17 21.2 C 20 %
3711 29-07-2019 22:06:18 20.9 C 20 %
3712 29-07-2019 22:18:18 20.7 C 20 %
3713 29-07-2019 22:30:18 20.5 C 20 %
3714 29-07-2019 22:42:18 20.4 C 20 %
3715 29-07-2019 22:54:17 20 C 20 %
3716 29-07-2019 23:06:17 19.7 C 20 %
3717 29-07-2019 23:18:17 19.4 C 21 %
3718 29-07-2019 23:30:17 19.1 C 21 %
3719 29-07-2019 23:42:18 18.6 C 24 %
3720 29-07-2019 23:54:18 18.3 C 25 %
3721 30-07-2019 00:06:18 18 C 26 %
3722 30-07-2019 00:18:18 17.9 C 27 %
3723 30-07-2019 00:30:18 17.9 C 27 %
3724 30-07-2019 00:42:18 17.6 C 28 %
3725 30-07-2019 00:54:17 17.8 C 29 %
Sensor: Nr:Datum:Temp:Feuchte:
Aussen-T/F 3726 30-07-2019 01:06:17 17.9 C 29 %
3727 30-07-2019 01:18:18 17.7 C 28 %
3728 30-07-2019 01:30:18 17.3 C 29 %
3729 30-07-2019 01:42:18 17 C 30 %
3730 30-07-2019 01:54:17 16.8 C 31 %
3731 30-07-2019 02:06:18 16.7 C 32 %
3732 30-07-2019 02:18:18 16.6 C 32 %
3733 30-07-2019 02:30:18 16.5 C 32 %
3734 30-07-2019 02:42:18 16.3 C 32 %
3735 30-07-2019 02:54:17 16.2 C 33 %
3736 30-07-2019 03:06:18 16 C 34 %
3737 30-07-2019 03:18:18 16 C 35 %
3738 30-07-2019 03:30:18 15.8 C 36 %
3739 30-07-2019 03:42:18 15.7 C 36 %
3740 30-07-2019 03:54:17 15.6 C 36 %
3741 30-07-2019 04:06:17 15.6 C 37 %
3742 30-07-2019 04:18:17 15.4 C 38 %
3743 30-07-2019 04:30:17 15.4 C 38 %
3744 30-07-2019 04:42:17 15.3 C 38 %
3745 30-07-2019 04:54:18 15.2 C 39 %
3746 30-07-2019 05:06:18 15 C 39 %
3747 30-07-2019 05:18:18 15 C 40 %
3748 30-07-2019 05:30:18 14.9 C 41 %
3749 30-07-2019 05:42:18 14.8 C 41 %
3750 30-07-2019 05:54:17 14.8 C 41 %
Sensor: Nr:Datum:Temp:Feuchte:
Aussen-T/F 3751 30-07-2019 06:06:17 14.7 C 42 %
3752 30-07-2019 06:18:17 14.7 C 43 %
3753 30-07-2019 06:30:18 14.8 C 43 %
3754 30-07-2019 06:42:18 14.9 C 43 %
3755 30-07-2019 06:54:17 14.8 C 43 %
3756 30-07-2019 07:06:18 15 C 42 %
3757 30-07-2019 07:18:17 15 C 42 %
3758 30-07-2019 07:30:18 15.2 C 42 %
3759 30-07-2019 07:42:18 15.2 C 42 %
3760 30-07-2019 07:54:17 15.4 C 42 %
3761 30-07-2019 08:06:18 16 C 42 %
3762 30-07-2019 08:18:17 16 C 40 %
3763 30-07-2019 08:30:18 16.3 C 41 %
3764 30-07-2019 08:42:18 16.6 C 40 %
3765 30-07-2019 08:54:17 17.1 C 38 %
3766 30-07-2019 09:06:18 17.3 C 36 %
3767 30-07-2019 09:18:18 17.6 C 36 %
3768 30-07-2019 09:30:18 17.6 C 36 %
3769 30-07-2019 09:42:18 21.1 C 25 %
3770 30-07-2019 09:54:17 21.1 C 20 %
3771 30-07-2019 10:06:17 20.4 C 25 %
3772 30-07-2019 10:18:17 20.8 C 25 %
3773 30-07-2019 10:30:18 21.3 C 22 %
3774 30-07-2019 10:42:18 21.4 C 22 %
3775 30-07-2019 10:54:17 24 C 20 %
Sensor: Nr:Datum:Temp:Feuchte:
Aussen-T/F 3776 30-07-2019 11:06:17 26.2 C 20 %
3777 30-07-2019 11:18:17 27.1 C 20 %
3778 30-07-2019 11:30:17 29.9 C 20 %
3779 30-07-2019 11:42:17 28.3 C 20 %
3780 30-07-2019 11:54:18 27.8 C 20 %
3781 30-07-2019 12:06:18 27.3 C 20 %
3782 30-07-2019 12:18:18 27.4 C 20 %
3783 30-07-2019 12:30:18 27.5 C 20 %
3784 30-07-2019 12:42:18 27.6 C 20 %
3785 30-07-2019 12:54:18 27.9 C 20 %
3786 30-07-2019 13:06:18 27.7 C 20 %
3787 30-07-2019 13:18:18 28.2 C 20 %
3788 30-07-2019 13:30:18 28.3 C 20 %
3789 30-07-2019 13:42:18 28.8 C 20 %
3790 30-07-2019 13:54:17 29.1 C 20 %
3791 30-07-2019 14:06:17 29.1 C 20 %
3792 30-07-2019 14:18:17 29.6 C 20 %
3793 30-07-2019 14:30:18 30.5 C 20 %
3794 30-07-2019 14:42:18 31.1 C 20 %
3795 30-07-2019 14:54:17 31.1 C 20 %
3796 30-07-2019 15:06:17 31.8 C 20 %
3797 30-07-2019 15:18:18 31.8 C 20 %
3798 30-07-2019 15:30:18 31.9 C 20 %
3799 30-07-2019 15:42:18 32.4 C 20 %
3800 30-07-2019 15:54:17 32.4 C 20 %
Sensor: Nr:Datum:Temp:Feuchte:
Aussen-T/F 3801 30-07-2019 16:06:18 32.5 C 20 %
3802 30-07-2019 16:18:18 33.2 C 20 %
3803 30-07-2019 16:30:18 33.2 C 20 %
3804 30-07-2019 16:42:18 31.2 C 20 %
3805 30-07-2019 16:54:17 30.7 C 20 %
3806 30-07-2019 17:06:17 31.5 C 20 %
3807 30-07-2019 17:18:17 30.2 C 20 %
3808 30-07-2019 17:30:18 29.4 C 20 %
3809 30-07-2019 17:42:18 29.1 C 20 %
3810 30-07-2019 17:54:18 28.2 C 20 %
3811 30-07-2019 18:06:18 27.9 C 20 %
3812 30-07-2019 18:18:17 27.4 C 20 %
3813 30-07-2019 18:30:18 27.1 C 20 %
3814 30-07-2019 18:42:18 26.7 C 20 %
3815 30-07-2019 18:54:17 26.3 C 20 %
3816 30-07-2019 19:06:18 26.2 C 20 %
3817 30-07-2019 19:18:18 26.1 C 20 %
3818 30-07-2019 19:30:18 25.5 C 20 %
3819 30-07-2019 19:42:18 24.8 C 20 %
3820 30-07-2019 19:54:17 24.9 C 20 %
3821 30-07-2019 20:06:17 25 C 20 %
3822 30-07-2019 20:18:17 24.9 C 20 %
3823 30-07-2019 20:30:17 25 C 20 %
3824 30-07-2019 20:42:18 25.1 C 20 %
3825 30-07-2019 20:54:17 24.8 C 20 %
Sensor: Nr:Datum:Temp:Feuchte:
Aussen-T/F 3826 30-07-2019 21:06:17 24.1 C 20 %
3827 30-07-2019 21:18:17 23.9 C 20 %
3828 30-07-2019 21:30:17 23.3 C 20 %
3829 30-07-2019 21:42:17 23.1 C 20 %
3830 30-07-2019 21:54:17 22.5 C 20 %
3831 30-07-2019 22:06:18 22.4 C 20 %
3832 30-07-2019 22:18:18 22.4 C 20 %
3833 30-07-2019 22:30:18 22.1 C 20 %
3834 30-07-2019 22:42:18 22 C 20 %
3835 30-07-2019 22:54:17 22 C 20 %
3836 30-07-2019 23:06:18 21.2 C 20 %
3837 30-07-2019 23:18:18 21.1 C 20 %
3838 30-07-2019 23:30:18 20.8 C 20 %
3839 30-07-2019 23:42:18 20.7 C 20 %
3840 30-07-2019 23:54:18 20.7 C 20 %
3841 31-07-2019 00:06:18 20.6 C 20 %
3842 31-07-2019 00:18:18 20.6 C 20 %
3843 31-07-2019 00:30:18 20.4 C 20 %
3844 31-07-2019 00:42:18 20.5 C 20 %
3845 31-07-2019 00:54:17 20.6 C 20 %
3846 31-07-2019 01:06:18 20.7 C 20 %
3847 31-07-2019 01:18:18 20.8 C 20 %
3848 31-07-2019 01:30:18 20.6 C 20 %
3849 31-07-2019 01:42:18 20.7 C 20 %
3850 31-07-2019 01:54:17 20.4 C 20 %
Sensor: Nr:Datum:Temp:Feuchte:
Aussen-T/F 3851 31-07-2019 02:06:18 19.7 C 20 %
3852 31-07-2019 02:18:17 19.7 C 20 %
3853 31-07-2019 02:30:17 19.6 C 20 %
3854 31-07-2019 02:42:17 19.5 C 20 %
3855 31-07-2019 02:54:18 18.9 C 20 %
3856 31-07-2019 03:06:18 18.7 C 20 %
3857 31-07-2019 03:18:17 18.3 C 20 %
3858 31-07-2019 03:30:17 18.3 C 22 %
3859 31-07-2019 03:42:17 18.5 C 22 %
3860 31-07-2019 03:54:17 18.5 C 22 %
3861 31-07-2019 04:06:17 18.7 C 22 %
3862 31-07-2019 04:18:18 19.2 C 20 %
3863 31-07-2019 04:30:18 19.1 C 20 %
3864 31-07-2019 04:42:18 19.1 C 20 %
3865 31-07-2019 04:54:17 18.7 C 20 %
3866 31-07-2019 05:06:18 17.7 C 23 %
3867 31-07-2019 05:18:17 17.6 C 23 %
3868 31-07-2019 05:30:18 17.6 C 23 %
3869 31-07-2019 05:42:18 17.9 C 24 %
3870 31-07-2019 05:54:17 17.9 C 24 %
3871 31-07-2019 06:06:17 18 C 23 %
3872 31-07-2019 06:18:17 18 C 22 %
3873 31-07-2019 06:30:17 17.7 C 22 %
3874 31-07-2019 06:42:17 17.3 C 24 %
3875 31-07-2019 06:54:17 17.3 C 25 %
Sensor: Nr:Datum:Temp:Feuchte:
Aussen-T/F 3876 31-07-2019 07:06:18 17.2 C 25 %
3877 31-07-2019 07:18:18 17.4 C 25 %
3878 31-07-2019 07:30:18 17.6 C 25 %
3879 31-07-2019 07:42:18 17.8 C 23 %
3880 31-07-2019 07:54:17 18 C 22 %
3881 31-07-2019 08:06:18 18.2 C 21 %
3882 31-07-2019 08:18:17 18.4 C 22 %
3883 31-07-2019 08:30:18 18.9 C 20 %
3884 31-07-2019 08:42:18 19.4 C 20 %
3885 31-07-2019 08:54:18 19.7 C 20 %
3886 31-07-2019 09:06:18 19.8 C 20 %
3887 31-07-2019 09:18:18 20.2 C 20 %
3888 31-07-2019 09:30:18 20.7 C 20 %
3889 31-07-2019 09:42:18 21.9 C 20 %
3890 31-07-2019 09:54:17 21.5 C 20 %
3891 31-07-2019 10:06:18 21.8 C 20 %
3892 31-07-2019 10:18:18 22.2 C 20 %
3893 31-07-2019 10:30:18 22.2 C 20 %
3894 31-07-2019 10:42:18 22.6 C 20 %
3895 31-07-2019 10:54:18 22.1 C 20 %
3896 31-07-2019 11:06:18 21.6 C 20 %
3897 31-07-2019 11:18:18 21.7 C 20 %
3898 31-07-2019 11:30:18 24.4 C 20 %
3899 31-07-2019 11:42:18 24.8 C 20 %
3900 31-07-2019 11:54:17 23.5 C 20 %
Sensor: Nr:Datum:Temp:Feuchte:
Aussen-T/F 3901 31-07-2019 12:06:18 23.1 C 20 %
3902 31-07-2019 12:18:18 23.6 C 20 %
3903 31-07-2019 12:30:18 23.6 C 20 %
3904 31-07-2019 12:42:18 23.5 C 20 %
3905 31-07-2019 12:54:17 23.5 C 20 %
3906 31-07-2019 13:06:17 23.6 C 20 %
3907 31-07-2019 13:18:17 24 C 20 %
3908 31-07-2019 13:30:18 24.8 C 20 %
3909 31-07-2019 13:42:18 24.7 C 20 %
3910 31-07-2019 13:54:18 24.7 C 20 %
3911 31-07-2019 14:06:17 24.9 C 20 %
3912 31-07-2019 14:18:17 25.4 C 20 %
3913 31-07-2019 14:30:17 25.9 C 20 %
3914 31-07-2019 14:42:17 26.4 C 20 %
3915 31-07-2019 14:54:18 26.6 C 20 %
3916 31-07-2019 15:06:18 26.7 C 20 %
3917 31-07-2019 15:18:18 27 C 20 %
3918 31-07-2019 15:30:18 27.6 C 20 %
3919 31-07-2019 15:42:18 26.7 C 20 %
3920 31-07-2019 15:54:18 26.3 C 20 %
3921 31-07-2019 16:06:18 27.3 C 20 %
3922 31-07-2019 16:18:18 25.5 C 20 %
3923 31-07-2019 16:30:18 25.4 C 20 %
3924 31-07-2019 16:42:18 25.2 C 20 %
3925 31-07-2019 16:54:17 25.7 C 20 %
Sensor: Nr:Datum:Temp:Feuchte:
Aussen-T/F 3926 31-07-2019 17:06:18 26.5 C 20 %
3927 31-07-2019 17:18:17 26.7 C 20 %
3928 31-07-2019 17:30:18 25.9 C 20 %
3929 31-07-2019 17:42:18 26.1 C 20 %
3930 31-07-2019 17:54:18 25.6 C 20 %
3931 31-07-2019 18:06:17 25 C 20 %
3932 31-07-2019 18:18:17 24.5 C 20 %
3933 31-07-2019 18:30:18 24.2 C 20 %
3934 31-07-2019 18:42:18 24.2 C 20 %
3935 31-07-2019 18:54:17 24.3 C 20 %
3936 31-07-2019 19:06:18 24.4 C 20 %
3937 31-07-2019 19:18:18 24.2 C 20 %
3938 31-07-2019 19:30:18 23.4 C 20 %
3939 31-07-2019 19:42:18 23.5 C 20 %
3940 31-07-2019 19:54:17 23.3 C 20 %
3941 31-07-2019 20:06:17 22.8 C 20 %
3942 31-07-2019 20:18:17 22.6 C 20 %
3943 31-07-2019 20:30:17 22.3 C 20 %
3944 31-07-2019 20:42:17 21.4 C 20 %
3945 31-07-2019 20:54:17 20.7 C 20 %
3946 31-07-2019 21:06:18 20.4 C 20 %
3947 31-07-2019 21:18:18 19.8 C 20 %
3948 31-07-2019 21:30:18 19.3 C 20 %
3949 31-07-2019 21:42:18 18.9 C 20 %
3950 31-07-2019 21:54:18 18.7 C 20 %
Sensor: Nr:Datum:Temp:Feuchte:
Aussen-T/F 3951 31-07-2019 22:06:18 18.5 C 20 %
3952 31-07-2019 22:18:18 18.9 C 20 %
3953 31-07-2019 22:30:18 19.1 C 20 %
3954 31-07-2019 22:42:18 19.2 C 20 %
3955 31-07-2019 22:54:17 19.5 C 20 %
3956 31-07-2019 23:06:18 19.4 C 20 %
3957 31-07-2019 23:18:18 19 C 20 %
3958 31-07-2019 23:30:18 18.3 C 20 %
3959 31-07-2019 23:42:18 17.5 C 20 %
3960 31-07-2019 23:54:18 17.3 C 20 %
3961 01-08-2019 00:06:18 16.9 C 20 %
3962 01-08-2019 00:18:18 17 C 20 %
3963 01-08-2019 00:30:18 16.8 C 20 %
3964 01-08-2019 00:42:18 16.4 C 20 %
3965 01-08-2019 00:54:17 16 C 20 %
3966 01-08-2019 01:06:18 15.5 C 20 %
3967 01-08-2019 01:18:18 15.4 C 20 %
3968 01-08-2019 01:30:18 15.3 C 20 %
3969 01-08-2019 01:42:18 15.1 C 20 %
3970 01-08-2019 01:54:17 15.1 C 20 %
3971 01-08-2019 02:06:17 14.8 C 22 %
3972 01-08-2019 02:18:18 14.7 C 24 %
3973 01-08-2019 02:30:18 14.7 C 25 %
3974 01-08-2019 02:42:18 14.8 C 25 %
3975 01-08-2019 02:54:18 14.8 C 25 %
Sensor: Nr:Datum:Temp:Feuchte:
Aussen-T/F 3976 01-08-2019 03:06:18 14.8 C 25 %
3977 01-08-2019 03:18:17 14.8 C 25 %
3978 01-08-2019 03:30:18 14 C 26 %
3979 01-08-2019 03:42:18 13.5 C 28 %
3980 01-08-2019 03:54:17 13.4 C 30 %
3981 01-08-2019 04:06:18 13.1 C 30 %
3982 01-08-2019 04:18:18 13.1 C 32 %
3983 01-08-2019 04:30:18 13 C 32 %
3984 01-08-2019 04:42:18 13.1 C 32 %
3985 01-08-2019 04:54:18 13 C 33 %
3986 01-08-2019 05:06:18 12.8 C 34 %
3987 01-08-2019 05:18:18 12.7 C 35 %
3988 01-08-2019 05:30:18 12.7 C 35 %
3989 01-08-2019 05:42:18 12.4 C 34 %
3990 01-08-2019 05:54:17 12.4 C 36 %
3991 01-08-2019 06:06:18 12.4 C 36 %
3992 01-08-2019 06:18:17 12.1 C 37 %
3993 01-08-2019 06:30:18 12.2 C 38 %
3994 01-08-2019 06:42:18 12.2 C 38 %
3995 01-08-2019 06:54:18 12.3 C 38 %
3996 01-08-2019 07:06:18 12.3 C 37 %
3997 01-08-2019 07:18:18 12.5 C 38 %
3998 01-08-2019 07:30:18 12.8 C 38 %
3999 01-08-2019 07:42:18 13.2 C 38 %
4000 01-08-2019 07:54:17 14.8 C 27 %
Sensor: Nr:Datum:Temp:Feuchte:
Aussen-T/F 4001 01-08-2019 08:06:18 15.5 C 23 %
4002 01-08-2019 08:18:17 16 C 21 %
4003 01-08-2019 08:30:17 16.2 C 20 %
4004 01-08-2019 08:42:17 16.7 C 20 %
4005 01-08-2019 08:54:18 17.1 C 20 %
4006 01-08-2019 09:06:18 18.1 C 20 %
4007 01-08-2019 09:18:17 18.3 C 20 %
4008 01-08-2019 09:30:17 18.3 C 20 %
4009 01-08-2019 09:42:17 19.6 C 20 %
4010 01-08-2019 09:54:17 20.9 C 20 %
4011 01-08-2019 10:06:17 20.9 C 20 %
4012 01-08-2019 10:18:17 21.3 C 20 %
4013 01-08-2019 10:30:17 21.2 C 20 %
4014 01-08-2019 10:42:17 21.7 C 20 %
4015 01-08-2019 10:54:17 21.9 C 20 %
4016 01-08-2019 11:06:17 22.1 C 20 %
4017 01-08-2019 11:18:18 22.9 C 20 %
4018 01-08-2019 11:30:18 23.6 C 20 %
4019 01-08-2019 11:42:18 23.6 C 20 %
4020 01-08-2019 11:54:17 23.8 C 20 %
4021 01-08-2019 12:06:17 23.6 C 20 %
4022 01-08-2019 12:18:17 23.6 C 20 %
4023 01-08-2019 12:30:17 23.5 C 20 %
4024 01-08-2019 12:42:17 22.4 C 20 %
4025 01-08-2019 12:54:18 22.7 C 20 %
Sensor: Nr:Datum:Temp:Feuchte:
Aussen-T/F 4026 01-08-2019 13:06:17 24 C 20 %
4027 01-08-2019 13:18:18 23.8 C 20 %
4028 01-08-2019 13:30:18 23.6 C 20 %
4029 01-08-2019 13:42:18 24.3 C 20 %
4030 01-08-2019 13:54:17 24.4 C 20 %
4031 01-08-2019 14:06:17 24.8 C 20 %
4032 01-08-2019 14:18:17 24.5 C 20 %
4033 01-08-2019 14:30:17 24.5 C 20 %
4034 01-08-2019 14:42:17 24.9 C 20 %
4035 01-08-2019 14:54:17 24.9 C 20 %
4036 01-08-2019 15:06:18 25.2 C 20 %
4037 01-08-2019 15:18:18 25.5 C 20 %
4038 01-08-2019 15:30:18 25.2 C 20 %
4039 01-08-2019 15:42:18 24.9 C 20 %
4040 01-08-2019 15:54:17 24.5 C 20 %
4041 01-08-2019 16:06:18 24.5 C 20 %
4042 01-08-2019 16:18:18 24.7 C 20 %
4043 01-08-2019 16:30:18 25.1 C 20 %
4044 01-08-2019 16:42:18 25.3 C 20 %
4045 01-08-2019 16:54:18 25.5 C 20 %
4046 01-08-2019 17:06:17 25.6 C 20 %
4047 01-08-2019 17:18:18 25.3 C 20 %
4048 01-08-2019 17:30:17 25.3 C 20 %
4049 01-08-2019 17:42:17 26.4 C 20 %
4050 01-08-2019 17:54:18 26.9 C 20 %
Sensor: Nr:Datum:Temp:Feuchte:
Aussen-T/F 4051 01-08-2019 18:06:18 27.5 C 20 %
4052 01-08-2019 18:18:17 26.7 C 20 %
4053 01-08-2019 18:30:18 25.9 C 20 %
4054 01-08-2019 18:42:18 26.6 C 20 %
4055 01-08-2019 18:54:17 27.4 C 20 %
4056 01-08-2019 19:06:18 27.5 C 20 %
4057 01-08-2019 19:18:18 26.8 C 20 %
4058 01-08-2019 19:30:18 26.3 C 20 %
4059 01-08-2019 19:42:18 25.8 C 20 %
4060 01-08-2019 19:54:18 25.4 C 20 %
4061 01-08-2019 20:06:18 25.1 C 20 %
4062 01-08-2019 20:18:18 24.5 C 20 %
4063 01-08-2019 20:30:17 24.1 C 20 %
4064 01-08-2019 20:42:17 23.1 C 20 %
4065 01-08-2019 20:54:17 21.9 C 20 %
4066 01-08-2019 21:06:18 21.3 C 20 %
4067 01-08-2019 21:18:18 20.9 C 20 %
4068 01-08-2019 21:30:18 20.5 C 20 %
4069 01-08-2019 21:42:18 20.4 C 20 %
4070 01-08-2019 21:54:18 20.2 C 20 %
4071 01-08-2019 22:06:18 19.9 C 20 %
4072 01-08-2019 22:18:18 19.7 C 20 %
4073 01-08-2019 22:30:18 19.2 C 20 %
4074 01-08-2019 22:42:18 19.6 C 20 %
4075 01-08-2019 22:54:17 19.6 C 20 %
Sensor: Nr:Datum:Temp:Feuchte:
Aussen-T/F 4076 01-08-2019 23:06:18 19.3 C 20 %
4077 01-08-2019 23:18:17 19.3 C 20 %
4078 01-08-2019 23:30:18 19.2 C 20 %
4079 01-08-2019 23:42:18 19.2 C 20 %
4080 01-08-2019 23:54:17 19.2 C 20 %
4081 02-08-2019 00:06:18 19 C 20 %
4082 02-08-2019 00:18:18 18.9 C 20 %
4083 02-08-2019 00:30:18 18.8 C 20 %
4084 02-08-2019 00:42:18 18.7 C 20 %
4085 02-08-2019 00:54:17 18.8 C 20 %
4086 02-08-2019 01:06:18 18.6 C 20 %
4087 02-08-2019 01:18:18 18.5 C 20 %
4088 02-08-2019 01:30:18 18.4 C 20 %
4089 02-08-2019 01:42:18 18.3 C 20 %
4090 02-08-2019 01:54:17 18.2 C 20 %
4091 02-08-2019 02:06:18 18 C 21 %
4092 02-08-2019 02:18:17 18.1 C 21 %
4093 02-08-2019 02:30:18 17.9 C 21 %
4094 02-08-2019 02:42:18 17.6 C 22 %
4095 02-08-2019 02:54:18 17.4 C 23 %
4096 02-08-2019 03:06:17 17.2 C 24 %
4097 02-08-2019 03:18:17 16.8 C 25 %
4098 02-08-2019 03:30:18 16.7 C 26 %
4099 02-08-2019 03:42:18 16.6 C 26 %
4100 02-08-2019 03:54:18 16.4 C 27 %
Sensor: Nr:Datum:Temp:Feuchte:
Aussen-T/F 4101 02-08-2019 04:06:17 16.4 C 28 %
4102 02-08-2019 04:18:17 16.2 C 28 %
4103 02-08-2019 04:30:18 16.2 C 29 %
4104 02-08-2019 04:42:18 16.3 C 30 %
4105 02-08-2019 04:54:18 16.4 C 30 %
4106 02-08-2019 05:06:17 16.3 C 29 %
4107 02-08-2019 05:18:18 16.3 C 30 %
4108 02-08-2019 05:30:18 16.2 C 30 %
4109 02-08-2019 05:42:18 16.3 C 30 %
4110 02-08-2019 05:54:18 16.4 C 30 %
4111 02-08-2019 06:06:18 16.3 C 30 %
4112 02-08-2019 06:18:17 16.3 C 31 %
4113 02-08-2019 06:30:18 16.6 C 31 %
4114 02-08-2019 06:42:18 16.7 C 31 %
4115 02-08-2019 06:54:18 16.9 C 31 %
4116 02-08-2019 07:06:18 17.1 C 30 %
4117 02-08-2019 07:18:17 17.4 C 29 %
4118 02-08-2019 07:30:17 17.6 C 28 %
4119 02-08-2019 07:42:17 17.8 C 27 %
4120 02-08-2019 07:54:17 18 C 26 %
4121 02-08-2019 08:06:17 18.2 C 25 %
4122 02-08-2019 08:18:17 18.4 C 26 %
4123 02-08-2019 08:30:17 18.7 C 25 %
4124 02-08-2019 08:42:17 18.8 C 25 %
4125 02-08-2019 08:54:18 18.9 C 25 %
Sensor: Nr:Datum:Temp:Feuchte:
Aussen-T/F 4126 02-08-2019 09:06:17 19.3 C 20 %
4127 02-08-2019 09:18:17 19.8 C 20 %
4128 02-08-2019 09:30:17 20.4 C 20 %
4129 02-08-2019 09:42:18 21.1 C 20 %
4130 02-08-2019 09:54:17 21 C 20 %
4131 02-08-2019 10:06:17 20.9 C 20 %
4132 02-08-2019 10:18:17 21.5 C 20 %
4133 02-08-2019 10:30:17 21.6 C 20 %
4134 02-08-2019 10:42:17 21.9 C 20 %
4135 02-08-2019 10:54:18 23 C 20 %
4136 02-08-2019 11:06:17 23.6 C 20 %
4137 02-08-2019 11:18:18 24 C 20 %
4138 02-08-2019 11:30:17 24.6 C 20 %
4139 02-08-2019 11:42:17 24 C 20 %
4140 02-08-2019 11:54:17 23.1 C 20 %
4141 02-08-2019 12:06:17 20.6 C 24 %
4142 02-08-2019 12:18:17 19.8 C 30 %
4143 02-08-2019 12:30:17 20 C 27 %
4144 02-08-2019 12:42:17 20.2 C 25 %
4145 02-08-2019 12:54:18 20.7 C 20 %
4146 02-08-2019 13:06:17 21.2 C 20 %
4147 02-08-2019 13:18:18 21.5 C 20 %
4148 02-08-2019 13:30:17 22.5 C 20 %
4149 02-08-2019 13:42:17 22.5 C 20 %
4150 02-08-2019 13:54:17 22.7 C 20 %
Sensor: Nr:Datum:Temp:Feuchte:
Aussen-T/F 4151 02-08-2019 14:06:17 23.3 C 20 %
4152 02-08-2019 14:18:17 23.7 C 20 %
4153 02-08-2019 14:30:17 24.3 C 20 %
4154 02-08-2019 14:42:17 25.3 C 20 %
4155 02-08-2019 14:54:17 26 C 20 %
4156 02-08-2019 15:06:17 25.7 C 20 %
4157 02-08-2019 15:18:17 25.9 C 20 %
4158 02-08-2019 15:30:17 24.9 C 20 %
4159 02-08-2019 15:42:17 25.1 C 20 %
4160 02-08-2019 15:54:17 26 C 20 %
4161 02-08-2019 16:06:17 26.1 C 20 %
4162 02-08-2019 16:18:17 27.2 C 20 %
4163 02-08-2019 16:30:18 27.1 C 20 %
4164 02-08-2019 16:42:18 25.5 C 20 %
4165 02-08-2019 16:54:17 25.7 C 20 %
4166 02-08-2019 17:06:18 27.5 C 20 %
4167 02-08-2019 17:18:17 27.7 C 20 %
4168 02-08-2019 17:30:18 28.1 C 20 %
4169 02-08-2019 17:42:18 26.4 C 20 %
4170 02-08-2019 17:54:17 26.2 C 20 %
4171 02-08-2019 18:06:17 26.3 C 20 %
4172 02-08-2019 18:18:17 25.9 C 20 %
4173 02-08-2019 18:30:17 24.4 C 20 %
4174 02-08-2019 18:42:17 24.9 C 20 %
4175 02-08-2019 18:54:18 25 C 20 %
Sensor: Nr:Datum:Temp:Feuchte:
Aussen-T/F 4176 02-08-2019 19:06:17 24.4 C 20 %
4177 02-08-2019 19:18:17 24.2 C 20 %
4178 02-08-2019 19:30:17 23.9 C 20 %
4179 02-08-2019 19:42:17 23.8 C 20 %
4180 02-08-2019 19:54:18 23.4 C 20 %
4181 02-08-2019 20:06:17 23 C 20 %
4182 02-08-2019 20:18:17 22.6 C 20 %
4183 02-08-2019 20:30:17 22.8 C 20 %
4184 02-08-2019 20:42:17 22.4 C 20 %
4185 02-08-2019 20:54:17 21.7 C 20 %
4186 02-08-2019 21:06:17 21.1 C 20 %
4187 02-08-2019 21:18:17 20.7 C 20 %
4188 02-08-2019 21:30:17 21.6 C 20 %
4189 02-08-2019 21:42:17 21.7 C 20 %
4190 02-08-2019 21:54:18 21.7 C 20 %
4191 02-08-2019 22:06:17 20.9 C 20 %
4192 02-08-2019 22:18:17 21.1 C 20 %
4193 02-08-2019 22:30:17 21.2 C 20 %
4194 02-08-2019 22:42:17 21.2 C 20 %
4195 02-08-2019 22:54:17 21.2 C 20 %
4196 02-08-2019 23:06:17 19.5 C 20 %
4197 02-08-2019 23:18:17 18.2 C 31 %
4198 02-08-2019 23:30:17 17.5 C 37 %
4199 02-08-2019 23:42:17 17.1 C 39 %
4200 02-08-2019 23:54:17 17.1 C 39 %
Sensor: Nr:Datum:Temp:Feuchte:
Aussen-T/F 4201 03-08-2019 00:06:17 17.4 C 36 %
4202 03-08-2019 00:18:18 17.7 C 35 %
4203 03-08-2019 00:30:17 18.6 C 26 %
4204 03-08-2019 00:42:17 18.6 C 26 %
4205 03-08-2019 00:54:18 18.6 C 26 %
4206 03-08-2019 01:06:17 18.6 C 26 %
4207 03-08-2019 01:19:17 18.6 C 26 %
4208 03-08-2019 01:30:17 18.5 C 27 %
4209 03-08-2019 01:42:17 18.4 C 28 %
4210 03-08-2019 01:54:17 18.4 C 30 %
4211 03-08-2019 02:06:17 18.4 C 30 %
4212 03-08-2019 02:18:17 18.5 C 30 %
4213 03-08-2019 02:30:17 18.5 C 30 %
4214 03-08-2019 02:42:17 18.4 C 31 %
4215 03-08-2019 02:54:17 18.3 C 31 %
4216 03-08-2019 03:06:17 18.3 C 31 %
4217 03-08-2019 03:18:18 18.3 C 32 %
4218 03-08-2019 03:30:17 18.3 C 33 %
4219 03-08-2019 03:42:17 18.3 C 33 %
4220 03-08-2019 03:54:17 18.3 C 34 %
4221 03-08-2019 04:06:17 18.2 C 35 %
4222 03-08-2019 04:19:17 18.3 C 35 %
4223 03-08-2019 04:30:17 18.3 C 35 %
4224 03-08-2019 04:42:17 18.3 C 35 %
4225 03-08-2019 04:54:18 18.2 C 35 %
Sensor: Nr:Datum:Temp:Feuchte:
Aussen-T/F 4226 03-08-2019 05:06:17 18.3 C 35 %
4227 03-08-2019 05:18:18 18.3 C 35 %
4228 03-08-2019 05:30:17 18.2 C 35 %
4229 03-08-2019 05:42:17 18.2 C 35 %
4230 03-08-2019 05:55:17 18.1 C 35 %
4231 03-08-2019 06:06:18 18 C 35 %
4232 03-08-2019 06:18:17 18.1 C 35 %
4233 03-08-2019 06:30:18 17.9 C 35 %
4234 03-08-2019 06:42:18 18 C 35 %
4235 03-08-2019 06:54:17 18 C 34 %
4236 03-08-2019 07:07:17 18 C 33 %
4237 03-08-2019 07:18:17 18 C 31 %
4238 03-08-2019 07:31:17 18.1 C 31 %
4239 03-08-2019 07:43:17 18.1 C 30 %
4240 03-08-2019 07:54:18 17.9 C 31 %
4241 03-08-2019 08:06:17 18 C 31 %
4242 03-08-2019 08:19:17 18 C 31 %
4243 03-08-2019 08:30:17 18.3 C 30 %
4244 03-08-2019 08:42:17 18.4 C 28 %
4245 03-08-2019 08:54:17 18.4 C 26 %
4246 03-08-2019 09:07:17 18.5 C 24 %
4247 03-08-2019 09:18:17 18.9 C 22 %
4248 03-08-2019 09:31:17 18.9 C 21 %
4249 03-08-2019 09:43:17 19.2 C 20 %
4250 03-08-2019 09:54:17 19.3 C 20 %
Sensor: Nr:Datum:Temp:Feuchte:
Aussen-T/F 4251 03-08-2019 10:07:17 19.8 C 20 %
4252 03-08-2019 10:18:17 20.5 C 20 %
4253 03-08-2019 10:31:17 20 C 20 %
4254 03-08-2019 10:43:17 20.3 C 20 %
4255 03-08-2019 10:54:17 20.5 C 20 %
4256 03-08-2019 11:06:18 20.5 C 20 %
4257 03-08-2019 11:19:17 20.7 C 20 %
4258 03-08-2019 11:31:17 21.8 C 20 %
4259 03-08-2019 11:43:17 22.7 C 20 %
4260 03-08-2019 11:54:18 22 C 20 %
4261 03-08-2019 12:07:17 22.1 C 20 %
4262 03-08-2019 12:18:17 22.5 C 20 %
4263 03-08-2019 12:31:17 22.8 C 20 %
4264 03-08-2019 12:43:17 22.6 C 20 %
4265 03-08-2019 12:54:18 22.8 C 20 %
4266 03-08-2019 13:07:17 22.6 C 20 %
4267 03-08-2019 13:19:17 23 C 20 %
4268 03-08-2019 13:31:17 23.1 C 20 %
4269 03-08-2019 13:43:17 22.7 C 20 %
4270 03-08-2019 13:54:18 22.2 C 20 %
4271 03-08-2019 14:07:17 22.1 C 20 %
4272 03-08-2019 14:19:17 22 C 20 %
4273 03-08-2019 14:30:18 23.2 C 20 %
4274 03-08-2019 14:42:18 23.9 C 20 %
4275 03-08-2019 14:55:17 24.6 C 20 %
Sensor: Nr:Datum:Temp:Feuchte:
Aussen-T/F 4276 03-08-2019 15:06:18 24 C 20 %
4277 03-08-2019 15:19:17 24.8 C 20 %
4278 03-08-2019 15:31:17 24.2 C 20 %
4279 03-08-2019 15:43:17 24.9 C 20 %
4280 03-08-2019 15:55:17 25.1 C 20 %
4281 03-08-2019 16:06:18 25.8 C 20 %
4282 03-08-2019 16:19:17 25.9 C 20 %
4283 03-08-2019 16:30:18 26 C 20 %
4284 03-08-2019 16:42:18 26.4 C 20 %
4285 03-08-2019 16:55:17 26.1 C 20 %
4286 03-08-2019 17:06:18 26.5 C 20 %
4287 03-08-2019 17:19:17 25.8 C 20 %
4288 03-08-2019 17:30:18 25.8 C 20 %
4289 03-08-2019 17:42:18 26.3 C 20 %
4290 03-08-2019 17:55:17 25.8 C 20 %
4291 03-08-2019 18:07:17 26.3 C 20 %
4292 03-08-2019 18:19:18 26.5 C 20 %
4293 03-08-2019 18:31:17 25.5 C 20 %
4294 03-08-2019 18:43:17 25.2 C 20 %
4295 03-08-2019 18:55:17 26.1 C 20 %
4296 03-08-2019 19:07:17 25.5 C 20 %
4297 03-08-2019 19:19:17 25.1 C 20 %
4298 03-08-2019 19:31:17 23.9 C 20 %
4299 03-08-2019 19:43:17 24.1 C 20 %
4300 03-08-2019 19:55:17 23.7 C 20 %
Sensor: Nr:Datum:Temp:Feuchte:
Aussen-T/F 4301 03-08-2019 20:07:17 23.4 C 20 %
4302 03-08-2019 20:19:17 23.2 C 20 %
4303 03-08-2019 20:31:17 22.8 C 20 %
4304 03-08-2019 20:43:18 22.3 C 20 %
4305 03-08-2019 20:55:17 22 C 20 %
4306 03-08-2019 21:07:17 21.6 C 20 %
4307 03-08-2019 21:19:17 20.8 C 20 %
4308 03-08-2019 21:31:17 20.4 C 20 %
4309 03-08-2019 21:43:18 20.1 C 20 %
4310 03-08-2019 21:55:17 19 C 20 %
4311 03-08-2019 22:07:18 18.5 C 20 %
4312 03-08-2019 22:19:17 18.1 C 20 %
4313 03-08-2019 22:31:18 17.9 C 20 %
4314 03-08-2019 22:43:18 17.6 C 20 %
4315 03-08-2019 22:55:17 17.7 C 20 %
4316 03-08-2019 23:07:18 17.5 C 22 %
4317 03-08-2019 23:19:17 17.4 C 24 %
4318 03-08-2019 23:31:17 17.1 C 24 %
4319 03-08-2019 23:43:17 16.8 C 26 %
4320 03-08-2019 23:55:17 16.7 C 26 %
4321 04-08-2019 00:07:17 16.5 C 27 %
4322 04-08-2019 00:19:17 16.3 C 28 %
4323 04-08-2019 00:31:17 16.1 C 29 %
4324 04-08-2019 00:43:17 16 C 30 %
4325 04-08-2019 00:55:18 15.7 C 31 %
Sensor: Nr:Datum:Temp:Feuchte:
Aussen-T/F 4326 04-08-2019 01:07:17 15.6 C 33 %
4327 04-08-2019 01:19:18 15.1 C 34 %
4328 04-08-2019 01:31:17 14.8 C 36 %
4329 04-08-2019 01:43:17 14.6 C 37 %
4330 04-08-2019 01:55:17 14.3 C 37 %
4331 04-08-2019 02:07:18 14.2 C 38 %
4332 04-08-2019 02:19:17 13.9 C 40 %
4333 04-08-2019 02:31:17 13.8 C 41 %
4334 04-08-2019 02:43:17 13.8 C 41 %
4335 04-08-2019 02:55:17 13.6 C 41 %
4336 04-08-2019 03:07:18 13.6 C 41 %
4337 04-08-2019 03:19:17 13.4 C 41 %
4338 04-08-2019 03:31:18 13.4 C 42 %
4339 04-08-2019 03:43:18 13.2 C 41 %
4340 04-08-2019 03:55:17 13 C 42 %
4341 04-08-2019 04:07:17 13 C 42 %
4342 04-08-2019 04:19:17 13 C 43 %
4343 04-08-2019 04:31:17 13 C 43 %
4344 04-08-2019 04:43:17 12.9 C 44 %
4345 04-08-2019 04:55:17 12.8 C 44 %
4346 04-08-2019 05:07:17 12.8 C 44 %
4347 04-08-2019 05:19:17 12.7 C 44 %
4348 04-08-2019 05:31:17 12.5 C 44 %
4349 04-08-2019 05:43:17 12.4 C 44 %
4350 04-08-2019 05:55:17 12.4 C 45 %
Sensor: Nr:Datum:Temp:Feuchte:
Aussen-T/F 4351 04-08-2019 06:07:17 12.4 C 45 %
4352 04-08-2019 06:19:17 12.4 C 45 %
4353 04-08-2019 06:31:17 12.5 C 45 %
4354 04-08-2019 06:43:17 12.7 C 45 %
4355 04-08-2019 06:55:17 12.8 C 45 %
4356 04-08-2019 07:07:17 12.8 C 45 %
4357 04-08-2019 07:19:16 13 C 44 %
4358 04-08-2019 07:31:17 13.1 C 44 %
4359 04-08-2019 07:43:17 13.3 C 44 %
4360 04-08-2019 07:55:17 13.6 C 43 %
4361 04-08-2019 08:07:17 13.8 C 43 %
4362 04-08-2019 08:19:17 14 C 42 %
4363 04-08-2019 08:31:17 14.2 C 42 %
4364 04-08-2019 08:43:17 14.7 C 42 %
4365 04-08-2019 08:55:17 15 C 40 %
4366 04-08-2019 09:07:17 15.5 C 38 %
4367 04-08-2019 09:19:17 16 C 35 %
4368 04-08-2019 09:31:17 16.6 C 33 %
4369 04-08-2019 09:43:17 17 C 32 %
4370 04-08-2019 09:55:17 18.4 C 25 %
4371 04-08-2019 10:07:17 18.4 C 24 %
4372 04-08-2019 10:19:16 18.4 C 24 %
4373 04-08-2019 10:31:17 18.4 C 24 %
4374 04-08-2019 10:43:17 20.5 C 20 %
4375 04-08-2019 10:55:17 21.6 C 20 %
Sensor: Nr:Datum:Temp:Feuchte:
Aussen-T/F 4376 04-08-2019 11:07:17 23.1 C 20 %
4377 04-08-2019 11:19:17 23 C 20 %
4378 04-08-2019 11:31:17 25.1 C 20 %
4379 04-08-2019 11:43:17 25.2 C 20 %
4380 04-08-2019 11:55:17 24.4 C 20 %
4381 04-08-2019 12:07:17 24 C 20 %
4382 04-08-2019 12:19:17 23.7 C 20 %
4383 04-08-2019 12:31:16 24.2 C 20 %
4384 04-08-2019 12:43:16 24.7 C 20 %
4385 04-08-2019 12:55:17 24.7 C 20 %
4386 04-08-2019 13:07:17 24.7 C 20 %
4387 04-08-2019 13:19:17 25 C 20 %
4388 04-08-2019 13:31:17 25.1 C 20 %
4389 04-08-2019 13:43:17 25.3 C 20 %
4390 04-08-2019 13:55:17 25.4 C 20 %
4391 04-08-2019 14:07:16 25.8 C 20 %
4392 04-08-2019 14:19:16 26.3 C 20 %
4393 04-08-2019 14:31:17 27 C 20 %
4394 04-08-2019 14:43:17 27.2 C 20 %
4395 04-08-2019 14:55:16 28 C 20 %
4396 04-08-2019 15:07:16 28.5 C 20 %
4397 04-08-2019 15:19:16 28.2 C 20 %
4398 04-08-2019 15:31:17 29.4 C 20 %
4399 04-08-2019 15:43:17 30.4 C 20 %
4400 04-08-2019 15:55:16 30.8 C 20 %
Sensor: Nr:Datum:Temp:Feuchte:
Aussen-T/F 4401 04-08-2019 16:07:16 31 C 20 %
4402 04-08-2019 16:19:16 30.6 C 20 %
4403 04-08-2019 16:31:17 30.2 C 20 %
4404 04-08-2019 16:43:18 30.6 C 20 %
4405 04-08-2019 16:55:17 30.8 C 20 %
4406 04-08-2019 17:07:16 31 C 20 %
4407 04-08-2019 17:19:17 31.9 C 20 %
4408 04-08-2019 17:31:16 32.2 C 20 %
4409 04-08-2019 17:43:16 32.5 C 20 %
4410 04-08-2019 17:55:16 31.9 C 20 %
4411 04-08-2019 18:07:16 31.5 C 20 %
4412 04-08-2019 18:19:16 31.5 C 20 %
4413 04-08-2019 18:31:16 32.5 C 20 %
4414 04-08-2019 18:43:16 31.4 C 20 %
4415 04-08-2019 18:55:17 30.4 C 20 %
4416 04-08-2019 19:07:16 29.4 C 20 %
4417 04-08-2019 19:19:17 28.9 C 20 %
4418 04-08-2019 19:31:16 28.3 C 20 %
4419 04-08-2019 19:43:16 27.4 C 20 %
4420 04-08-2019 19:55:17 26.6 C 20 %
4421 04-08-2019 20:07:16 26.1 C 20 %
4422 04-08-2019 20:19:16 25.6 C 20 %
4423 04-08-2019 20:31:17 24.9 C 20 %
4424 04-08-2019 20:43:17 24.2 C 20 %
4425 04-08-2019 20:55:16 23.5 C 20 %
Sensor: Nr:Datum:Temp:Feuchte:
Aussen-T/F 4426 04-08-2019 21:07:16 22.8 C 20 %
4427 04-08-2019 21:19:16 22.4 C 20 %
4428 04-08-2019 21:31:16 22.1 C 20 %
4429 04-08-2019 21:43:16 22 C 20 %
4430 04-08-2019 21:55:16 21.8 C 20 %
4431 04-08-2019 22:07:17 22 C 20 %
4432 04-08-2019 22:19:16 22 C 20 %
4433 04-08-2019 22:31:16 22.4 C 20 %
4434 04-08-2019 22:43:16 22.3 C 20 %
4435 04-08-2019 22:55:16 22.5 C 20 %
4436 04-08-2019 23:07:16 22.6 C 20 %
4437 04-08-2019 23:19:16 22.6 C 20 %
4438 04-08-2019 23:31:16 22.9 C 20 %
4439 04-08-2019 23:43:16 23.3 C 20 %
4440 04-08-2019 23:55:16 23.5 C 20 %
4441 05-08-2019 00:07:16 23.5 C 20 %
4442 05-08-2019 00:19:16 23.6 C 20 %
4443 05-08-2019 00:31:16 23.1 C 20 %
4444 05-08-2019 00:43:16 22.9 C 20 %
4445 05-08-2019 00:55:16 22.3 C 20 %
4446 05-08-2019 01:07:16 21.7 C 20 %
4447 05-08-2019 01:19:16 21.4 C 20 %
4448 05-08-2019 01:31:16 21.1 C 20 %
4449 05-08-2019 01:43:16 20.9 C 20 %
4450 05-08-2019 01:55:16 20.5 C 20 %
Sensor: Nr:Datum:Temp:Feuchte:
Aussen-T/F 4451 05-08-2019 02:07:15 20.2 C 20 %
4452 05-08-2019 02:19:16 20.1 C 20 %
4453 05-08-2019 02:31:16 20.1 C 20 %
4454 05-08-2019 02:43:16 19.9 C 20 %
4455 05-08-2019 02:55:18 19.8 C 20 %
4456 05-08-2019 03:07:17 19.6 C 20 %
4457 05-08-2019 03:19:17 19.5 C 20 %
4458 05-08-2019 03:31:17 19.4 C 20 %
4459 05-08-2019 03:43:17 19.5 C 20 %
4460 05-08-2019 03:55:18 19.7 C 20 %
4461 05-08-2019 04:07:17 19.1 C 20 %
4462 05-08-2019 04:19:18 18.7 C 26 %
4463 05-08-2019 04:31:17 18.8 C 25 %
4464 05-08-2019 04:43:17 19 C 22 %
4465 05-08-2019 04:55:18 19.7 C 20 %
4466 05-08-2019 05:07:17 19.4 C 21 %
4467 05-08-2019 05:19:17 19.4 C 21 %
4468 05-08-2019 05:31:17 19.7 C 20 %
4469 05-08-2019 05:43:17 19.1 C 25 %
4470 05-08-2019 05:55:18 18.2 C 35 %
4471 05-08-2019 06:07:17 18.3 C 34 %
4472 05-08-2019 06:19:17 17.8 C 37 %
4473 05-08-2019 06:31:17 17.6 C 43 %
4474 05-08-2019 06:43:17 17.5 C 44 %
4475 05-08-2019 06:55:17 17.2 C 44 %
Sensor: Nr:Datum:Temp:Feuchte:
Aussen-T/F 4476 05-08-2019 07:07:17 17.2 C 45 %
4477 05-08-2019 07:19:18 17.1 C 46 %
4478 05-08-2019 07:31:17 17.3 C 47 %
4479 05-08-2019 07:43:17 16.8 C 47 %
4480 05-08-2019 07:55:17 17.1 C 47 %
4481 05-08-2019 08:07:17 17.2 C 48 %
4482 05-08-2019 08:19:18 17.2 C 47 %
4483 05-08-2019 08:31:17 17.7 C 49 %
4484 05-08-2019 08:43:17 17.7 C 48 %
4485 05-08-2019 08:55:17 17.9 C 48 %
4486 05-08-2019 09:07:17 18.1 C 46 %
4487 05-08-2019 09:19:17 18.5 C 45 %
4488 05-08-2019 09:31:17 18.9 C 41 %
4489 05-08-2019 09:43:17 19.4 C 39 %
4490 05-08-2019 09:55:18 19.7 C 36 %
4491 05-08-2019 10:07:17 20.4 C 34 %
4492 05-08-2019 10:19:17 20.8 C 32 %
4493 05-08-2019 10:31:17 21 C 33 %
4494 05-08-2019 10:43:17 21.2 C 28 %
4495 05-08-2019 10:55:17 21.6 C 27 %
4496 05-08-2019 11:07:17 22.2 C 25 %
4497 05-08-2019 11:19:17 22.5 C 25 %
4498 05-08-2019 11:31:17 23.2 C 24 %
4499 05-08-2019 11:43:17 23.9 C 21 %
4500 05-08-2019 11:55:17 24.2 C 20 %
Sensor: Nr:Datum:Temp:Feuchte:
Aussen-T/F 4501 05-08-2019 12:07:17 24 C 20 %
4502 05-08-2019 12:19:17 24.2 C 20 %
4503 05-08-2019 12:31:17 24.7 C 20 %
4504 05-08-2019 12:43:17 25.2 C 20 %
4505 05-08-2019 12:55:18 25.5 C 20 %
4506 05-08-2019 13:07:17 25.8 C 20 %
4507 05-08-2019 13:19:17 26.1 C 20 %
4508 05-08-2019 13:31:17 26.6 C 20 %
4509 05-08-2019 13:43:17 27 C 20 %
4510 05-08-2019 13:55:17 27 C 20 %
4511 05-08-2019 14:07:17 27.1 C 20 %
4512 05-08-2019 14:19:17 27.7 C 20 %
4513 05-08-2019 14:31:17 27.7 C 20 %
4514 05-08-2019 14:43:17 27.7 C 20 %
4515 05-08-2019 14:55:17 28.3 C 20 %
4516 05-08-2019 15:07:17 28.4 C 20 %
4517 05-08-2019 15:19:17 28.8 C 20 %
4518 05-08-2019 15:31:17 28.9 C 20 %
4519 05-08-2019 15:43:17 28.9 C 20 %
4520 05-08-2019 15:55:18 29.4 C 20 %
4521 05-08-2019 16:07:17 29.4 C 20 %
4522 05-08-2019 16:19:18 29.6 C 20 %
4523 05-08-2019 16:31:17 29.2 C 20 %
4524 05-08-2019 16:43:17 28.9 C 20 %
4525 05-08-2019 16:55:17 28.6 C 20 %
Sensor: Nr:Datum:Temp:Feuchte:
Aussen-T/F 4526 05-08-2019 17:07:18 28.8 C 20 %
4527 05-08-2019 17:19:17 28.8 C 20 %
4528 05-08-2019 17:31:18 28.7 C 20 %
4529 05-08-2019 17:43:18 28.3 C 20 %
4530 05-08-2019 17:55:17 28.2 C 20 %
4531 05-08-2019 18:07:18 28.2 C 20 %
4532 05-08-2019 18:19:17 27.9 C 20 %
4533 05-08-2019 18:31:18 27.6 C 20 %
4534 05-08-2019 18:43:18 27.6 C 20 %
4535 05-08-2019 18:55:17 27.2 C 20 %
4536 05-08-2019 19:07:17 27 C 20 %
4537 05-08-2019 19:19:18 26.8 C 20 %
4538 05-08-2019 19:31:17 26.7 C 20 %
4539 05-08-2019 19:43:17 26.4 C 20 %
4540 05-08-2019 19:55:18 26 C 20 %
4541 05-08-2019 20:07:17 26 C 20 %
4542 05-08-2019 20:19:18 25.2 C 20 %
4543 05-08-2019 20:31:17 24.3 C 20 %
4544 05-08-2019 20:43:17 23.7 C 20 %
4545 05-08-2019 20:55:17 22.4 C 20 %
4546 05-08-2019 21:07:17 21.9 C 20 %
4547 05-08-2019 21:19:17 21.6 C 20 %
4548 05-08-2019 21:31:17 21.2 C 20 %
4549 05-08-2019 21:43:17 20.8 C 20 %
4550 05-08-2019 21:55:17 20.5 C 20 %
Sensor: Nr:Datum:Temp:Feuchte:
Aussen-T/F 4551 05-08-2019 22:07:18 20.4 C 20 %
4552 05-08-2019 22:19:17 20.3 C 20 %
4553 05-08-2019 22:31:17 20 C 20 %
4554 05-08-2019 22:43:17 20 C 20 %
4555 05-08-2019 22:55:17 19.8 C 20 %
4556 05-08-2019 23:07:18 19.5 C 20 %
4557 05-08-2019 23:19:17 19.2 C 20 %
4558 05-08-2019 23:31:18 18.7 C 21 %
4559 05-08-2019 23:43:18 18.5 C 22 %
4560 05-08-2019 23:55:17 18.2 C 22 %
4561 06-08-2019 00:07:17 18 C 24 %
4562 06-08-2019 00:19:17 17.9 C 25 %
4563 06-08-2019 00:31:17 17.7 C 25 %
4564 06-08-2019 00:43:17 17.7 C 25 %
4565 06-08-2019 00:55:17 17.7 C 25 %
4566 06-08-2019 01:07:18 17.1 C 27 %
4567 06-08-2019 01:19:17 17 C 27 %
4568 06-08-2019 01:31:17 16.9 C 28 %
4569 06-08-2019 01:43:17 16.8 C 28 %
4570 06-08-2019 01:55:17 16.7 C 28 %
4571 06-08-2019 02:07:18 16.5 C 30 %
4572 06-08-2019 02:19:17 16.6 C 30 %
4573 06-08-2019 02:31:18 17.2 C 29 %
4574 06-08-2019 02:43:18 17.7 C 27 %
4575 06-08-2019 02:55:17 17.6 C 28 %
Sensor: Nr:Datum:Temp:Feuchte:
Aussen-T/F 4576 06-08-2019 03:07:17 17.6 C 28 %
4577 06-08-2019 03:19:17 17.6 C 29 %
4578 06-08-2019 03:31:17 17.7 C 29 %
4579 06-08-2019 03:43:18 17.5 C 28 %
4580 06-08-2019 03:55:17 17.8 C 27 %
4581 06-08-2019 04:07:18 17.5 C 28 %
4582 06-08-2019 04:19:17 17.4 C 29 %
4583 06-08-2019 04:31:17 16.8 C 30 %
4584 06-08-2019 04:43:17 16.8 C 31 %
4585 06-08-2019 04:55:18 17 C 30 %
4586 06-08-2019 05:07:17 16.6 C 31 %
4587 06-08-2019 05:19:18 16.5 C 32 %
4588 06-08-2019 05:31:17 16.5 C 33 %
4589 06-08-2019 05:43:17 16.5 C 32 %
4590 06-08-2019 05:55:18 16.4 C 32 %
4591 06-08-2019 06:07:17 16.2 C 34 %
4592 06-08-2019 06:19:17 16.7 C 33 %
4593 06-08-2019 06:31:18 17.2 C 30 %
4594 06-08-2019 06:43:18 17.3 C 30 %
4595 06-08-2019 06:55:17 17.3 C 30 %
4596 06-08-2019 07:07:18 17.9 C 27 %
4597 06-08-2019 07:19:17 18.1 C 25 %
4598 06-08-2019 07:31:18 18.3 C 26 %
4599 06-08-2019 07:43:18 18.5 C 26 %
4600 06-08-2019 07:55:17 18.6 C 25 %
Sensor: Nr:Datum:Temp:Feuchte:
Aussen-T/F 4601 06-08-2019 08:07:17 18.6 C 25 %
4602 06-08-2019 08:19:17 19 C 25 %
4603 06-08-2019 08:31:18 18.9 C 25 %
4604 06-08-2019 08:43:18 19.1 C 25 %
4605 06-08-2019 08:55:17 19.4 C 25 %
4606 06-08-2019 09:07:17 20 C 20 %
4607 06-08-2019 09:19:17 20.3 C 20 %
4608 06-08-2019 09:31:17 20.4 C 20 %
4609 06-08-2019 09:43:17 21.1 C 20 %
4610 06-08-2019 09:55:17 21 C 20 %
4611 06-08-2019 10:07:18 19.4 C 24 %
4612 06-08-2019 10:19:17 18.6 C 36 %
4613 06-08-2019 10:31:18 18.7 C 41 %
4614 06-08-2019 10:43:18 18.5 C 41 %
4615 06-08-2019 10:55:17 18.6 C 42 %
4616 06-08-2019 11:07:18 18.6 C 42 %
4617 06-08-2019 11:19:17 18.9 C 41 %
4618 06-08-2019 11:31:18 20.1 C 38 %
4619 06-08-2019 11:43:18 20.6 C 33 %
4620 06-08-2019 11:55:17 20.7 C 29 %
4621 06-08-2019 12:07:18 21.3 C 28 %
4622 06-08-2019 12:19:17 21.9 C 25 %
4623 06-08-2019 12:31:18 22.1 C 24 %
4624 06-08-2019 12:43:18 22 C 21 %
4625 06-08-2019 12:55:17 22.2 C 22 %
Sensor: Nr:Datum:Temp:Feuchte:
Aussen-T/F 4626 06-08-2019 13:07:17 22.3 C 21 %
4627 06-08-2019 13:19:18 22.3 C 22 %
4628 06-08-2019 13:31:17 22.6 C 22 %
4629 06-08-2019 1